GEFSMW_prec_meanprecacc_012.txt.gz
Total_Precipitation_Accumulation
0.00 0.00 0.00 0.00 0.00 0.00 0.00 0.00 0.00 0.00 0.00 0.00 0.00 0.00 0.00 0.00 0.00 0.00 0.00 0.00 0.00 0.00 0.00 0.00 0.01 0.02 0.03 0.05 0.07 0.05 0.04 0.05 0.08 0.09 0.07 0.06 0.06 0.06 0.04 0.03 0.01 0.00 0.00
0.00 0.00 0.00 0.00 0.00 0.00 0.00 0.00 0.00 0.00 0.00 0.00 0.00 0.00 0.00 0.00 0.00 0.00 0.00 0.00 0.00 0.00 0.00 0.00 0.00 0.00 0.00 0.00 0.00 0.01 0.01 0.01 0.03 0.06 0.05 0.03 0.02 0.01 0.03 0.04 0.03 0.01 0.01
0.00 0.00 0.00 0.00 0.00 0.00 0.00 0.00 0.00 0.00 0.00 0.00 0.00 0.00 0.00 0.00 0.00 0.00 0.00 0.00 0.00 0.00 0.00 0.00 0.00 0.00 0.00 0.00 0.00 0.00 0.00 0.00 0.00 0.02 0.05 0.04 0.02 0.00 0.01 0.02 0.03 0.03 0.02
0.00 0.00 0.00 0.00 0.00 0.00 0.00 0.00 0.00 0.00 0.00 0.00 0.00 0.00 0.00 0.00 0.00 0.00 0.00 0.00 0.00 0.00 0.00 0.00 0.00 0.00 0.00 0.00 0.00 0.00 0.00 0.00 0.00 0.01 0.02 0.03 0.04 0.03 0.02 0.00 0.01 0.03 0.03
0.00 0.00 0.00 0.00 0.00 0.00 0.00 0.00 0.00 0.00 0.00 0.00 0.00 0.00 0.00 0.00 0.00 0.00 0.00 0.00 0.00 0.00 0.00 0.00 0.00 0.00 0.00 0.00 0.00 0.00 0.00 0.00 0.00 0.00 0.00 0.00 0.01 0.03 0.04 0.02 0.01 0.00 0.01
0.00 0.00 0.00 0.00 0.00 0.00 0.00 0.00 0.00 0.00 0.00 0.00 0.00 0.00 0.00 0.00 0.00 0.00 0.00 0.00 0.00 0.00 0.00 0.00 0.00 0.00 0.00 0.00 0.00 0.00 0.00 0.00 0.00 0.00 0.00 0.00 0.00 0.00 0.01 0.02 0.02 0.02 0.00
0.00 0.00 0.00 0.00 0.00 0.00 0.00 0.00 0.00 0.00 0.00 0.00 0.00 0.00 0.00 0.00 0.00 0.00 0.00 0.00 0.00 0.00 0.00 0.00 0.00 0.00 0.00 0.00 0.00 0.00 0.00 0.00 0.00 0.00 0.00 0.00 0.00 0.00 0.00 0.01 0.03 0.03 0.01
0.00 0.00 0.00 0.00 0.00 0.00 0.00 0.00 0.00 0.00 0.00 0.00 0.00 0.00 0.00 0.00 0.00 0.00 0.00 0.00 0.00 0.00 0.00 0.00 0.00 0.00 0.00 0.00 0.00 0.00 0.00 0.00 0.00 0.00 0.00 0.00 0.00 0.00 0.00 0.01 0.02 0.03 0.02
0.00 0.00 0.00 0.00 0.00 0.00 0.00 0.00 0.00 0.00 0.00 0.00 0.00 0.00 0.00 0.00 0.00 0.00 0.00 0.00 0.00 0.00 0.00 0.00 0.00 0.00 0.00 0.00 0.00 0.00 0.00 0.00 0.00 0.00 0.00 0.00 0.00 0.00 0.00 0.01 0.01 0.02 0.02
0.00 0.00 0.00 0.00 0.00 0.00 0.00 0.00 0.00 0.00 0.00 0.00 0.00 0.00 0.00 0.00 0.00 0.00 0.00 0.00 0.00 0.00 0.00 0.00 0.00 0.00 0.00 0.00 0.00 0.00 0.00 0.00 0.00 0.00 0.00 0.00 0.00 0.00 0.00 0.00 0.01 0.01 0.02
0.00 0.00 0.00 0.00 0.00 0.00 0.00 0.00 0.00 0.00 0.00 0.00 0.01 0.01 0.01 0.00 0.00 0.00 0.00 0.00 0.00 0.00 0.00 0.00 0.00 0.00 0.00 0.00 0.00 0.00 0.00 0.00 0.00 0.00 0.00 0.00 0.00 0.00 0.00 0.00 0.01 0.01 0.03
0.00 0.00 0.00 0.00 0.00 0.00 0.00 0.00 0.00 0.00 0.01 0.01 0.02 0.02 0.02 0.02 0.01 0.01 0.00 0.00 0.00 0.00 0.00 0.00 0.00 0.00 0.00 0.00 0.00 0.00 0.00 0.00 0.00 0.00 0.00 0.00 0.00 0.00 0.00 0.00 0.00 0.01 0.02
0.00 0.00 0.00 0.00 0.00 0.00 0.01 0.01 0.01 0.01 0.01 0.02 0.03 0.04 0.05 0.06 0.05 0.03 0.01 0.01 0.00 0.00 0.00 0.00 0.00 0.00 0.00 0.00 0.00 0.00 0.00 0.00 0.00 0.00 0.00 0.00 0.00 0.00 0.00 0.00 0.00 0.00 0.00
0.00 0.00 0.00 0.00 0.00 0.01 0.01 0.01 0.01 0.02 0.03 0.05 0.08 0.10 0.11 0.11 0.10 0.07 0.04 0.02 0.01 0.00 0.00 0.00 0.00 0.00 0.00 0.01 0.01 0.00 0.00 0.00 0.00 0.00 0.00 0.00 0.00 0.00 0.00 0.00 0.00 0.00 0.00
0.00 0.00 0.00 0.00 0.00 0.01 0.01 0.02 0.04 0.07 0.12 0.16 0.18 0.18 0.15 0.12 0.08 0.05 0.03 0.02 0.01 0.01 0.01 0.00 0.00 0.00 0.02 0.04 0.02 0.01 0.00 0.00 0.00 0.00 0.00 0.00 0.01 0.01 0.01 0.01 0.00 0.00 0.00
0.00 0.00 0.01 0.01 0.02 0.03 0.05 0.09 0.13 0.17 0.21 0.24 0.23 0.20 0.15 0.12 0.09 0.06 0.05 0.03 0.02 0.01 0.00 0.00 0.00 0.00 0.03 0.07 0.04 0.01 0.00 0.00 0.00 0.00 0.00 0.01 0.02 0.02 0.03 0.04 0.03 0.02 0.01
0.01 0.02 0.03 0.05 0.06 0.09 0.12 0.15 0.18 0.20 0.23 0.26 0.26 0.23 0.18 0.14 0.10 0.07 0.04 0.02 0.01 0.00 0.00 0.00 0.00 0.00 0.03 0.07 0.03 0.00 0.00 0.00 0.00 0.00 0.00 0.00 0.00 0.01 0.01 0.01 0.01 0.00 0.00
0.03 0.06 0.08 0.10 0.13 0.17 0.19 0.21 0.23 0.24 0.25 0.24 0.21 0.17 0.12 0.09 0.06 0.04 0.02 0.01 0.00 0.00 0.00 0.00 0.00 0.00 0.01 0.03 0.04 0.01 0.00 0.00 0.00 0.00 0.00 0.00 0.00 0.00 0.00 0.00 0.00 0.00 0.00
0.04 0.05 0.06 0.07 0.11 0.16 0.19 0.20 0.20 0.19 0.17 0.14 0.11 0.08 0.05 0.04 0.03 0.02 0.01 0.00 0.00 0.00 0.00 0.00 0.00 0.00 0.00 0.00 0.02 0.01 0.00 0.00 0.00 0.00 0.00 0.00 0.00 0.00 0.01 0.01 0.00 0.00 0.00
0.03 0.03 0.03 0.04 0.06 0.08 0.10 0.11 0.12 0.10 0.08 0.06 0.04 0.02 0.01 0.02 0.02 0.01 0.00 0.00 0.00 0.00 0.00 0.00 0.00 0.00 0.00 0.00 0.00 0.01 0.00 0.00 0.00 0.00 0.00 0.00 0.00 0.01 0.01 0.01 0.01 0.00 0.00
0.02 0.02 0.02 0.04 0.06 0.09 0.10 0.10 0.07 0.05 0.03 0.02 0.01 0.00 0.00 0.00 0.00 0.00 0.00 0.00 0.00 0.00 0.00 0.00 0.00 0.00 0.00 0.00 0.00 0.01 0.00 0.00 0.00 0.00 0.00 0.00 0.00 0.01 0.01 0.01 0.00 0.01 0.01
0.02 0.02 0.03 0.05 0.10 0.12 0.10 0.06 0.04 0.01 0.00 0.00 0.00 0.00 0.00 0.00 0.00 0.00 0.00 0.00 0.00 0.00 0.00 0.00 0.00 0.00 0.00 0.00 0.00 0.01 0.01 0.01 0.00 0.00 0.00 0.00 0.00 0.00 0.00 0.00 0.00 0.00 0.00
0.02 0.04 0.05 0.08 0.11 0.09 0.05 0.02 0.01 0.00 0.00 0.00 0.00 0.00 0.00 0.00 0.00 0.00 0.00 0.00 0.00 0.00 0.00 0.00 0.00 0.00 0.00 0.00 0.00 0.01 0.00 0.00 0.00 0.00 0.00 0.00 0.00 0.00 0.00 0.00 0.00 0.00 0.00
0.05 0.06 0.07 0.08 0.10 0.06 0.02 0.00 0.00 0.00 0.00 0.00 0.00 0.00 0.00 0.00 0.00 0.00 0.00 0.00 0.00 0.00 0.00 0.00 0.00 0.00 0.00 0.00 0.01 0.02 0.01 0.00 0.00 0.00 0.00 0.00 0.00 0.00 0.00 0.00 0.00 0.00 0.00
0.07 0.08 0.09 0.09 0.07 0.03 0.01 0.00 0.00 0.00 0.00 0.00 0.00 0.00 0.00 0.00 0.00 0.00 0.00 0.00 0.00 0.00 0.00 0.00 0.00 0.00 0.00 0.00 0.03 0.05 0.03 0.01 0.01 0.00 0.00 0.00 0.00 0.00 0.00 0.00 0.00 0.00 0.00
0.11 0.11 0.09 0.05 0.02 0.01 0.00 0.00 0.00 0.00 0.00 0.00 0.00 0.00 0.00 0.00 0.00 0.00 0.00 0.00 0.00 0.00 0.00 0.00 0.00 0.01 0.01 0.02 0.04 0.04 0.02 0.01 0.00 0.00 0.00 0.00 0.00 0.00 0.00 0.00 0.00 0.00 0.00

GEFSMW_prec_meanprecacc_018.txt.gz
Total_Precipitation_Accumulation
0.00 0.00 0.00 0.00 0.00 0.00 0.00 0.00 0.00 0.00 0.00 0.00 0.00 0.00 0.00 0.00 0.00 0.00 0.00 0.00 0.00 0.00 0.00 0.00 0.01 0.02 0.04 0.07 0.09 0.10 0.10 0.11 0.16 0.20 0.19 0.20 0.22 0.25 0.23 0.20 0.18 0.16 0.12
0.00 0.00 0.00 0.00 0.00 0.00 0.00 0.00 0.00 0.00 0.00 0.00 0.00 0.00 0.00 0.00 0.00 0.00 0.00 0.00 0.00 0.00 0.00 0.00 0.00 0.00 0.00 0.00 0.01 0.02 0.04 0.04 0.06 0.12 0.15 0.14 0.15 0.15 0.16 0.15 0.17 0.19 0.17
0.00 0.00 0.00 0.00 0.00 0.00 0.00 0.00 0.00 0.00 0.00 0.00 0.00 0.00 0.00 0.00 0.00 0.00 0.00 0.00 0.00 0.00 0.00 0.00 0.00 0.00 0.00 0.00 0.00 0.00 0.01 0.01 0.02 0.04 0.08 0.09 0.08 0.11 0.11 0.12 0.12 0.14 0.12
0.00 0.00 0.00 0.00 0.00 0.00 0.00 0.00 0.00 0.00 0.00 0.00 0.00 0.00 0.00 0.00 0.00 0.00 0.00 0.00 0.00 0.00 0.00 0.00 0.00 0.00 0.00 0.00 0.00 0.00 0.00 0.00 0.00 0.01 0.02 0.04 0.05 0.05 0.06 0.04 0.04 0.05 0.05
0.00 0.00 0.00 0.00 0.00 0.00 0.00 0.00 0.00 0.00 0.00 0.00 0.00 0.00 0.00 0.00 0.00 0.00 0.00 0.00 0.00 0.00 0.00 0.00 0.00 0.00 0.00 0.00 0.00 0.00 0.00 0.00 0.00 0.00 0.00 0.00 0.01 0.03 0.05 0.02 0.01 0.01 0.01
0.00 0.00 0.00 0.00 0.00 0.00 0.00 0.00 0.00 0.00 0.00 0.00 0.00 0.00 0.00 0.00 0.00 0.00 0.00 0.00 0.00 0.00 0.00 0.00 0.00 0.00 0.00 0.00 0.00 0.00 0.00 0.00 0.00 0.00 0.00 0.00 0.00 0.00 0.01 0.02 0.02 0.02 0.00
0.00 0.00 0.00 0.00 0.00 0.00 0.00 0.00 0.00 0.00 0.00 0.00 0.00 0.00 0.00 0.00 0.00 0.00 0.00 0.00 0.00 0.00 0.00 0.00 0.00 0.00 0.00 0.00 0.00 0.00 0.00 0.00 0.00 0.00 0.00 0.00 0.00 0.00 0.00 0.01 0.03 0.03 0.01
0.00 0.00 0.00 0.00 0.00 0.00 0.00 0.00 0.00 0.00 0.00 0.00 0.00 0.00 0.00 0.00 0.00 0.00 0.00 0.00 0.00 0.00 0.00 0.00 0.00 0.00 0.00 0.00 0.00 0.00 0.00 0.00 0.00 0.00 0.00 0.00 0.00 0.00 0.00 0.01 0.02 0.03 0.02
0.00 0.00 0.00 0.00 0.00 0.00 0.00 0.00 0.00 0.00 0.00 0.00 0.00 0.00 0.00 0.00 0.00 0.00 0.00 0.00 0.00 0.00 0.00 0.00 0.00 0.00 0.00 0.00 0.00 0.00 0.00 0.00 0.00 0.00 0.00 0.00 0.00 0.00 0.00 0.01 0.01 0.02 0.02
0.00 0.00 0.00 0.00 0.00 0.00 0.00 0.00 0.00 0.00 0.00 0.00 0.00 0.00 0.00 0.00 0.01 0.01 0.01 0.01 0.01 0.01 0.01 0.01 0.00 0.00 0.00 0.00 0.00 0.00 0.00 0.00 0.00 0.00 0.00 0.00 0.00 0.00 0.00 0.00 0.01 0.01 0.02
0.00 0.00 0.00 0.00 0.00 0.00 0.00 0.00 0.00 0.00 0.01 0.01 0.01 0.01 0.02 0.03 0.03 0.04 0.04 0.05 0.04 0.04 0.03 0.02 0.01 0.01 0.00 0.00 0.00 0.00 0.00 0.00 0.00 0.00 0.00 0.00 0.00 0.00 0.00 0.01 0.01 0.02 0.03
0.00 0.00 0.00 0.00 0.00 0.00 0.00 0.00 0.01 0.02 0.03 0.02 0.02 0.03 0.04 0.06 0.08 0.10 0.11 0.10 0.08 0.07 0.05 0.04 0.03 0.02 0.01 0.00 0.00 0.00 0.00 0.00 0.00 0.00 0.00 0.00 0.00 0.00 0.00 0.01 0.01 0.02 0.02
0.00 0.00 0.00 0.00 0.00 0.01 0.01 0.01 0.03 0.04 0.03 0.03 0.04 0.06 0.08 0.12 0.15 0.18 0.18 0.16 0.14 0.11 0.08 0.07 0.05 0.03 0.02 0.01 0.01 0.00 0.00 0.00 0.00 0.00 0.00 0.00 0.00 0.00 0.00 0.01 0.01 0.01 0.02
0.00 0.00 0.00 0.00 0.01 0.01 0.02 0.03 0.04 0.06 0.06 0.08 0.10 0.14 0.17 0.21 0.24 0.24 0.23 0.20 0.18 0.16 0.14 0.12 0.09 0.06 0.04 0.03 0.02 0.01 0.00 0.00 0.00 0.00 0.00 0.00 0.00 0.00 0.00 0.00 0.01 0.01 0.02
0.00 0.00 0.01 0.01 0.01 0.02 0.03 0.06 0.09 0.12 0.15 0.19 0.22 0.23 0.22 0.22 0.21 0.20 0.20 0.20 0.20 0.19 0.17 0.13 0.10 0.07 0.06 0.05 0.03 0.01 0.01 0.01 0.01 0.01 0.00 0.01 0.01 0.02 0.02 0.02 0.01 0.01 0.01
0.00 0.01 0.02 0.02 0.03 0.05 0.09 0.14 0.19 0.22 0.24 0.26 0.27 0.25 0.22 0.21 0.20 0.20 0.19 0.19 0.18 0.15 0.12 0.09 0.08 0.07 0.09 0.11 0.04 0.01 0.01 0.01 0.01 0.01 0.01 0.01 0.02 0.04 0.06 0.06 0.04 0.02 0.01
0.02 0.03 0.05 0.07 0.09 0.13 0.17 0.21 0.23 0.24 0.26 0.28 0.28 0.26 0.24 0.23 0.21 0.18 0.16 0.14 0.12 0.09 0.06 0.04 0.04 0.05 0.10 0.13 0.05 0.01 0.00 0.00 0.00 0.00 0.00 0.00 0.01 0.01 0.01 0.02 0.01 0.01 0.00
0.05 0.08 0.10 0.12 0.15 0.20 0.24 0.27 0.26 0.26 0.26 0.25 0.23 0.19 0.16 0.15 0.14 0.13 0.11 0.09 0.06 0.05 0.03 0.02 0.01 0.01 0.03 0.06 0.06 0.01 0.00 0.00 0.00 0.00 0.00 0.00 0.00 0.00 0.00 0.00 0.00 0.00 0.00
0.06 0.07 0.07 0.09 0.13 0.19 0.22 0.22 0.21 0.20 0.17 0.15 0.12 0.09 0.07 0.07 0.08 0.08 0.06 0.04 0.03 0.02 0.01 0.00 0.00 0.00 0.00 0.00 0.02 0.02 0.00 0.00 0.00 0.00 0.00 0.00 0.00 0.00 0.01 0.01 0.00 0.00 0.00
0.03 0.04 0.03 0.04 0.07 0.10 0.12 0.12 0.12 0.10 0.09 0.07 0.05 0.03 0.02 0.02 0.03 0.03 0.02 0.01 0.01 0.00 0.00 0.00 0.00 0.00 0.00 0.00 0.00 0.01 0.00 0.00 0.00 0.00 0.00 0.00 0.00 0.01 0.01 0.01 0.01 0.00 0.00
0.03 0.02 0.02 0.04 0.07 0.10 0.11 0.10 0.08 0.05 0.03 0.02 0.01 0.00 0.00 0.00 0.01 0.00 0.00 0.01 0.00 0.00 0.00 0.00 0.00 0.00 0.00 0.00 0.00 0.01 0.01 0.00 0.00 0.00 0.00 0.00 0.00 0.01 0.01 0.01 0.00 0.01 0.01
0.02 0.02 0.03 0.05 0.10 0.12 0.10 0.06 0.04 0.01 0.00 0.00 0.00 0.00 0.00 0.00 0.00 0.00 0.00 0.00 0.00 0.00 0.00 0.00 0.00 0.00 0.00 0.00 0.00 0.01 0.01 0.01 0.00 0.00 0.00 0.00 0.00 0.00 0.00 0.00 0.00 0.00 0.00
0.02 0.04 0.05 0.08 0.11 0.09 0.05 0.02 0.01 0.00 0.00 0.00 0.00 0.00 0.00 0.00 0.00 0.00 0.00 0.00 0.00 0.00 0.00 0.00 0.00 0.00 0.00 0.00 0.00 0.01 0.01 0.01 0.00 0.00 0.00 0.00 0.00 0.00 0.00 0.00 0.00 0.00 0.00
0.05 0.06 0.07 0.09 0.10 0.06 0.02 0.00 0.00 0.00 0.00 0.00 0.00 0.00 0.00 0.00 0.00 0.00 0.00 0.00 0.00 0.00 0.00 0.00 0.00 0.00 0.00 0.00 0.01 0.02 0.02 0.01 0.01 0.00 0.00 0.00 0.00 0.00 0.00 0.00 0.00 0.00 0.00
0.07 0.08 0.09 0.09 0.07 0.03 0.01 0.00 0.00 0.00 0.00 0.00 0.00 0.00 0.00 0.00 0.00 0.00 0.00 0.00 0.00 0.00 0.01 0.01 0.01 0.01 0.01 0.01 0.05 0.08 0.06 0.04 0.02 0.01 0.00 0.00 0.00 0.00 0.00 0.00 0.00 0.00 0.00
0.11 0.11 0.09 0.05 0.02 0.01 0.00 0.00 0.00 0.00 0.00 0.00 0.00 0.00 0.00 0.00 0.00 0.00 0.00 0.00 0.00 0.00 0.00 0.00 0.01 0.01 0.01 0.03 0.06 0.07 0.05 0.02 0.01 0.00 0.00 0.00 0.00 0.00 0.00 0.00 0.00 0.00 0.00

GEFSMW_prec_meanprecacc_024.txt.gz
Total_Precipitation_Accumulation
0.00 0.00 0.00 0.00 0.00 0.00 0.00 0.00 0.00 0.00 0.00 0.00 0.00 0.00 0.00 0.00 0.00 0.00 0.00 0.00 0.00 0.00 0.00 0.00 0.01 0.02 0.04 0.07 0.10 0.10 0.11 0.12 0.16 0.20 0.19 0.20 0.23 0.27 0.26 0.24 0.26 0.29 0.30
0.00 0.00 0.00 0.00 0.00 0.00 0.00 0.00 0.00 0.00 0.00 0.00 0.00 0.00 0.00 0.00 0.00 0.00 0.00 0.00 0.00 0.00 0.00 0.00 0.00 0.00 0.00 0.01 0.01 0.02 0.04 0.04 0.07 0.12 0.15 0.14 0.15 0.16 0.17 0.18 0.21 0.27 0.32
0.00 0.00 0.00 0.00 0.00 0.00 0.00 0.00 0.00 0.00 0.00 0.00 0.00 0.00 0.00 0.00 0.00 0.00 0.00 0.00 0.00 0.00 0.00 0.00 0.00 0.00 0.00 0.00 0.00 0.00 0.01 0.01 0.02 0.05 0.09 0.09 0.08 0.11 0.11 0.14 0.15 0.18 0.19
0.00 0.00 0.00 0.00 0.00 0.00 0.00 0.00 0.00 0.00 0.00 0.00 0.00 0.00 0.00 0.00 0.00 0.00 0.00 0.00 0.00 0.00 0.00 0.00 0.00 0.00 0.00 0.00 0.00 0.00 0.00 0.00 0.00 0.01 0.02 0.04 0.05 0.05 0.06 0.05 0.05 0.06 0.07
0.00 0.00 0.00 0.00 0.00 0.00 0.00 0.00 0.00 0.00 0.00 0.00 0.00 0.00 0.00 0.00 0.00 0.00 0.00 0.00 0.00 0.00 0.00 0.00 0.01 0.01 0.01 0.01 0.01 0.00 0.00 0.00 0.00 0.00 0.00 0.00 0.01 0.03 0.05 0.02 0.01 0.01 0.02
0.00 0.00 0.00 0.00 0.00 0.00 0.00 0.00 0.00 0.00 0.00 0.00 0.00 0.00 0.00 0.00 0.00 0.00 0.00 0.00 0.00 0.00 0.01 0.01 0.01 0.01 0.01 0.01 0.01 0.01 0.00 0.00 0.00 0.00 0.00 0.00 0.00 0.00 0.01 0.02 0.02 0.02 0.01
0.00 0.00 0.00 0.00 0.00 0.00 0.00 0.00 0.00 0.00 0.00 0.00 0.00 0.00 0.00 0.00 0.00 0.00 0.00 0.00 0.00 0.00 0.01 0.01 0.02 0.02 0.02 0.02 0.02 0.02 0.01 0.01 0.01 0.00 0.00 0.00 0.00 0.00 0.00 0.01 0.03 0.03 0.01
0.00 0.00 0.00 0.00 0.00 0.00 0.00 0.00 0.00 0.00 0.00 0.00 0.00 0.00 0.00 0.00 0.00 0.00 0.00 0.00 0.00 0.00 0.01 0.02 0.03 0.04 0.04 0.04 0.04 0.03 0.03 0.02 0.02 0.01 0.00 0.00 0.00 0.00 0.00 0.01 0.02 0.03 0.02
0.00 0.00 0.00 0.00 0.00 0.00 0.00 0.00 0.00 0.00 0.00 0.00 0.00 0.00 0.00 0.00 0.00 0.00 0.00 0.01 0.01 0.02 0.03 0.05 0.06 0.07 0.07 0.07 0.05 0.04 0.03 0.02 0.02 0.01 0.01 0.00 0.00 0.00 0.00 0.01 0.01 0.02 0.02
0.00 0.00 0.00 0.00 0.00 0.00 0.00 0.00 0.00 0.00 0.00 0.00 0.00 0.00 0.00 0.00 0.01 0.01 0.02 0.03 0.04 0.04 0.05 0.06 0.08 0.09 0.09 0.09 0.08 0.06 0.04 0.02 0.01 0.01 0.00 0.00 0.00 0.00 0.00 0.00 0.01 0.01 0.02
0.00 0.00 0.00 0.00 0.00 0.00 0.00 0.00 0.00 0.01 0.01 0.01 0.01 0.02 0.02 0.03 0.03 0.04 0.05 0.06 0.07 0.08 0.08 0.08 0.08 0.08 0.09 0.09 0.09 0.09 0.07 0.05 0.02 0.01 0.01 0.00 0.00 0.00 0.00 0.01 0.01 0.02 0.03
0.00 0.00 0.00 0.00 0.00 0.00 0.00 0.01 0.02 0.03 0.04 0.03 0.03 0.03 0.04 0.06 0.09 0.11 0.12 0.12 0.13 0.13 0.13 0.12 0.11 0.10 0.09 0.08 0.08 0.08 0.07 0.06 0.05 0.03 0.03 0.02 0.01 0.00 0.00 0.01 0.01 0.02 0.02
0.00 0.00 0.00 0.00 0.00 0.01 0.01 0.02 0.03 0.05 0.04 0.04 0.05 0.06 0.09 0.12 0.16 0.19 0.19 0.19 0.19 0.19 0.18 0.18 0.17 0.16 0.15 0.13 0.11 0.10 0.09 0.08 0.07 0.06 0.05 0.04 0.03 0.01 0.01 0.01 0.01 0.01 0.02
0.00 0.00 0.00 0.00 0.01 0.01 0.02 0.03 0.05 0.06 0.07 0.09 0.11 0.14 0.18 0.22 0.25 0.26 0.24 0.23 0.23 0.23 0.23 0.23 0.24 0.24 0.24 0.23 0.20 0.17 0.14 0.12 0.10 0.08 0.07 0.06 0.04 0.02 0.01 0.01 0.01 0.01 0.02
0.00 0.00 0.01 0.01 0.02 0.02 0.03 0.06 0.09 0.12 0.16 0.20 0.23 0.23 0.22 0.22 0.22 0.22 0.22 0.23 0.25 0.26 0.25 0.24 0.24 0.27 0.30 0.29 0.20 0.17 0.16 0.15 0.14 0.12 0.09 0.07 0.06 0.05 0.04 0.02 0.01 0.01 0.01
0.01 0.01 0.02 0.03 0.04 0.06 0.09 0.14 0.20 0.23 0.25 0.27 0.27 0.25 0.22 0.21 0.21 0.21 0.22 0.23 0.23 0.21 0.17 0.16 0.20 0.26 0.32 0.34 0.20 0.13 0.13 0.15 0.14 0.13 0.10 0.07 0.07 0.07 0.09 0.08 0.05 0.03 0.02
0.03 0.04 0.05 0.07 0.09 0.13 0.18 0.22 0.24 0.24 0.26 0.28 0.28 0.26 0.24 0.23 0.21 0.20 0.18 0.17 0.16 0.13 0.10 0.08 0.10 0.15 0.23 0.27 0.16 0.09 0.07 0.07 0.06 0.06 0.04 0.03 0.03 0.03 0.03 0.03 0.02 0.01 0.01
0.07 0.09 0.11 0.12 0.15 0.20 0.24 0.27 0.26 0.26 0.26 0.25 0.23 0.19 0.16 0.15 0.14 0.13 0.12 0.10 0.09 0.08 0.06 0.04 0.04 0.04 0.06 0.11 0.11 0.05 0.03 0.03 0.02 0.01 0.01 0.00 0.00 0.01 0.01 0.00 0.00 0.00 0.00
0.07 0.08 0.08 0.09 0.13 0.19 0.22 0.23 0.21 0.20 0.17 0.15 0.12 0.09 0.07 0.07 0.08 0.08 0.07 0.04 0.03 0.03 0.02 0.01 0.01 0.01 0.01 0.02 0.05 0.04 0.01 0.01 0.01 0.00 0.00 0.00 0.00 0.01 0.01 0.01 0.01 0.00 0.00
0.04 0.04 0.04 0.04 0.07 0.10 0.12 0.12 0.12 0.10 0.09 0.07 0.05 0.03 0.02 0.02 0.03 0.03 0.02 0.01 0.01 0.01 0.00 0.00 0.00 0.00 0.00 0.01 0.04 0.04 0.01 0.01 0.00 0.00 0.00 0.00 0.00 0.01 0.01 0.01 0.01 0.00 0.00
0.03 0.02 0.02 0.04 0.07 0.10 0.11 0.10 0.08 0.05 0.03 0.02 0.01 0.00 0.00 0.00 0.01 0.00 0.00 0.01 0.00 0.00 0.00 0.00 0.00 0.00 0.00 0.00 0.03 0.06 0.02 0.01 0.00 0.00 0.00 0.00 0.01 0.01 0.01 0.01 0.00 0.01 0.01
0.02 0.02 0.03 0.05 0.10 0.12 0.10 0.06 0.04 0.01 0.00 0.00 0.00 0.00 0.00 0.00 0.00 0.00 0.00 0.00 0.00 0.00 0.00 0.00 0.00 0.00 0.00 0.00 0.03 0.06 0.07 0.05 0.01 0.00 0.00 0.00 0.00 0.00 0.00 0.00 0.00 0.00 0.00
0.02 0.04 0.05 0.08 0.11 0.09 0.05 0.02 0.01 0.00 0.00 0.00 0.00 0.00 0.00 0.00 0.00 0.00 0.00 0.00 0.00 0.00 0.00 0.00 0.00 0.00 0.00 0.00 0.01 0.02 0.03 0.04 0.03 0.01 0.01 0.01 0.00 0.00 0.00 0.00 0.00 0.00 0.00
0.05 0.06 0.07 0.09 0.10 0.06 0.02 0.00 0.00 0.00 0.00 0.00 0.00 0.00 0.00 0.00 0.00 0.00 0.00 0.00 0.00 0.01 0.03 0.02 0.01 0.00 0.00 0.00 0.01 0.03 0.02 0.02 0.03 0.02 0.02 0.02 0.00 0.00 0.00 0.00 0.00 0.00 0.00
0.07 0.08 0.09 0.09 0.07 0.03 0.01 0.00 0.00 0.00 0.00 0.00 0.00 0.00 0.00 0.00 0.00 0.00 0.00 0.00 0.00 0.02 0.05 0.04 0.03 0.03 0.02 0.03 0.08 0.11 0.08 0.06 0.05 0.03 0.01 0.01 0.00 0.00 0.00 0.00 0.00 0.00 0.00
0.11 0.11 0.09 0.05 0.02 0.01 0.00 0.00 0.00 0.00 0.00 0.00 0.00 0.00 0.00 0.00 0.00 0.00 0.00 0.00 0.00 0.01 0.01 0.02 0.03 0.03 0.05 0.08 0.09 0.10 0.09 0.06 0.05 0.03 0.01 0.00 0.00 0.00 0.00 0.00 0.00 0.00 0.00

GEFSMW_prec_meanprecacc_030.txt.gz
Total_Precipitation_Accumulation
0.00 0.00 0.00 0.00 0.00 0.00 0.00 0.00 0.00 0.00 0.00 0.00 0.00 0.00 0.00 0.00 0.00 0.00 0.00 0.00 0.00 0.00 0.00 0.00 0.01 0.02 0.04 0.07 0.10 0.10 0.11 0.12 0.16 0.20 0.19 0.20 0.23 0.27 0.26 0.25 0.27 0.31 0.32
0.00 0.00 0.00 0.00 0.00 0.00 0.00 0.00 0.00 0.00 0.00 0.00 0.00 0.00 0.00 0.00 0.00 0.00 0.00 0.00 0.00 0.00 0.00 0.00 0.00 0.00 0.00 0.01 0.01 0.03 0.04 0.04 0.07 0.13 0.16 0.14 0.15 0.16 0.17 0.18 0.22 0.27 0.33
0.00 0.00 0.00 0.00 0.00 0.00 0.00 0.00 0.00 0.00 0.00 0.00 0.00 0.00 0.00 0.00 0.00 0.00 0.00 0.00 0.00 0.00 0.00 0.00 0.00 0.00 0.00 0.00 0.00 0.01 0.02 0.02 0.03 0.06 0.10 0.10 0.08 0.11 0.11 0.14 0.16 0.19 0.20
0.00 0.00 0.00 0.00 0.00 0.00 0.00 0.00 0.00 0.00 0.00 0.00 0.00 0.00 0.00 0.00 0.00 0.00 0.00 0.00 0.00 0.00 0.00 0.00 0.00 0.00 0.00 0.00 0.01 0.01 0.01 0.01 0.02 0.03 0.04 0.05 0.05 0.06 0.06 0.05 0.05 0.07 0.08
0.00 0.00 0.00 0.00 0.00 0.00 0.00 0.00 0.00 0.00 0.00 0.00 0.00 0.00 0.00 0.00 0.00 0.00 0.00 0.00 0.00 0.00 0.00 0.00 0.01 0.01 0.01 0.01 0.01 0.01 0.01 0.02 0.02 0.02 0.02 0.02 0.02 0.04 0.05 0.02 0.01 0.01 0.03
0.00 0.00 0.00 0.00 0.00 0.00 0.00 0.00 0.00 0.00 0.00 0.00 0.00 0.00 0.00 0.00 0.00 0.00 0.00 0.00 0.00 0.00 0.01 0.01 0.01 0.01 0.01 0.01 0.02 0.02 0.02 0.02 0.03 0.03 0.02 0.02 0.01 0.01 0.01 0.02 0.03 0.02 0.01
0.00 0.00 0.00 0.00 0.00 0.00 0.00 0.00 0.00 0.00 0.00 0.00 0.00 0.00 0.00 0.00 0.00 0.00 0.00 0.00 0.00 0.00 0.01 0.01 0.02 0.03 0.03 0.03 0.04 0.04 0.05 0.05 0.04 0.04 0.03 0.03 0.02 0.01 0.01 0.02 0.04 0.04 0.02
0.00 0.00 0.00 0.00 0.00 0.00 0.00 0.00 0.00 0.00 0.00 0.00 0.00 0.00 0.00 0.00 0.00 0.00 0.00 0.00 0.01 0.01 0.01 0.02 0.04 0.05 0.05 0.06 0.07 0.08 0.08 0.08 0.08 0.07 0.06 0.04 0.03 0.02 0.01 0.01 0.02 0.03 0.02
0.00 0.00 0.00 0.00 0.00 0.00 0.00 0.00 0.00 0.00 0.00 0.00 0.00 0.00 0.00 0.00 0.00 0.00 0.00 0.01 0.02 0.02 0.03 0.06 0.08 0.10 0.10 0.10 0.11 0.12 0.12 0.12 0.12 0.11 0.09 0.08 0.06 0.05 0.03 0.02 0.02 0.02 0.02
0.00 0.00 0.00 0.00 0.00 0.00 0.00 0.00 0.00 0.00 0.01 0.00 0.01 0.01 0.01 0.01 0.01 0.01 0.02 0.03 0.04 0.05 0.06 0.07 0.09 0.12 0.14 0.15 0.16 0.17 0.17 0.17 0.18 0.17 0.15 0.13 0.12 0.09 0.06 0.04 0.02 0.02 0.02
0.00 0.00 0.00 0.00 0.00 0.00 0.00 0.00 0.01 0.01 0.01 0.01 0.01 0.02 0.02 0.03 0.03 0.04 0.05 0.07 0.08 0.08 0.09 0.09 0.09 0.11 0.13 0.15 0.18 0.21 0.23 0.24 0.23 0.22 0.21 0.20 0.17 0.13 0.08 0.05 0.04 0.03 0.04
0.00 0.00 0.00 0.00 0.00 0.00 0.00 0.01 0.02 0.03 0.04 0.03 0.03 0.04 0.04 0.06 0.09 0.11 0.12 0.13 0.14 0.14 0.14 0.13 0.12 0.12 0.11 0.12 0.14 0.17 0.19 0.21 0.23 0.24 0.24 0.23 0.20 0.16 0.11 0.07 0.04 0.04 0.04
0.00 0.00 0.00 0.00 0.00 0.01 0.01 0.02 0.03 0.05 0.04 0.04 0.05 0.06 0.09 0.12 0.16 0.19 0.20 0.20 0.20 0.19 0.19 0.19 0.18 0.18 0.18 0.18 0.17 0.17 0.17 0.18 0.19 0.19 0.21 0.23 0.24 0.21 0.15 0.09 0.05 0.04 0.03
0.00 0.00 0.00 0.00 0.01 0.01 0.02 0.03 0.05 0.06 0.07 0.09 0.11 0.14 0.18 0.22 0.25 0.26 0.25 0.23 0.23 0.24 0.24 0.24 0.25 0.26 0.29 0.30 0.26 0.23 0.21 0.21 0.21 0.20 0.20 0.20 0.20 0.20 0.18 0.14 0.08 0.05 0.04
0.00 0.00 0.01 0.01 0.02 0.02 0.03 0.06 0.09 0.12 0.16 0.20 0.23 0.23 0.22 0.22 0.22 0.22 0.22 0.23 0.25 0.26 0.26 0.24 0.25 0.29 0.34 0.37 0.28 0.22 0.22 0.24 0.25 0.25 0.24 0.22 0.22 0.22 0.19 0.15 0.11 0.06 0.04
0.01 0.01 0.02 0.03 0.04 0.06 0.09 0.14 0.20 0.23 0.25 0.27 0.27 0.25 0.22 0.21 0.21 0.21 0.22 0.23 0.23 0.21 0.18 0.17 0.20 0.27 0.35 0.42 0.30 0.19 0.18 0.21 0.23 0.24 0.23 0.21 0.21 0.22 0.24 0.21 0.13 0.09 0.06
0.03 0.04 0.05 0.07 0.09 0.13 0.18 0.22 0.24 0.24 0.26 0.28 0.28 0.26 0.24 0.23 0.21 0.20 0.18 0.17 0.16 0.13 0.10 0.09 0.10 0.15 0.24 0.32 0.26 0.15 0.10 0.11 0.12 0.13 0.13 0.12 0.12 0.12 0.11 0.10 0.07 0.06 0.05
0.07 0.09 0.11 0.12 0.15 0.20 0.24 0.27 0.26 0.26 0.26 0.25 0.23 0.19 0.16 0.15 0.14 0.13 0.12 0.10 0.09 0.08 0.06 0.04 0.04 0.04 0.07 0.15 0.22 0.11 0.04 0.05 0.05 0.05 0.05 0.05 0.05 0.05 0.04 0.03 0.03 0.03 0.03
0.07 0.08 0.08 0.09 0.13 0.19 0.22 0.23 0.21 0.20 0.17 0.15 0.12 0.09 0.07 0.07 0.08 0.08 0.07 0.04 0.03 0.03 0.02 0.01 0.01 0.01 0.01 0.05 0.17 0.11 0.02 0.03 0.04 0.03 0.03 0.02 0.02 0.03 0.03 0.03 0.03 0.03 0.03
0.04 0.04 0.04 0.04 0.07 0.10 0.12 0.12 0.12 0.10 0.09 0.07 0.05 0.03 0.02 0.02 0.03 0.03 0.02 0.01 0.01 0.01 0.00 0.00 0.00 0.00 0.00 0.02 0.13 0.16 0.03 0.02 0.03 0.04 0.03 0.03 0.02 0.02 0.02 0.02 0.02 0.02 0.02
0.03 0.02 0.02 0.04 0.07 0.10 0.11 0.10 0.08 0.05 0.03 0.02 0.01 0.00 0.00 0.00 0.01 0.00 0.00 0.01 0.00 0.00 0.00 0.00 0.00 0.00 0.00 0.00 0.07 0.19 0.12 0.05 0.02 0.03 0.03 0.02 0.02 0.01 0.01 0.01 0.01 0.01 0.02
0.02 0.02 0.03 0.05 0.10 0.12 0.10 0.06 0.04 0.01 0.00 0.00 0.00 0.00 0.00 0.00 0.00 0.00 0.00 0.00 0.00 0.00 0.00 0.00 0.00 0.00 0.00 0.00 0.04 0.11 0.16 0.12 0.02 0.02 0.02 0.02 0.02 0.01 0.01 0.01 0.01 0.01 0.00
0.02 0.04 0.05 0.08 0.11 0.09 0.05 0.02 0.01 0.00 0.00 0.00 0.00 0.00 0.00 0.00 0.00 0.00 0.00 0.00 0.00 0.00 0.01 0.01 0.00 0.00 0.00 0.00 0.02 0.04 0.04 0.06 0.04 0.03 0.05 0.04 0.02 0.01 0.01 0.00 0.00 0.00 0.00
0.05 0.06 0.07 0.09 0.10 0.06 0.02 0.00 0.00 0.00 0.00 0.00 0.00 0.00 0.00 0.00 0.00 0.00 0.00 0.00 0.00 0.02 0.05 0.03 0.01 0.00 0.00 0.01 0.05 0.05 0.03 0.03 0.03 0.03 0.06 0.05 0.02 0.00 0.00 0.00 0.00 0.00 0.00
0.07 0.08 0.09 0.09 0.07 0.03 0.01 0.00 0.00 0.00 0.00 0.00 0.00 0.00 0.00 0.00 0.00 0.00 0.00 0.00 0.00 0.03 0.07 0.05 0.04 0.04 0.03 0.07 0.15 0.15 0.11 0.09 0.08 0.05 0.03 0.02 0.01 0.00 0.00 0.00 0.00 0.00 0.00
0.11 0.11 0.09 0.05 0.02 0.01 0.00 0.00 0.00 0.00 0.00 0.00 0.00 0.00 0.00 0.00 0.00 0.00 0.00 0.00 0.00 0.01 0.02 0.02 0.04 0.05 0.08 0.12 0.14 0.13 0.12 0.11 0.09 0.05 0.03 0.02 0.01 0.01 0.00 0.00 0.00 0.00 0.00

GEFSMW_prec_meanprecacc_036.txt.gz
Total_Precipitation_Accumulation
0.00 0.00 0.00 0.00 0.00 0.00 0.00 0.00 0.00 0.00 0.00 0.00 0.00 0.00 0.00 0.00 0.00 0.00 0.00 0.00 0.00 0.00 0.00 0.00 0.01 0.02 0.04 0.07 0.10 0.11 0.11 0.12 0.16 0.20 0.20 0.20 0.23 0.27 0.26 0.25 0.27 0.31 0.32
0.00 0.00 0.00 0.00 0.00 0.00 0.00 0.00 0.00 0.00 0.00 0.00 0.00 0.00 0.00 0.00 0.00 0.00 0.00 0.00 0.00 0.00 0.00 0.00 0.00 0.00 0.00 0.01 0.01 0.03 0.04 0.04 0.07 0.13 0.16 0.14 0.15 0.16 0.17 0.18 0.22 0.27 0.33
0.00 0.00 0.00 0.00 0.00 0.00 0.00 0.00 0.00 0.00 0.00 0.00 0.00 0.00 0.00 0.00 0.00 0.00 0.00 0.00 0.00 0.00 0.00 0.00 0.00 0.00 0.00 0.00 0.00 0.01 0.02 0.02 0.03 0.06 0.12 0.11 0.09 0.11 0.11 0.14 0.16 0.19 0.20
0.00 0.00 0.00 0.00 0.00 0.00 0.00 0.00 0.00 0.00 0.00 0.00 0.00 0.00 0.00 0.00 0.00 0.00 0.00 0.00 0.00 0.00 0.00 0.00 0.00 0.00 0.01 0.01 0.01 0.01 0.01 0.02 0.02 0.03 0.05 0.07 0.07 0.08 0.07 0.05 0.05 0.07 0.09
0.00 0.00 0.00 0.00 0.00 0.00 0.00 0.00 0.00 0.00 0.00 0.00 0.00 0.00 0.00 0.00 0.00 0.00 0.00 0.00 0.00 0.00 0.00 0.01 0.01 0.01 0.01 0.01 0.01 0.01 0.02 0.02 0.03 0.03 0.03 0.03 0.04 0.06 0.08 0.04 0.02 0.02 0.03
0.00 0.00 0.00 0.00 0.00 0.00 0.00 0.00 0.00 0.00 0.00 0.00 0.00 0.00 0.00 0.00 0.00 0.00 0.00 0.00 0.00 0.00 0.01 0.01 0.01 0.01 0.02 0.02 0.02 0.03 0.03 0.03 0.03 0.04 0.04 0.03 0.03 0.03 0.04 0.05 0.04 0.03 0.02
0.00 0.00 0.00 0.00 0.00 0.00 0.00 0.00 0.00 0.00 0.00 0.00 0.00 0.00 0.00 0.00 0.00 0.00 0.00 0.00 0.00 0.01 0.01 0.02 0.02 0.03 0.03 0.04 0.04 0.05 0.06 0.06 0.06 0.05 0.05 0.04 0.04 0.03 0.04 0.05 0.06 0.05 0.02
0.00 0.00 0.00 0.00 0.00 0.00 0.00 0.00 0.00 0.00 0.00 0.00 0.00 0.00 0.00 0.01 0.00 0.00 0.00 0.01 0.01 0.01 0.02 0.03 0.04 0.05 0.06 0.06 0.08 0.09 0.09 0.09 0.09 0.09 0.07 0.06 0.05 0.04 0.04 0.04 0.05 0.06 0.03
0.00 0.00 0.00 0.00 0.00 0.00 0.00 0.00 0.00 0.00 0.00 0.00 0.00 0.00 0.00 0.00 0.00 0.00 0.01 0.01 0.02 0.03 0.04 0.06 0.08 0.10 0.10 0.11 0.11 0.13 0.13 0.13 0.13 0.13 0.12 0.11 0.09 0.08 0.06 0.05 0.05 0.06 0.05
0.00 0.00 0.00 0.00 0.00 0.00 0.00 0.00 0.00 0.00 0.01 0.00 0.01 0.01 0.01 0.01 0.01 0.01 0.02 0.03 0.04 0.05 0.06 0.07 0.09 0.12 0.14 0.16 0.17 0.17 0.18 0.18 0.19 0.19 0.18 0.17 0.16 0.14 0.12 0.09 0.08 0.07 0.07
0.00 0.00 0.00 0.00 0.00 0.00 0.00 0.00 0.01 0.01 0.01 0.01 0.01 0.02 0.02 0.03 0.03 0.04 0.05 0.07 0.08 0.09 0.09 0.09 0.09 0.11 0.13 0.15 0.18 0.22 0.24 0.25 0.24 0.24 0.24 0.24 0.23 0.22 0.20 0.17 0.14 0.11 0.11
0.00 0.00 0.00 0.00 0.00 0.00 0.00 0.01 0.02 0.03 0.04 0.03 0.03 0.04 0.04 0.06 0.09 0.11 0.12 0.13 0.14 0.14 0.14 0.13 0.12 0.12 0.11 0.13 0.15 0.17 0.20 0.22 0.24 0.26 0.27 0.28 0.28 0.28 0.27 0.25 0.21 0.17 0.14
0.00 0.00 0.00 0.00 0.00 0.01 0.01 0.02 0.03 0.05 0.04 0.04 0.05 0.06 0.09 0.12 0.16 0.19 0.20 0.20 0.20 0.19 0.19 0.19 0.18 0.18 0.18 0.19 0.19 0.19 0.18 0.19 0.20 0.21 0.24 0.28 0.31 0.32 0.31 0.30 0.27 0.25 0.19
0.00 0.00 0.00 0.00 0.01 0.01 0.02 0.03 0.05 0.06 0.07 0.09 0.11 0.14 0.18 0.22 0.25 0.26 0.25 0.23 0.23 0.24 0.24 0.24 0.25 0.26 0.29 0.30 0.30 0.28 0.24 0.22 0.23 0.23 0.24 0.26 0.28 0.30 0.32 0.33 0.31 0.29 0.27
0.00 0.01 0.01 0.01 0.02 0.02 0.03 0.06 0.09 0.12 0.16 0.20 0.23 0.23 0.22 0.22 0.22 0.22 0.22 0.23 0.25 0.26 0.26 0.24 0.25 0.29 0.34 0.39 0.38 0.33 0.25 0.25 0.26 0.27 0.27 0.28 0.30 0.34 0.33 0.33 0.32 0.31 0.29
0.01 0.01 0.02 0.03 0.04 0.06 0.09 0.14 0.20 0.23 0.25 0.27 0.27 0.25 0.22 0.21 0.21 0.21 0.22 0.23 0.23 0.21 0.18 0.17 0.20 0.27 0.35 0.44 0.42 0.31 0.21 0.22 0.25 0.27 0.26 0.25 0.28 0.31 0.36 0.36 0.31 0.31 0.31
0.03 0.04 0.05 0.07 0.09 0.13 0.18 0.22 0.24 0.24 0.26 0.28 0.28 0.26 0.24 0.23 0.21 0.20 0.18 0.17 0.16 0.13 0.10 0.09 0.10 0.15 0.24 0.34 0.35 0.26 0.13 0.12 0.14 0.15 0.15 0.15 0.17 0.18 0.20 0.20 0.19 0.21 0.26
0.07 0.09 0.11 0.12 0.15 0.20 0.24 0.27 0.26 0.26 0.26 0.25 0.23 0.19 0.16 0.15 0.14 0.13 0.12 0.10 0.09 0.08 0.06 0.04 0.04 0.04 0.07 0.16 0.28 0.21 0.06 0.06 0.07 0.08 0.08 0.08 0.08 0.09 0.10 0.11 0.12 0.15 0.19
0.07 0.08 0.08 0.09 0.13 0.19 0.22 0.23 0.21 0.20 0.17 0.15 0.12 0.09 0.07 0.07 0.08 0.08 0.07 0.04 0.03 0.03 0.02 0.01 0.01 0.01 0.01 0.06 0.21 0.23 0.05 0.04 0.06 0.06 0.06 0.05 0.05 0.06 0.05 0.07 0.11 0.12 0.14
0.04 0.04 0.04 0.04 0.07 0.10 0.12 0.12 0.12 0.10 0.09 0.07 0.05 0.03 0.02 0.03 0.03 0.03 0.02 0.01 0.01 0.01 0.00 0.00 0.00 0.00 0.00 0.03 0.16 0.29 0.09 0.04 0.04 0.06 0.06 0.09 0.08 0.05 0.03 0.03 0.06 0.08 0.10
0.03 0.02 0.02 0.04 0.07 0.10 0.11 0.10 0.08 0.05 0.03 0.02 0.01 0.00 0.00 0.00 0.01 0.00 0.00 0.01 0.00 0.00 0.00 0.00 0.00 0.00 0.00 0.01 0.09 0.30 0.23 0.08 0.03 0.04 0.05 0.08 0.09 0.05 0.04 0.03 0.03 0.05 0.05
0.02 0.02 0.03 0.05 0.10 0.12 0.10 0.06 0.04 0.01 0.00 0.00 0.00 0.00 0.00 0.00 0.00 0.00 0.00 0.00 0.00 0.00 0.00 0.00 0.00 0.00 0.00 0.01 0.06 0.17 0.24 0.17 0.03 0.03 0.06 0.09 0.09 0.06 0.04 0.02 0.02 0.02 0.01
0.02 0.04 0.05 0.08 0.11 0.09 0.05 0.02 0.01 0.00 0.00 0.00 0.00 0.00 0.00 0.00 0.00 0.00 0.00 0.00 0.00 0.00 0.01 0.01 0.01 0.00 0.00 0.00 0.05 0.08 0.07 0.09 0.06 0.09 0.18 0.13 0.06 0.03 0.03 0.01 0.00 0.00 0.00
0.05 0.06 0.07 0.09 0.10 0.06 0.02 0.00 0.00 0.00 0.00 0.00 0.00 0.00 0.00 0.00 0.00 0.00 0.00 0.01 0.01 0.04 0.08 0.07 0.04 0.02 0.01 0.03 0.11 0.10 0.04 0.04 0.05 0.07 0.15 0.12 0.04 0.01 0.00 0.00 0.00 0.00 0.00
0.07 0.08 0.09 0.09 0.07 0.03 0.01 0.00 0.00 0.00 0.00 0.00 0.00 0.00 0.00 0.00 0.00 0.00 0.00 0.01 0.02 0.08 0.17 0.13 0.09 0.07 0.06 0.14 0.24 0.20 0.14 0.14 0.12 0.07 0.06 0.04 0.02 0.01 0.00 0.00 0.00 0.00 0.00
0.11 0.11 0.09 0.05 0.02 0.01 0.00 0.00 0.00 0.00 0.00 0.00 0.00 0.00 0.01 0.00 0.01 0.01 0.01 0.01 0.02 0.05 0.06 0.07 0.09 0.09 0.13 0.20 0.19 0.15 0.13 0.14 0.12 0.06 0.05 0.04 0.03 0.01 0.01 0.00 0.00 0.00 0.00

GEFSMW_prec_meanprecacc_042.txt.gz
Total_Precipitation_Accumulation
0.00 0.00 0.00 0.00 0.00 0.00 0.00 0.00 0.00 0.00 0.00 0.00 0.00 0.00 0.00 0.00 0.00 0.00 0.00 0.00 0.00 0.00 0.00 0.00 0.01 0.02 0.04 0.07 0.10 0.11 0.11 0.12 0.17 0.21 0.20 0.20 0.23 0.27 0.26 0.25 0.27 0.31 0.33
0.00 0.00 0.00 0.00 0.00 0.00 0.00 0.00 0.00 0.00 0.00 0.00 0.00 0.00 0.00 0.00 0.00 0.00 0.00 0.00 0.00 0.00 0.00 0.00 0.00 0.00 0.01 0.01 0.01 0.03 0.05 0.05 0.07 0.14 0.17 0.14 0.15 0.16 0.17 0.18 0.22 0.28 0.33
0.00 0.00 0.00 0.00 0.00 0.00 0.00 0.00 0.00 0.00 0.00 0.00 0.00 0.00 0.00 0.00 0.00 0.00 0.00 0.00 0.00 0.00 0.00 0.00 0.00 0.00 0.01 0.01 0.01 0.01 0.02 0.03 0.03 0.07 0.15 0.14 0.10 0.12 0.12 0.14 0.16 0.19 0.20
0.00 0.00 0.00 0.00 0.00 0.00 0.00 0.00 0.00 0.00 0.00 0.00 0.00 0.00 0.00 0.00 0.00 0.00 0.00 0.00 0.00 0.00 0.00 0.00 0.00 0.01 0.01 0.01 0.01 0.01 0.02 0.03 0.04 0.04 0.07 0.10 0.09 0.10 0.08 0.05 0.06 0.07 0.09
0.00 0.00 0.00 0.00 0.00 0.00 0.00 0.00 0.00 0.00 0.00 0.00 0.00 0.00 0.00 0.00 0.00 0.00 0.00 0.00 0.00 0.00 0.00 0.01 0.01 0.01 0.01 0.01 0.02 0.02 0.02 0.03 0.04 0.05 0.05 0.05 0.06 0.09 0.11 0.06 0.02 0.03 0.04
0.00 0.00 0.00 0.00 0.00 0.00 0.00 0.00 0.00 0.00 0.00 0.00 0.00 0.00 0.00 0.00 0.00 0.00 0.00 0.00 0.00 0.00 0.01 0.01 0.01 0.02 0.02 0.02 0.02 0.03 0.04 0.04 0.05 0.06 0.06 0.07 0.07 0.06 0.08 0.08 0.05 0.04 0.02
0.00 0.00 0.00 0.00 0.00 0.00 0.00 0.00 0.00 0.00 0.00 0.00 0.00 0.00 0.00 0.00 0.00 0.00 0.00 0.00 0.00 0.01 0.01 0.02 0.02 0.03 0.04 0.04 0.04 0.06 0.06 0.07 0.07 0.07 0.07 0.07 0.07 0.07 0.07 0.08 0.09 0.06 0.03
0.00 0.00 0.00 0.00 0.00 0.00 0.00 0.00 0.00 0.00 0.00 0.00 0.00 0.00 0.00 0.01 0.00 0.00 0.00 0.01 0.01 0.01 0.02 0.03 0.04 0.05 0.06 0.07 0.08 0.09 0.10 0.10 0.11 0.10 0.09 0.09 0.08 0.08 0.08 0.09 0.10 0.09 0.05
0.00 0.00 0.00 0.00 0.00 0.00 0.00 0.00 0.00 0.00 0.00 0.00 0.00 0.00 0.00 0.00 0.00 0.00 0.01 0.01 0.02 0.03 0.04 0.06 0.08 0.10 0.10 0.11 0.11 0.13 0.14 0.14 0.14 0.14 0.13 0.13 0.12 0.11 0.10 0.10 0.11 0.12 0.09
0.00 0.00 0.00 0.00 0.00 0.00 0.00 0.00 0.00 0.00 0.01 0.00 0.01 0.01 0.01 0.01 0.01 0.01 0.02 0.03 0.04 0.05 0.06 0.07 0.09 0.12 0.14 0.16 0.17 0.18 0.18 0.19 0.20 0.20 0.19 0.18 0.17 0.16 0.15 0.13 0.12 0.12 0.12
0.00 0.00 0.00 0.00 0.00 0.00 0.00 0.00 0.01 0.01 0.01 0.01 0.01 0.02 0.02 0.03 0.03 0.04 0.05 0.07 0.08 0.09 0.09 0.09 0.09 0.11 0.13 0.15 0.18 0.22 0.25 0.26 0.25 0.25 0.25 0.25 0.25 0.24 0.22 0.20 0.18 0.16 0.16
0.00 0.00 0.00 0.00 0.00 0.00 0.00 0.01 0.02 0.03 0.04 0.03 0.03 0.04 0.04 0.06 0.09 0.11 0.12 0.13 0.14 0.14 0.14 0.13 0.12 0.12 0.11 0.13 0.15 0.18 0.21 0.24 0.26 0.28 0.28 0.29 0.29 0.29 0.28 0.27 0.25 0.22 0.19
0.00 0.00 0.00 0.00 0.00 0.01 0.01 0.02 0.03 0.05 0.04 0.04 0.05 0.06 0.09 0.12 0.16 0.19 0.20 0.20 0.20 0.19 0.19 0.19 0.18 0.18 0.18 0.19 0.19 0.19 0.21 0.22 0.23 0.23 0.26 0.29 0.33 0.34 0.33 0.32 0.30 0.28 0.23
0.00 0.00 0.00 0.00 0.01 0.01 0.02 0.03 0.05 0.06 0.07 0.09 0.11 0.14 0.18 0.22 0.25 0.26 0.25 0.23 0.23 0.24 0.24 0.24 0.25 0.26 0.29 0.30 0.30 0.30 0.27 0.25 0.25 0.24 0.25 0.27 0.30 0.33 0.35 0.37 0.35 0.32 0.30
0.00 0.01 0.01 0.01 0.02 0.02 0.03 0.06 0.09 0.12 0.16 0.20 0.23 0.23 0.22 0.22 0.22 0.22 0.22 0.23 0.25 0.26 0.26 0.24 0.25 0.29 0.34 0.39 0.39 0.38 0.30 0.28 0.28 0.28 0.28 0.29 0.33 0.37 0.39 0.40 0.39 0.35 0.33
0.01 0.01 0.02 0.03 0.04 0.06 0.09 0.14 0.20 0.23 0.25 0.27 0.27 0.25 0.22 0.21 0.21 0.21 0.22 0.23 0.23 0.21 0.18 0.17 0.20 0.27 0.35 0.44 0.44 0.38 0.27 0.26 0.27 0.28 0.27 0.26 0.29 0.34 0.39 0.44 0.39 0.39 0.38
0.03 0.04 0.05 0.07 0.09 0.13 0.18 0.22 0.24 0.24 0.26 0.28 0.28 0.26 0.24 0.23 0.21 0.20 0.18 0.17 0.16 0.13 0.10 0.09 0.10 0.15 0.24 0.34 0.37 0.32 0.19 0.16 0.17 0.17 0.16 0.16 0.19 0.21 0.22 0.24 0.23 0.26 0.33
0.07 0.09 0.11 0.12 0.15 0.20 0.24 0.27 0.26 0.26 0.26 0.25 0.23 0.19 0.16 0.15 0.14 0.13 0.12 0.10 0.09 0.08 0.06 0.04 0.04 0.04 0.07 0.17 0.31 0.28 0.11 0.10 0.10 0.09 0.09 0.10 0.12 0.13 0.13 0.13 0.16 0.19 0.24
0.07 0.08 0.08 0.09 0.13 0.19 0.22 0.23 0.21 0.20 0.17 0.15 0.12 0.09 0.07 0.07 0.08 0.08 0.07 0.05 0.04 0.03 0.02 0.01 0.01 0.01 0.01 0.07 0.25 0.32 0.10 0.08 0.08 0.08 0.09 0.10 0.10 0.11 0.08 0.09 0.15 0.17 0.19
0.04 0.04 0.04 0.04 0.07 0.10 0.12 0.12 0.12 0.10 0.09 0.07 0.05 0.03 0.02 0.03 0.03 0.03 0.02 0.01 0.01 0.01 0.01 0.00 0.00 0.00 0.00 0.04 0.22 0.42 0.14 0.06 0.06 0.08 0.12 0.21 0.19 0.13 0.06 0.05 0.09 0.12 0.16
0.03 0.02 0.02 0.04 0.07 0.10 0.11 0.10 0.08 0.05 0.03 0.02 0.01 0.00 0.00 0.00 0.01 0.01 0.01 0.01 0.01 0.01 0.01 0.00 0.01 0.01 0.01 0.02 0.14 0.41 0.30 0.11 0.05 0.08 0.13 0.26 0.22 0.11 0.06 0.04 0.06 0.09 0.09
0.02 0.02 0.03 0.05 0.10 0.12 0.10 0.06 0.04 0.01 0.00 0.00 0.00 0.00 0.00 0.00 0.00 0.00 0.00 0.01 0.01 0.01 0.01 0.01 0.01 0.01 0.01 0.02 0.11 0.25 0.30 0.22 0.06 0.11 0.16 0.23 0.18 0.10 0.05 0.03 0.03 0.02 0.02
0.02 0.04 0.05 0.08 0.11 0.09 0.05 0.02 0.01 0.00 0.00 0.00 0.00 0.00 0.00 0.00 0.00 0.00 0.01 0.01 0.01 0.02 0.04 0.04 0.03 0.01 0.01 0.03 0.09 0.11 0.11 0.13 0.10 0.19 0.31 0.22 0.11 0.05 0.03 0.01 0.00 0.00 0.00
0.05 0.06 0.07 0.09 0.10 0.06 0.02 0.00 0.00 0.00 0.00 0.00 0.00 0.00 0.00 0.00 0.00 0.00 0.01 0.01 0.02 0.08 0.13 0.10 0.07 0.03 0.03 0.08 0.15 0.12 0.06 0.06 0.07 0.09 0.18 0.14 0.05 0.01 0.00 0.00 0.00 0.00 0.00
0.07 0.08 0.09 0.09 0.07 0.03 0.01 0.00 0.00 0.00 0.00 0.00 0.00 0.00 0.00 0.00 0.00 0.00 0.00 0.02 0.03 0.13 0.22 0.18 0.14 0.11 0.12 0.20 0.28 0.22 0.16 0.16 0.14 0.08 0.07 0.05 0.02 0.01 0.00 0.00 0.00 0.00 0.00
0.11 0.11 0.09 0.05 0.02 0.01 0.00 0.00 0.00 0.00 0.00 0.00 0.00 0.00 0.01 0.00 0.01 0.01 0.01 0.01 0.03 0.07 0.08 0.10 0.15 0.14 0.20 0.25 0.21 0.16 0.14 0.16 0.14 0.07 0.05 0.04 0.03 0.01 0.01 0.00 0.00 0.00 0.00

GEFSMW_prec_meanprecacc_048.txt.gz
Total_Precipitation_Accumulation
0.00 0.00 0.00 0.00 0.00 0.00 0.00 0.00 0.00 0.00 0.00 0.00 0.00 0.00 0.00 0.00 0.00 0.00 0.00 0.00 0.00 0.00 0.00 0.00 0.01 0.02 0.04 0.07 0.10 0.11 0.11 0.12 0.17 0.21 0.20 0.20 0.23 0.27 0.26 0.25 0.27 0.31 0.34
0.00 0.00 0.00 0.00 0.00 0.00 0.00 0.00 0.00 0.00 0.00 0.00 0.00 0.00 0.00 0.00 0.00 0.00 0.00 0.00 0.00 0.00 0.00 0.00 0.00 0.00 0.01 0.01 0.01 0.03 0.05 0.05 0.07 0.15 0.18 0.15 0.15 0.16 0.17 0.18 0.22 0.28 0.34
0.00 0.00 0.00 0.00 0.00 0.00 0.00 0.00 0.00 0.00 0.00 0.00 0.00 0.00 0.00 0.00 0.00 0.00 0.00 0.00 0.00 0.00 0.00 0.00 0.00 0.00 0.01 0.01 0.01 0.01 0.03 0.04 0.04 0.08 0.18 0.20 0.14 0.13 0.12 0.14 0.16 0.19 0.21
0.00 0.00 0.00 0.00 0.00 0.00 0.00 0.00 0.00 0.00 0.00 0.00 0.00 0.00 0.00 0.00 0.00 0.00 0.00 0.00 0.00 0.00 0.00 0.00 0.00 0.01 0.01 0.01 0.01 0.01 0.02 0.04 0.05 0.05 0.09 0.13 0.14 0.15 0.10 0.06 0.06 0.08 0.09
0.00 0.00 0.00 0.00 0.00 0.00 0.00 0.00 0.00 0.00 0.00 0.00 0.00 0.00 0.00 0.00 0.00 0.00 0.00 0.00 0.00 0.00 0.00 0.01 0.01 0.01 0.01 0.01 0.02 0.02 0.02 0.04 0.05 0.07 0.07 0.06 0.07 0.11 0.16 0.07 0.02 0.03 0.04
0.00 0.00 0.00 0.00 0.00 0.00 0.00 0.00 0.00 0.00 0.00 0.00 0.00 0.00 0.00 0.00 0.00 0.00 0.00 0.00 0.00 0.00 0.01 0.01 0.01 0.02 0.02 0.02 0.02 0.03 0.04 0.04 0.05 0.07 0.08 0.10 0.11 0.10 0.13 0.12 0.06 0.04 0.03
0.00 0.00 0.00 0.00 0.00 0.00 0.00 0.00 0.00 0.00 0.00 0.00 0.00 0.00 0.00 0.00 0.00 0.00 0.00 0.00 0.00 0.01 0.01 0.02 0.02 0.03 0.04 0.04 0.04 0.06 0.06 0.07 0.08 0.08 0.08 0.09 0.10 0.10 0.12 0.13 0.11 0.08 0.04
0.00 0.00 0.00 0.00 0.00 0.00 0.00 0.00 0.00 0.00 0.00 0.00 0.00 0.00 0.00 0.01 0.00 0.00 0.00 0.01 0.01 0.01 0.02 0.03 0.04 0.05 0.06 0.07 0.08 0.09 0.10 0.11 0.11 0.11 0.10 0.11 0.10 0.10 0.12 0.15 0.16 0.13 0.07
0.00 0.00 0.00 0.00 0.00 0.00 0.00 0.00 0.00 0.00 0.00 0.00 0.00 0.00 0.00 0.00 0.00 0.00 0.01 0.01 0.02 0.03 0.04 0.06 0.08 0.10 0.10 0.11 0.11 0.13 0.14 0.15 0.15 0.14 0.14 0.15 0.13 0.12 0.12 0.13 0.17 0.20 0.15
0.00 0.00 0.00 0.00 0.00 0.00 0.00 0.00 0.00 0.00 0.01 0.00 0.01 0.01 0.01 0.01 0.01 0.01 0.02 0.03 0.04 0.05 0.06 0.07 0.09 0.12 0.14 0.16 0.17 0.18 0.18 0.20 0.20 0.21 0.21 0.20 0.19 0.18 0.16 0.15 0.15 0.17 0.19
0.00 0.00 0.00 0.00 0.00 0.00 0.00 0.00 0.01 0.01 0.01 0.01 0.01 0.02 0.02 0.03 0.03 0.04 0.05 0.07 0.08 0.09 0.09 0.09 0.09 0.11 0.13 0.15 0.18 0.22 0.25 0.26 0.26 0.26 0.27 0.27 0.26 0.25 0.23 0.21 0.19 0.18 0.21
0.00 0.00 0.00 0.00 0.00 0.00 0.00 0.01 0.02 0.03 0.04 0.03 0.03 0.04 0.04 0.06 0.09 0.11 0.12 0.13 0.14 0.14 0.14 0.13 0.12 0.12 0.11 0.13 0.15 0.18 0.21 0.25 0.28 0.30 0.32 0.32 0.31 0.30 0.30 0.29 0.27 0.24 0.22
0.00 0.00 0.00 0.00 0.00 0.01 0.01 0.02 0.03 0.05 0.04 0.04 0.05 0.06 0.09 0.12 0.16 0.19 0.20 0.20 0.20 0.19 0.19 0.19 0.18 0.18 0.18 0.19 0.19 0.19 0.21 0.23 0.25 0.26 0.29 0.31 0.35 0.36 0.35 0.34 0.33 0.30 0.24
0.00 0.00 0.00 0.00 0.01 0.01 0.02 0.03 0.05 0.06 0.07 0.09 0.11 0.14 0.18 0.22 0.25 0.26 0.25 0.23 0.23 0.24 0.24 0.24 0.25 0.26 0.29 0.31 0.30 0.31 0.29 0.27 0.27 0.25 0.27 0.29 0.33 0.36 0.39 0.42 0.40 0.35 0.31
0.00 0.01 0.01 0.01 0.02 0.02 0.03 0.06 0.09 0.12 0.16 0.20 0.23 0.23 0.22 0.22 0.22 0.22 0.22 0.23 0.25 0.26 0.26 0.24 0.25 0.29 0.35 0.40 0.43 0.45 0.36 0.31 0.30 0.29 0.30 0.31 0.37 0.43 0.45 0.50 0.49 0.42 0.36
0.01 0.01 0.02 0.03 0.04 0.06 0.09 0.14 0.20 0.23 0.25 0.27 0.27 0.25 0.22 0.21 0.21 0.22 0.22 0.23 0.23 0.21 0.18 0.17 0.20 0.27 0.36 0.50 0.57 0.53 0.37 0.30 0.29 0.31 0.28 0.28 0.31 0.36 0.43 0.51 0.47 0.45 0.43
0.03 0.04 0.05 0.07 0.09 0.13 0.18 0.22 0.24 0.24 0.26 0.28 0.28 0.26 0.24 0.23 0.21 0.20 0.18 0.17 0.16 0.13 0.10 0.09 0.10 0.16 0.26 0.44 0.54 0.48 0.29 0.21 0.22 0.21 0.18 0.18 0.21 0.23 0.22 0.26 0.26 0.28 0.36
0.07 0.09 0.11 0.12 0.15 0.20 0.24 0.27 0.26 0.26 0.26 0.25 0.23 0.19 0.16 0.15 0.14 0.13 0.12 0.10 0.09 0.08 0.06 0.04 0.04 0.04 0.09 0.28 0.49 0.41 0.19 0.16 0.16 0.13 0.13 0.16 0.18 0.18 0.16 0.15 0.17 0.20 0.26
0.07 0.08 0.08 0.09 0.13 0.19 0.22 0.23 0.21 0.20 0.17 0.15 0.12 0.09 0.07 0.07 0.08 0.08 0.07 0.05 0.04 0.03 0.02 0.02 0.01 0.01 0.02 0.16 0.45 0.45 0.14 0.12 0.13 0.14 0.19 0.23 0.21 0.19 0.11 0.10 0.15 0.18 0.21
0.04 0.04 0.04 0.04 0.07 0.10 0.12 0.12 0.12 0.10 0.09 0.07 0.05 0.03 0.02 0.03 0.03 0.03 0.02 0.01 0.01 0.01 0.01 0.00 0.01 0.01 0.01 0.10 0.38 0.56 0.18 0.08 0.08 0.12 0.20 0.37 0.32 0.19 0.07 0.05 0.09 0.13 0.17
0.03 0.02 0.02 0.04 0.07 0.10 0.11 0.10 0.08 0.05 0.03 0.02 0.01 0.00 0.00 0.00 0.01 0.01 0.01 0.01 0.01 0.01 0.01 0.01 0.01 0.01 0.01 0.04 0.23 0.54 0.35 0.13 0.07 0.12 0.23 0.40 0.31 0.16 0.08 0.04 0.06 0.11 0.10
0.02 0.02 0.03 0.05 0.10 0.12 0.10 0.06 0.04 0.01 0.00 0.00 0.00 0.00 0.00 0.00 0.00 0.00 0.00 0.01 0.01 0.01 0.01 0.01 0.01 0.01 0.01 0.03 0.13 0.30 0.36 0.25 0.08 0.16 0.21 0.29 0.21 0.12 0.06 0.03 0.03 0.03 0.02
0.02 0.04 0.05 0.08 0.11 0.09 0.05 0.02 0.01 0.00 0.00 0.00 0.00 0.00 0.00 0.00 0.00 0.00 0.01 0.01 0.01 0.03 0.04 0.04 0.03 0.02 0.01 0.03 0.10 0.12 0.13 0.15 0.10 0.21 0.33 0.23 0.11 0.06 0.03 0.01 0.00 0.00 0.00
0.05 0.06 0.07 0.09 0.10 0.06 0.02 0.00 0.00 0.00 0.00 0.00 0.00 0.00 0.00 0.00 0.00 0.00 0.01 0.01 0.03 0.10 0.15 0.11 0.08 0.04 0.03 0.09 0.16 0.12 0.06 0.07 0.07 0.09 0.18 0.15 0.05 0.01 0.00 0.00 0.00 0.00 0.00
0.07 0.08 0.09 0.09 0.07 0.03 0.01 0.00 0.00 0.00 0.00 0.00 0.00 0.00 0.00 0.00 0.00 0.00 0.00 0.02 0.04 0.15 0.24 0.19 0.16 0.12 0.13 0.23 0.31 0.23 0.17 0.17 0.14 0.08 0.07 0.05 0.02 0.01 0.00 0.00 0.00 0.00 0.00
0.11 0.11 0.09 0.05 0.02 0.01 0.00 0.00 0.00 0.00 0.00 0.00 0.00 0.00 0.01 0.00 0.01 0.01 0.01 0.01 0.03 0.07 0.09 0.11 0.17 0.16 0.22 0.27 0.22 0.16 0.15 0.16 0.14 0.07 0.05 0.04 0.03 0.01 0.01 0.00 0.00 0.00 0.00

GEFSMW_prec_meanprecacc_054.txt.gz
Total_Precipitation_Accumulation
0.00 0.00 0.00 0.00 0.00 0.00 0.00 0.00 0.00 0.00 0.00 0.00 0.00 0.00 0.00 0.00 0.00 0.00 0.00 0.00 0.00 0.00 0.00 0.00 0.01 0.02 0.04 0.07 0.10 0.11 0.11 0.12 0.17 0.21 0.20 0.20 0.23 0.27 0.26 0.25 0.28 0.32 0.35
0.00 0.00 0.00 0.00 0.00 0.00 0.00 0.00 0.00 0.00 0.00 0.00 0.00 0.00 0.00 0.00 0.00 0.00 0.00 0.00 0.00 0.00 0.00 0.00 0.00 0.00 0.01 0.01 0.01 0.03 0.05 0.05 0.07 0.15 0.19 0.16 0.15 0.16 0.17 0.18 0.22 0.28 0.35
0.00 0.00 0.00 0.00 0.00 0.00 0.00 0.00 0.00 0.00 0.00 0.00 0.00 0.00 0.00 0.00 0.00 0.00 0.00 0.00 0.00 0.00 0.00 0.00 0.00 0.00 0.01 0.01 0.01 0.01 0.03 0.04 0.04 0.08 0.21 0.26 0.18 0.13 0.12 0.14 0.16 0.19 0.21
0.00 0.00 0.00 0.00 0.00 0.00 0.00 0.00 0.00 0.00 0.00 0.00 0.00 0.00 0.00 0.00 0.00 0.00 0.00 0.00 0.00 0.00 0.00 0.00 0.00 0.01 0.01 0.01 0.01 0.01 0.02 0.04 0.05 0.05 0.09 0.17 0.19 0.20 0.13 0.06 0.06 0.08 0.10
0.00 0.00 0.00 0.00 0.00 0.00 0.00 0.00 0.00 0.00 0.00 0.00 0.00 0.00 0.00 0.00 0.00 0.00 0.00 0.00 0.00 0.00 0.00 0.01 0.01 0.01 0.01 0.01 0.02 0.02 0.02 0.04 0.05 0.07 0.08 0.07 0.08 0.14 0.21 0.09 0.02 0.03 0.04
0.00 0.00 0.00 0.00 0.00 0.00 0.00 0.00 0.00 0.00 0.00 0.00 0.00 0.00 0.00 0.00 0.00 0.00 0.00 0.00 0.00 0.00 0.01 0.01 0.01 0.02 0.02 0.02 0.02 0.03 0.04 0.04 0.05 0.07 0.09 0.11 0.13 0.13 0.18 0.16 0.07 0.04 0.03
0.00 0.00 0.00 0.00 0.00 0.00 0.00 0.00 0.00 0.00 0.00 0.00 0.00 0.00 0.00 0.00 0.00 0.00 0.00 0.00 0.00 0.01 0.01 0.02 0.02 0.03 0.04 0.04 0.04 0.06 0.06 0.07 0.08 0.08 0.09 0.10 0.12 0.14 0.16 0.18 0.13 0.08 0.05
0.00 0.00 0.00 0.00 0.00 0.00 0.00 0.00 0.00 0.00 0.00 0.00 0.00 0.00 0.00 0.01 0.00 0.00 0.00 0.01 0.01 0.01 0.02 0.03 0.04 0.05 0.06 0.07 0.08 0.09 0.10 0.11 0.11 0.11 0.11 0.11 0.11 0.13 0.16 0.20 0.21 0.16 0.07
0.00 0.00 0.00 0.00 0.00 0.00 0.00 0.00 0.00 0.00 0.00 0.00 0.00 0.00 0.00 0.00 0.00 0.00 0.01 0.01 0.02 0.03 0.04 0.06 0.08 0.10 0.10 0.11 0.11 0.13 0.14 0.15 0.15 0.15 0.15 0.15 0.15 0.14 0.14 0.16 0.21 0.26 0.19
0.00 0.00 0.00 0.00 0.00 0.00 0.00 0.00 0.00 0.00 0.01 0.00 0.01 0.01 0.01 0.01 0.01 0.01 0.02 0.03 0.04 0.05 0.06 0.07 0.09 0.12 0.14 0.16 0.17 0.18 0.18 0.20 0.21 0.21 0.21 0.21 0.21 0.20 0.18 0.17 0.17 0.21 0.24
0.00 0.00 0.00 0.00 0.00 0.00 0.00 0.00 0.01 0.01 0.01 0.01 0.01 0.02 0.02 0.03 0.03 0.04 0.05 0.07 0.08 0.09 0.09 0.09 0.10 0.11 0.13 0.15 0.19 0.22 0.25 0.26 0.26 0.27 0.28 0.29 0.28 0.27 0.25 0.23 0.21 0.20 0.24
0.00 0.00 0.00 0.00 0.00 0.00 0.00 0.01 0.02 0.03 0.04 0.03 0.03 0.04 0.04 0.06 0.09 0.11 0.12 0.13 0.14 0.14 0.14 0.13 0.13 0.12 0.13 0.14 0.16 0.19 0.22 0.26 0.29 0.31 0.33 0.33 0.33 0.33 0.32 0.31 0.28 0.25 0.24
0.00 0.00 0.00 0.00 0.00 0.01 0.01 0.02 0.03 0.05 0.04 0.04 0.05 0.06 0.09 0.12 0.16 0.19 0.20 0.20 0.20 0.19 0.19 0.19 0.19 0.20 0.21 0.23 0.22 0.22 0.23 0.25 0.27 0.28 0.31 0.34 0.38 0.39 0.37 0.37 0.36 0.32 0.27
0.00 0.00 0.00 0.00 0.01 0.01 0.02 0.03 0.05 0.06 0.07 0.09 0.11 0.14 0.18 0.22 0.25 0.26 0.25 0.23 0.23 0.24 0.24 0.24 0.25 0.29 0.35 0.40 0.40 0.36 0.34 0.31 0.30 0.29 0.30 0.33 0.37 0.41 0.45 0.49 0.45 0.38 0.34
0.00 0.01 0.01 0.01 0.02 0.02 0.03 0.06 0.09 0.12 0.16 0.20 0.23 0.23 0.22 0.22 0.22 0.22 0.22 0.23 0.25 0.26 0.26 0.24 0.25 0.31 0.42 0.59 0.62 0.56 0.45 0.37 0.35 0.33 0.33 0.35 0.42 0.51 0.60 0.62 0.56 0.47 0.40
0.01 0.01 0.02 0.03 0.04 0.06 0.09 0.14 0.20 0.23 0.25 0.27 0.27 0.25 0.22 0.21 0.21 0.22 0.22 0.23 0.23 0.21 0.18 0.17 0.21 0.29 0.43 0.71 0.75 0.62 0.43 0.37 0.36 0.36 0.33 0.32 0.35 0.40 0.47 0.57 0.54 0.51 0.47
0.03 0.04 0.05 0.07 0.09 0.13 0.18 0.22 0.24 0.24 0.26 0.28 0.28 0.26 0.24 0.23 0.21 0.20 0.18 0.17 0.16 0.13 0.10 0.09 0.11 0.17 0.32 0.61 0.67 0.54 0.35 0.28 0.30 0.29 0.24 0.23 0.24 0.25 0.23 0.28 0.27 0.29 0.38
0.07 0.09 0.11 0.12 0.15 0.20 0.24 0.27 0.26 0.26 0.26 0.25 0.23 0.19 0.16 0.15 0.14 0.13 0.12 0.10 0.09 0.08 0.06 0.04 0.04 0.06 0.13 0.41 0.60 0.44 0.21 0.20 0.22 0.21 0.22 0.23 0.22 0.21 0.17 0.16 0.18 0.20 0.27
0.07 0.08 0.08 0.09 0.13 0.19 0.22 0.23 0.21 0.20 0.17 0.15 0.12 0.09 0.07 0.07 0.08 0.08 0.07 0.05 0.04 0.03 0.02 0.02 0.01 0.02 0.05 0.24 0.54 0.47 0.15 0.14 0.15 0.19 0.28 0.30 0.25 0.21 0.11 0.10 0.16 0.18 0.22
0.04 0.04 0.04 0.04 0.07 0.10 0.12 0.12 0.12 0.10 0.09 0.07 0.05 0.03 0.02 0.03 0.03 0.03 0.02 0.01 0.01 0.01 0.01 0.00 0.01 0.01 0.02 0.14 0.45 0.58 0.18 0.10 0.11 0.16 0.28 0.44 0.35 0.22 0.08 0.06 0.10 0.14 0.17
0.03 0.02 0.02 0.04 0.07 0.10 0.11 0.10 0.08 0.05 0.03 0.02 0.01 0.00 0.00 0.00 0.01 0.01 0.01 0.01 0.01 0.01 0.01 0.01 0.01 0.01 0.01 0.05 0.27 0.57 0.36 0.14 0.09 0.16 0.28 0.44 0.33 0.16 0.08 0.05 0.07 0.11 0.10
0.02 0.02 0.03 0.05 0.10 0.12 0.10 0.06 0.04 0.01 0.00 0.00 0.00 0.00 0.00 0.00 0.00 0.00 0.00 0.01 0.01 0.01 0.01 0.01 0.01 0.01 0.01 0.03 0.15 0.32 0.37 0.25 0.09 0.16 0.22 0.29 0.21 0.12 0.06 0.03 0.04 0.03 0.02
0.02 0.04 0.05 0.08 0.11 0.09 0.05 0.02 0.01 0.00 0.00 0.00 0.00 0.00 0.00 0.00 0.00 0.00 0.01 0.01 0.01 0.03 0.05 0.04 0.03 0.02 0.01 0.04 0.11 0.13 0.13 0.15 0.10 0.21 0.33 0.23 0.11 0.06 0.03 0.01 0.00 0.00 0.00
0.05 0.06 0.07 0.09 0.10 0.06 0.02 0.00 0.00 0.00 0.00 0.00 0.00 0.00 0.00 0.00 0.00 0.00 0.01 0.01 0.03 0.11 0.16 0.12 0.08 0.04 0.03 0.10 0.17 0.13 0.06 0.07 0.07 0.09 0.18 0.15 0.05 0.01 0.00 0.00 0.00 0.00 0.00
0.07 0.08 0.09 0.09 0.07 0.03 0.01 0.00 0.00 0.00 0.00 0.00 0.00 0.00 0.00 0.00 0.00 0.00 0.01 0.02 0.04 0.17 0.28 0.22 0.18 0.14 0.15 0.26 0.34 0.26 0.18 0.18 0.14 0.09 0.07 0.05 0.02 0.01 0.00 0.00 0.00 0.00 0.00
0.11 0.11 0.09 0.05 0.02 0.01 0.00 0.00 0.00 0.00 0.00 0.00 0.00 0.01 0.01 0.01 0.01 0.01 0.01 0.01 0.03 0.08 0.10 0.13 0.19 0.17 0.25 0.31 0.25 0.18 0.16 0.17 0.14 0.07 0.05 0.04 0.03 0.01 0.01 0.00 0.00 0.00 0.00

GEFSMW_prec_meanprecacc_060.txt.gz
Total_Precipitation_Accumulation
0.00 0.00 0.00 0.00 0.00 0.00 0.00 0.00 0.00 0.00 0.00 0.00 0.00 0.00 0.00 0.00 0.00 0.00 0.00 0.00 0.00 0.00 0.00 0.00 0.01 0.02 0.04 0.07 0.10 0.11 0.11 0.12 0.17 0.21 0.20 0.20 0.23 0.27 0.26 0.25 0.28 0.32 0.35
0.00 0.00 0.00 0.00 0.00 0.00 0.00 0.00 0.00 0.00 0.00 0.00 0.00 0.00 0.00 0.00 0.00 0.00 0.00 0.00 0.00 0.00 0.00 0.00 0.00 0.00 0.01 0.01 0.01 0.03 0.05 0.05 0.07 0.15 0.19 0.16 0.15 0.16 0.17 0.18 0.22 0.28 0.35
0.00 0.00 0.00 0.00 0.00 0.00 0.00 0.00 0.00 0.00 0.00 0.00 0.00 0.00 0.00 0.00 0.00 0.00 0.00 0.00 0.00 0.00 0.00 0.00 0.00 0.00 0.01 0.01 0.01 0.01 0.03 0.04 0.04 0.08 0.21 0.27 0.19 0.14 0.12 0.14 0.16 0.19 0.21
0.00 0.00 0.00 0.00 0.00 0.00 0.00 0.00 0.00 0.00 0.00 0.00 0.00 0.00 0.00 0.00 0.00 0.00 0.00 0.00 0.00 0.00 0.00 0.00 0.00 0.01 0.01 0.01 0.01 0.01 0.02 0.04 0.05 0.05 0.10 0.18 0.20 0.23 0.14 0.06 0.06 0.08 0.10
0.00 0.00 0.00 0.00 0.00 0.00 0.00 0.00 0.00 0.00 0.00 0.00 0.00 0.00 0.00 0.00 0.00 0.00 0.00 0.00 0.00 0.00 0.00 0.01 0.01 0.01 0.01 0.01 0.02 0.02 0.03 0.04 0.06 0.07 0.08 0.07 0.09 0.16 0.24 0.11 0.03 0.03 0.04
0.00 0.00 0.00 0.00 0.00 0.00 0.00 0.00 0.00 0.00 0.00 0.00 0.00 0.00 0.00 0.00 0.00 0.00 0.00 0.00 0.00 0.00 0.01 0.01 0.01 0.02 0.02 0.02 0.03 0.04 0.04 0.04 0.06 0.07 0.09 0.12 0.14 0.14 0.20 0.18 0.08 0.05 0.03
0.00 0.00 0.00 0.00 0.00 0.00 0.00 0.00 0.00 0.00 0.00 0.00 0.00 0.00 0.00 0.00 0.00 0.00 0.00 0.00 0.00 0.01 0.01 0.02 0.02 0.03 0.04 0.04 0.05 0.06 0.07 0.07 0.08 0.09 0.09 0.10 0.12 0.15 0.18 0.21 0.15 0.09 0.05
0.00 0.00 0.00 0.00 0.00 0.00 0.00 0.00 0.00 0.00 0.00 0.00 0.00 0.00 0.00 0.01 0.00 0.00 0.00 0.01 0.01 0.01 0.02 0.03 0.04 0.05 0.06 0.07 0.09 0.10 0.10 0.11 0.12 0.11 0.11 0.12 0.12 0.13 0.18 0.23 0.26 0.19 0.08
0.00 0.00 0.00 0.00 0.00 0.00 0.00 0.00 0.00 0.00 0.00 0.00 0.00 0.00 0.00 0.00 0.00 0.00 0.01 0.01 0.02 0.03 0.04 0.06 0.08 0.10 0.11 0.12 0.12 0.14 0.15 0.16 0.16 0.16 0.15 0.16 0.15 0.15 0.16 0.19 0.26 0.32 0.23
0.00 0.00 0.00 0.00 0.00 0.00 0.00 0.00 0.00 0.00 0.01 0.00 0.01 0.01 0.01 0.01 0.01 0.01 0.02 0.03 0.04 0.05 0.06 0.07 0.09 0.13 0.15 0.17 0.18 0.19 0.20 0.22 0.23 0.23 0.23 0.22 0.22 0.21 0.20 0.19 0.20 0.25 0.29
0.00 0.00 0.00 0.00 0.00 0.00 0.00 0.00 0.01 0.01 0.01 0.01 0.01 0.02 0.02 0.03 0.03 0.04 0.05 0.07 0.08 0.09 0.09 0.09 0.10 0.11 0.14 0.17 0.20 0.24 0.28 0.30 0.30 0.30 0.31 0.31 0.31 0.30 0.28 0.26 0.24 0.24 0.29
0.00 0.00 0.00 0.00 0.00 0.00 0.00 0.01 0.02 0.03 0.04 0.03 0.03 0.04 0.04 0.06 0.09 0.11 0.12 0.13 0.14 0.14 0.14 0.13 0.13 0.13 0.14 0.16 0.18 0.21 0.25 0.31 0.34 0.35 0.38 0.38 0.36 0.37 0.35 0.35 0.32 0.28 0.27
0.00 0.00 0.00 0.00 0.00 0.01 0.01 0.02 0.03 0.05 0.04 0.04 0.05 0.06 0.09 0.12 0.16 0.19 0.20 0.20 0.20 0.19 0.19 0.19 0.19 0.20 0.23 0.26 0.26 0.25 0.26 0.30 0.32 0.33 0.37 0.41 0.45 0.46 0.43 0.42 0.40 0.35 0.29
0.00 0.00 0.00 0.00 0.01 0.01 0.02 0.03 0.05 0.06 0.07 0.09 0.11 0.14 0.18 0.22 0.25 0.26 0.25 0.23 0.23 0.24 0.24 0.24 0.26 0.29 0.37 0.49 0.50 0.40 0.37 0.34 0.34 0.34 0.36 0.40 0.46 0.52 0.57 0.58 0.50 0.42 0.38
0.00 0.01 0.01 0.01 0.02 0.02 0.03 0.06 0.09 0.12 0.16 0.20 0.23 0.23 0.22 0.22 0.22 0.22 0.22 0.23 0.25 0.26 0.26 0.24 0.26 0.32 0.45 0.74 0.75 0.59 0.46 0.40 0.38 0.36 0.37 0.40 0.49 0.61 0.70 0.71 0.64 0.52 0.44
0.01 0.01 0.02 0.03 0.04 0.06 0.09 0.14 0.20 0.23 0.25 0.27 0.27 0.25 0.22 0.21 0.21 0.22 0.22 0.23 0.23 0.21 0.18 0.17 0.21 0.30 0.46 0.82 0.85 0.65 0.45 0.39 0.39 0.39 0.36 0.35 0.38 0.43 0.50 0.60 0.58 0.55 0.50
0.03 0.04 0.05 0.07 0.09 0.13 0.18 0.22 0.24 0.24 0.26 0.28 0.28 0.26 0.24 0.23 0.21 0.20 0.18 0.17 0.16 0.13 0.10 0.09 0.11 0.17 0.34 0.69 0.74 0.57 0.36 0.29 0.32 0.31 0.26 0.25 0.26 0.26 0.24 0.28 0.27 0.30 0.39
0.07 0.09 0.11 0.12 0.15 0.20 0.24 0.27 0.26 0.26 0.26 0.25 0.23 0.19 0.16 0.15 0.14 0.13 0.12 0.10 0.09 0.08 0.06 0.04 0.04 0.06 0.14 0.46 0.66 0.47 0.22 0.21 0.24 0.24 0.24 0.25 0.24 0.23 0.18 0.16 0.18 0.20 0.27
0.07 0.08 0.08 0.09 0.13 0.19 0.22 0.23 0.21 0.20 0.17 0.15 0.12 0.09 0.07 0.07 0.08 0.08 0.07 0.05 0.04 0.03 0.02 0.02 0.01 0.02 0.06 0.27 0.59 0.50 0.16 0.14 0.16 0.21 0.30 0.31 0.27 0.23 0.12 0.11 0.16 0.18 0.22
0.04 0.04 0.04 0.04 0.07 0.10 0.12 0.12 0.12 0.10 0.09 0.07 0.05 0.03 0.02 0.03 0.03 0.03 0.02 0.01 0.01 0.01 0.01 0.00 0.01 0.01 0.02 0.15 0.48 0.62 0.19 0.10 0.11 0.17 0.29 0.45 0.36 0.23 0.08 0.06 0.10 0.14 0.18
0.03 0.02 0.02 0.04 0.07 0.10 0.11 0.10 0.08 0.05 0.03 0.02 0.01 0.00 0.00 0.00 0.01 0.01 0.01 0.01 0.01 0.01 0.01 0.01 0.01 0.01 0.01 0.05 0.28 0.61 0.39 0.16 0.10 0.16 0.29 0.44 0.33 0.17 0.08 0.05 0.07 0.12 0.11
0.02 0.02 0.03 0.05 0.10 0.12 0.10 0.06 0.04 0.01 0.00 0.00 0.00 0.00 0.00 0.00 0.00 0.00 0.00 0.01 0.01 0.01 0.01 0.01 0.01 0.01 0.01 0.04 0.16 0.35 0.41 0.28 0.10 0.17 0.22 0.29 0.21 0.12 0.06 0.03 0.04 0.03 0.03
0.02 0.04 0.05 0.08 0.11 0.09 0.05 0.02 0.01 0.00 0.00 0.00 0.00 0.00 0.00 0.00 0.00 0.00 0.01 0.01 0.01 0.03 0.05 0.05 0.04 0.02 0.02 0.04 0.13 0.16 0.15 0.17 0.11 0.22 0.34 0.23 0.12 0.06 0.03 0.01 0.00 0.00 0.00
0.05 0.06 0.07 0.09 0.10 0.06 0.02 0.00 0.00 0.00 0.00 0.00 0.00 0.00 0.00 0.00 0.00 0.00 0.01 0.01 0.03 0.12 0.18 0.14 0.09 0.04 0.04 0.12 0.25 0.21 0.09 0.08 0.08 0.10 0.18 0.15 0.05 0.01 0.00 0.00 0.00 0.00 0.00
0.07 0.08 0.09 0.09 0.07 0.03 0.01 0.00 0.00 0.00 0.00 0.00 0.00 0.00 0.00 0.00 0.00 0.00 0.01 0.02 0.04 0.18 0.31 0.24 0.22 0.17 0.18 0.32 0.45 0.35 0.24 0.22 0.18 0.10 0.07 0.05 0.03 0.01 0.01 0.00 0.00 0.00 0.00
0.11 0.11 0.09 0.05 0.02 0.01 0.00 0.00 0.00 0.00 0.00 0.01 0.00 0.01 0.01 0.01 0.01 0.01 0.01 0.01 0.03 0.08 0.10 0.13 0.21 0.20 0.29 0.37 0.30 0.23 0.20 0.20 0.17 0.08 0.06 0.05 0.03 0.02 0.01 0.00 0.00 0.00 0.00

GEFSMW_prec_meanprecacc_066.txt.gz
Total_Precipitation_Accumulation
0.00 0.00 0.00 0.00 0.00 0.00 0.00 0.00 0.00 0.00 0.00 0.00 0.00 0.00 0.00 0.00 0.00 0.00 0.00 0.00 0.00 0.00 0.00 0.00 0.01 0.02 0.04 0.07 0.10 0.11 0.11 0.12 0.17 0.21 0.20 0.20 0.23 0.27 0.26 0.25 0.28 0.32 0.35
0.00 0.00 0.00 0.00 0.00 0.00 0.00 0.00 0.00 0.00 0.00 0.00 0.00 0.00 0.00 0.00 0.00 0.00 0.00 0.00 0.00 0.00 0.00 0.00 0.00 0.00 0.01 0.01 0.02 0.03 0.05 0.05 0.08 0.15 0.19 0.16 0.15 0.16 0.17 0.18 0.22 0.28 0.35
0.00 0.00 0.00 0.00 0.00 0.00 0.00 0.00 0.00 0.00 0.00 0.00 0.00 0.00 0.00 0.00 0.00 0.00 0.00 0.00 0.00 0.00 0.00 0.00 0.00 0.00 0.01 0.01 0.01 0.02 0.03 0.04 0.04 0.08 0.22 0.28 0.20 0.14 0.12 0.14 0.16 0.19 0.21
0.00 0.00 0.00 0.00 0.00 0.00 0.00 0.00 0.00 0.00 0.00 0.00 0.00 0.00 0.00 0.00 0.00 0.00 0.00 0.00 0.00 0.00 0.00 0.00 0.00 0.01 0.01 0.01 0.01 0.02 0.03 0.05 0.05 0.05 0.10 0.19 0.22 0.24 0.15 0.06 0.06 0.08 0.10
0.00 0.00 0.00 0.00 0.00 0.00 0.00 0.00 0.00 0.00 0.00 0.00 0.00 0.00 0.00 0.00 0.00 0.00 0.00 0.00 0.00 0.00 0.00 0.01 0.01 0.01 0.01 0.01 0.02 0.02 0.03 0.05 0.07 0.09 0.09 0.08 0.09 0.17 0.26 0.12 0.03 0.03 0.04
0.00 0.00 0.00 0.00 0.00 0.00 0.00 0.00 0.00 0.00 0.00 0.00 0.00 0.00 0.00 0.00 0.00 0.00 0.00 0.00 0.00 0.00 0.01 0.01 0.01 0.02 0.02 0.02 0.03 0.04 0.05 0.06 0.07 0.09 0.11 0.14 0.16 0.15 0.22 0.20 0.08 0.05 0.03
0.00 0.00 0.00 0.00 0.00 0.00 0.00 0.00 0.00 0.00 0.00 0.00 0.00 0.00 0.00 0.00 0.00 0.00 0.00 0.00 0.00 0.01 0.01 0.02 0.02 0.03 0.04 0.04 0.05 0.07 0.08 0.09 0.10 0.11 0.12 0.13 0.14 0.17 0.21 0.23 0.17 0.10 0.05
0.00 0.00 0.00 0.00 0.00 0.00 0.00 0.00 0.00 0.00 0.00 0.00 0.00 0.00 0.00 0.01 0.00 0.00 0.00 0.01 0.01 0.01 0.02 0.03 0.04 0.05 0.06 0.07 0.09 0.11 0.12 0.13 0.14 0.14 0.15 0.16 0.14 0.16 0.20 0.26 0.29 0.22 0.09
0.00 0.00 0.00 0.00 0.00 0.00 0.00 0.00 0.00 0.00 0.00 0.00 0.00 0.00 0.00 0.00 0.00 0.00 0.01 0.01 0.02 0.03 0.04 0.06 0.08 0.10 0.11 0.12 0.13 0.15 0.16 0.18 0.20 0.20 0.20 0.21 0.19 0.18 0.19 0.22 0.30 0.38 0.27
0.00 0.00 0.00 0.00 0.00 0.00 0.00 0.00 0.00 0.00 0.01 0.00 0.01 0.01 0.01 0.01 0.01 0.01 0.02 0.03 0.04 0.05 0.06 0.07 0.10 0.13 0.15 0.17 0.19 0.20 0.22 0.25 0.27 0.28 0.28 0.27 0.26 0.26 0.24 0.23 0.24 0.30 0.37
0.00 0.00 0.00 0.00 0.00 0.00 0.00 0.00 0.01 0.01 0.01 0.01 0.01 0.02 0.02 0.03 0.03 0.04 0.05 0.07 0.08 0.09 0.09 0.09 0.10 0.11 0.14 0.17 0.21 0.25 0.29 0.33 0.33 0.34 0.36 0.36 0.36 0.35 0.33 0.31 0.29 0.29 0.35
0.00 0.00 0.00 0.00 0.00 0.00 0.00 0.01 0.02 0.03 0.04 0.03 0.03 0.04 0.04 0.06 0.09 0.11 0.12 0.13 0.14 0.14 0.14 0.13 0.13 0.13 0.14 0.16 0.19 0.22 0.26 0.33 0.36 0.38 0.42 0.42 0.42 0.43 0.42 0.42 0.38 0.34 0.35
0.00 0.00 0.00 0.00 0.00 0.01 0.01 0.02 0.03 0.05 0.04 0.04 0.05 0.06 0.09 0.12 0.16 0.19 0.20 0.20 0.20 0.19 0.19 0.19 0.19 0.20 0.23 0.27 0.28 0.26 0.28 0.31 0.34 0.36 0.40 0.45 0.49 0.52 0.51 0.50 0.46 0.41 0.34
0.00 0.00 0.00 0.00 0.01 0.01 0.02 0.03 0.05 0.06 0.07 0.09 0.11 0.14 0.18 0.22 0.25 0.26 0.25 0.23 0.23 0.24 0.24 0.24 0.26 0.29 0.37 0.51 0.54 0.42 0.38 0.36 0.36 0.35 0.38 0.43 0.50 0.57 0.62 0.64 0.55 0.45 0.41
0.00 0.01 0.01 0.01 0.02 0.02 0.03 0.06 0.09 0.12 0.16 0.20 0.23 0.23 0.22 0.22 0.22 0.22 0.22 0.23 0.25 0.26 0.26 0.24 0.26 0.32 0.46 0.77 0.81 0.62 0.48 0.42 0.40 0.37 0.38 0.42 0.51 0.64 0.74 0.75 0.67 0.55 0.47
0.01 0.01 0.02 0.03 0.04 0.06 0.09 0.14 0.20 0.23 0.25 0.27 0.27 0.25 0.22 0.21 0.21 0.22 0.22 0.23 0.23 0.21 0.18 0.17 0.21 0.30 0.47 0.84 0.89 0.69 0.47 0.40 0.40 0.40 0.36 0.35 0.39 0.44 0.51 0.61 0.59 0.57 0.52
0.03 0.04 0.05 0.07 0.09 0.13 0.18 0.22 0.24 0.24 0.26 0.28 0.28 0.26 0.24 0.23 0.21 0.20 0.18 0.17 0.16 0.13 0.10 0.09 0.11 0.17 0.34 0.70 0.77 0.60 0.38 0.30 0.32 0.32 0.27 0.25 0.27 0.27 0.25 0.29 0.27 0.30 0.39
0.07 0.09 0.11 0.12 0.15 0.20 0.24 0.27 0.26 0.26 0.26 0.25 0.23 0.19 0.16 0.15 0.14 0.13 0.12 0.10 0.09 0.08 0.06 0.04 0.04 0.06 0.14 0.47 0.68 0.50 0.24 0.22 0.24 0.24 0.25 0.25 0.24 0.23 0.19 0.17 0.18 0.21 0.27
0.07 0.08 0.08 0.09 0.13 0.19 0.22 0.23 0.21 0.20 0.17 0.15 0.12 0.09 0.07 0.07 0.08 0.08 0.07 0.05 0.04 0.03 0.02 0.02 0.01 0.02 0.06 0.27 0.61 0.53 0.18 0.16 0.18 0.22 0.31 0.32 0.27 0.24 0.14 0.11 0.16 0.19 0.22
0.04 0.04 0.04 0.04 0.07 0.10 0.12 0.12 0.12 0.10 0.09 0.07 0.05 0.03 0.02 0.03 0.03 0.03 0.02 0.01 0.01 0.01 0.01 0.00 0.01 0.01 0.02 0.15 0.49 0.65 0.24 0.16 0.15 0.18 0.29 0.46 0.37 0.24 0.10 0.08 0.11 0.14 0.18
0.03 0.02 0.02 0.04 0.07 0.10 0.11 0.10 0.08 0.05 0.03 0.02 0.01 0.00 0.00 0.00 0.01 0.01 0.01 0.01 0.01 0.01 0.01 0.01 0.01 0.01 0.01 0.05 0.29 0.65 0.48 0.25 0.14 0.17 0.29 0.45 0.35 0.19 0.10 0.07 0.08 0.13 0.11
0.02 0.02 0.03 0.05 0.10 0.12 0.10 0.06 0.04 0.01 0.00 0.00 0.00 0.00 0.00 0.00 0.00 0.00 0.00 0.01 0.01 0.01 0.01 0.01 0.01 0.01 0.01 0.04 0.18 0.40 0.48 0.34 0.14 0.18 0.23 0.30 0.22 0.14 0.07 0.04 0.05 0.04 0.03
0.02 0.04 0.05 0.08 0.11 0.09 0.05 0.02 0.01 0.00 0.00 0.00 0.00 0.00 0.00 0.00 0.00 0.00 0.01 0.01 0.01 0.03 0.05 0.05 0.04 0.02 0.02 0.04 0.15 0.20 0.19 0.20 0.14 0.23 0.35 0.24 0.13 0.07 0.04 0.02 0.01 0.01 0.01
0.05 0.06 0.07 0.09 0.10 0.06 0.02 0.00 0.00 0.00 0.00 0.00 0.00 0.00 0.00 0.00 0.00 0.00 0.01 0.01 0.03 0.12 0.18 0.14 0.09 0.05 0.04 0.13 0.28 0.25 0.12 0.10 0.10 0.11 0.19 0.15 0.06 0.01 0.01 0.00 0.00 0.01 0.01
0.07 0.08 0.09 0.09 0.07 0.03 0.01 0.00 0.00 0.00 0.00 0.00 0.00 0.00 0.00 0.00 0.00 0.00 0.01 0.02 0.04 0.18 0.31 0.25 0.22 0.18 0.20 0.34 0.49 0.39 0.27 0.25 0.20 0.12 0.08 0.05 0.03 0.02 0.01 0.00 0.00 0.00 0.01
0.11 0.11 0.09 0.05 0.02 0.01 0.00 0.00 0.00 0.00 0.00 0.01 0.00 0.01 0.01 0.01 0.01 0.01 0.01 0.01 0.03 0.08 0.10 0.14 0.21 0.20 0.30 0.39 0.32 0.26 0.22 0.21 0.18 0.10 0.06 0.05 0.03 0.02 0.02 0.01 0.01 0.00 0.01

GEFSMW_prec_meanprecacc_072.txt.gz
Total_Precipitation_Accumulation
0.00 0.00 0.00 0.00 0.00 0.00 0.00 0.00 0.00 0.00 0.00 0.00 0.00 0.00 0.00 0.00 0.00 0.00 0.00 0.00 0.00 0.00 0.00 0.00 0.01 0.02 0.04 0.07 0.10 0.11 0.11 0.12 0.17 0.21 0.20 0.20 0.23 0.27 0.26 0.25 0.28 0.32 0.35
0.00 0.00 0.00 0.00 0.00 0.00 0.00 0.00 0.00 0.00 0.00 0.00 0.00 0.00 0.00 0.00 0.00 0.00 0.00 0.00 0.00 0.00 0.00 0.00 0.00 0.00 0.01 0.01 0.02 0.03 0.05 0.05 0.08 0.15 0.20 0.17 0.15 0.16 0.17 0.18 0.22 0.28 0.35
0.00 0.00 0.00 0.00 0.00 0.00 0.00 0.00 0.00 0.00 0.00 0.00 0.00 0.00 0.00 0.00 0.00 0.00 0.00 0.00 0.00 0.00 0.00 0.00 0.00 0.00 0.01 0.01 0.01 0.02 0.03 0.04 0.04 0.08 0.23 0.31 0.23 0.15 0.12 0.14 0.16 0.19 0.21
0.00 0.00 0.00 0.00 0.00 0.00 0.00 0.00 0.00 0.00 0.00 0.00 0.00 0.00 0.00 0.00 0.00 0.00 0.00 0.00 0.00 0.00 0.00 0.00 0.00 0.01 0.01 0.01 0.01 0.02 0.03 0.05 0.06 0.06 0.11 0.20 0.25 0.29 0.19 0.07 0.06 0.08 0.10
0.00 0.00 0.00 0.00 0.00 0.00 0.00 0.00 0.00 0.00 0.00 0.00 0.00 0.00 0.00 0.00 0.00 0.00 0.00 0.00 0.00 0.00 0.00 0.01 0.01 0.01 0.01 0.01 0.02 0.02 0.03 0.05 0.07 0.10 0.10 0.10 0.11 0.19 0.31 0.15 0.03 0.03 0.04
0.00 0.00 0.00 0.00 0.00 0.00 0.00 0.00 0.00 0.00 0.00 0.00 0.00 0.00 0.00 0.00 0.00 0.00 0.00 0.00 0.00 0.00 0.01 0.01 0.01 0.02 0.02 0.02 0.03 0.04 0.05 0.06 0.08 0.10 0.13 0.17 0.21 0.20 0.27 0.24 0.10 0.05 0.03
0.00 0.00 0.00 0.00 0.00 0.00 0.00 0.00 0.00 0.00 0.00 0.00 0.00 0.00 0.00 0.00 0.00 0.00 0.00 0.00 0.00 0.01 0.01 0.02 0.02 0.03 0.04 0.04 0.05 0.07 0.08 0.09 0.11 0.12 0.13 0.16 0.18 0.21 0.26 0.28 0.20 0.11 0.05
0.00 0.00 0.00 0.00 0.00 0.00 0.00 0.00 0.00 0.00 0.00 0.00 0.00 0.00 0.00 0.01 0.00 0.00 0.00 0.01 0.01 0.01 0.02 0.03 0.04 0.05 0.06 0.07 0.09 0.11 0.12 0.13 0.15 0.15 0.16 0.18 0.17 0.19 0.24 0.31 0.35 0.26 0.10
0.00 0.00 0.00 0.00 0.00 0.00 0.00 0.00 0.00 0.00 0.00 0.00 0.00 0.00 0.00 0.00 0.00 0.00 0.01 0.01 0.02 0.03 0.04 0.06 0.08 0.10 0.11 0.12 0.13 0.15 0.17 0.18 0.20 0.21 0.21 0.23 0.21 0.21 0.22 0.26 0.36 0.46 0.34
0.00 0.00 0.00 0.00 0.00 0.00 0.00 0.00 0.00 0.00 0.01 0.00 0.01 0.01 0.01 0.01 0.01 0.01 0.02 0.03 0.04 0.05 0.06 0.07 0.10 0.13 0.15 0.17 0.19 0.21 0.22 0.25 0.28 0.29 0.29 0.29 0.28 0.28 0.26 0.26 0.28 0.37 0.46
0.00 0.00 0.00 0.00 0.00 0.00 0.00 0.00 0.01 0.01 0.01 0.01 0.01 0.02 0.02 0.03 0.03 0.04 0.05 0.07 0.08 0.09 0.09 0.09 0.10 0.11 0.14 0.17 0.21 0.25 0.29 0.33 0.33 0.34 0.36 0.37 0.37 0.37 0.35 0.34 0.33 0.34 0.43
0.00 0.00 0.00 0.00 0.00 0.00 0.00 0.01 0.02 0.03 0.04 0.03 0.03 0.04 0.04 0.06 0.09 0.11 0.12 0.13 0.14 0.14 0.14 0.13 0.13 0.13 0.14 0.16 0.19 0.22 0.26 0.33 0.37 0.39 0.42 0.43 0.43 0.44 0.44 0.44 0.41 0.38 0.39
0.00 0.00 0.00 0.00 0.00 0.01 0.01 0.02 0.03 0.05 0.04 0.04 0.05 0.06 0.09 0.12 0.16 0.19 0.20 0.20 0.20 0.19 0.19 0.19 0.19 0.20 0.23 0.27 0.28 0.26 0.28 0.31 0.34 0.36 0.41 0.45 0.50 0.53 0.52 0.51 0.48 0.42 0.36
0.00 0.00 0.00 0.00 0.01 0.01 0.02 0.03 0.05 0.06 0.07 0.09 0.11 0.14 0.18 0.22 0.25 0.26 0.25 0.23 0.23 0.24 0.24 0.24 0.26 0.29 0.37 0.51 0.54 0.43 0.39 0.36 0.36 0.35 0.38 0.44 0.51 0.58 0.63 0.65 0.56 0.46 0.42
0.00 0.01 0.01 0.01 0.02 0.02 0.03 0.06 0.09 0.12 0.16 0.20 0.23 0.23 0.22 0.22 0.22 0.22 0.22 0.23 0.25 0.26 0.26 0.24 0.26 0.32 0.46 0.77 0.81 0.64 0.50 0.43 0.41 0.38 0.39 0.43 0.53 0.66 0.77 0.79 0.71 0.58 0.49
0.01 0.01 0.02 0.03 0.04 0.06 0.09 0.14 0.20 0.23 0.25 0.27 0.27 0.25 0.22 0.21 0.21 0.22 0.22 0.23 0.23 0.21 0.18 0.17 0.21 0.30 0.47 0.84 0.90 0.71 0.49 0.42 0.42 0.42 0.38 0.36 0.40 0.46 0.53 0.64 0.63 0.60 0.55
0.03 0.04 0.05 0.07 0.09 0.13 0.18 0.22 0.24 0.24 0.26 0.28 0.28 0.26 0.24 0.23 0.21 0.20 0.18 0.17 0.16 0.13 0.10 0.09 0.11 0.17 0.34 0.70 0.78 0.63 0.40 0.32 0.34 0.34 0.29 0.27 0.28 0.28 0.26 0.30 0.29 0.31 0.40
0.07 0.09 0.11 0.12 0.15 0.20 0.24 0.27 0.26 0.26 0.26 0.25 0.23 0.19 0.16 0.15 0.14 0.14 0.12 0.10 0.09 0.08 0.06 0.04 0.04 0.06 0.14 0.47 0.69 0.52 0.25 0.23 0.26 0.26 0.27 0.27 0.25 0.24 0.22 0.22 0.21 0.22 0.28
0.07 0.08 0.08 0.09 0.13 0.19 0.22 0.23 0.21 0.20 0.17 0.15 0.12 0.09 0.07 0.07 0.08 0.08 0.07 0.05 0.04 0.03 0.02 0.02 0.01 0.02 0.06 0.27 0.61 0.55 0.20 0.18 0.20 0.24 0.32 0.34 0.29 0.26 0.20 0.20 0.21 0.21 0.23
0.04 0.04 0.04 0.04 0.07 0.10 0.12 0.12 0.12 0.10 0.09 0.07 0.05 0.03 0.02 0.03 0.03 0.03 0.02 0.01 0.01 0.01 0.01 0.00 0.01 0.01 0.02 0.15 0.50 0.67 0.27 0.19 0.17 0.20 0.30 0.46 0.40 0.29 0.18 0.15 0.14 0.16 0.19
0.03 0.02 0.02 0.04 0.07 0.10 0.11 0.10 0.08 0.05 0.03 0.02 0.01 0.00 0.00 0.01 0.01 0.01 0.01 0.01 0.01 0.01 0.01 0.01 0.01 0.01 0.01 0.05 0.29 0.66 0.51 0.30 0.19 0.19 0.30 0.46 0.37 0.24 0.15 0.10 0.10 0.15 0.14
0.02 0.02 0.03 0.05 0.10 0.12 0.10 0.06 0.04 0.01 0.00 0.00 0.00 0.00 0.00 0.00 0.00 0.00 0.01 0.01 0.01 0.01 0.01 0.01 0.01 0.01 0.01 0.04 0.18 0.41 0.50 0.37 0.17 0.20 0.24 0.32 0.26 0.18 0.10 0.06 0.07 0.06 0.04
0.02 0.04 0.05 0.08 0.11 0.09 0.05 0.02 0.01 0.00 0.00 0.00 0.00 0.00 0.00 0.00 0.00 0.01 0.01 0.01 0.01 0.03 0.05 0.05 0.04 0.02 0.02 0.04 0.15 0.21 0.21 0.22 0.15 0.24 0.37 0.27 0.15 0.08 0.05 0.02 0.02 0.02 0.02
0.05 0.06 0.07 0.09 0.10 0.06 0.02 0.00 0.00 0.00 0.00 0.00 0.00 0.00 0.00 0.00 0.01 0.01 0.01 0.01 0.03 0.12 0.18 0.14 0.09 0.05 0.04 0.13 0.29 0.27 0.14 0.12 0.11 0.13 0.20 0.16 0.06 0.02 0.01 0.01 0.01 0.01 0.01
0.07 0.08 0.09 0.09 0.07 0.03 0.01 0.00 0.00 0.00 0.00 0.00 0.01 0.01 0.01 0.01 0.01 0.01 0.01 0.02 0.04 0.18 0.31 0.25 0.22 0.18 0.20 0.34 0.50 0.41 0.29 0.27 0.23 0.14 0.09 0.06 0.03 0.02 0.01 0.01 0.00 0.00 0.01
0.11 0.11 0.09 0.05 0.02 0.01 0.00 0.00 0.00 0.00 0.00 0.01 0.01 0.01 0.02 0.01 0.01 0.01 0.01 0.01 0.03 0.08 0.10 0.14 0.21 0.20 0.30 0.39 0.33 0.27 0.24 0.23 0.20 0.10 0.07 0.05 0.04 0.03 0.02 0.01 0.01 0.01 0.01

GEFSMW_prec_meanprecacc_078.txt.gz
Total_Precipitation_Accumulation
0.00 0.00 0.00 0.00 0.00 0.00 0.00 0.00 0.00 0.00 0.00 0.00 0.00 0.00 0.00 0.00 0.00 0.00 0.00 0.00 0.00 0.00 0.00 0.00 0.01 0.02 0.04 0.07 0.10 0.11 0.11 0.12 0.17 0.21 0.20 0.20 0.23 0.27 0.26 0.25 0.28 0.32 0.35
0.00 0.00 0.00 0.00 0.00 0.00 0.00 0.00 0.00 0.00 0.00 0.00 0.00 0.00 0.00 0.00 0.00 0.00 0.00 0.00 0.00 0.00 0.00 0.00 0.00 0.00 0.01 0.01 0.02 0.03 0.05 0.05 0.08 0.15 0.20 0.17 0.15 0.16 0.17 0.18 0.22 0.28 0.35
0.00 0.00 0.00 0.00 0.00 0.00 0.00 0.00 0.00 0.00 0.00 0.00 0.00 0.00 0.00 0.00 0.00 0.00 0.00 0.00 0.00 0.00 0.00 0.00 0.00 0.00 0.01 0.01 0.01 0.02 0.03 0.04 0.04 0.08 0.23 0.32 0.24 0.16 0.12 0.14 0.16 0.19 0.21
0.00 0.00 0.00 0.00 0.00 0.00 0.00 0.00 0.00 0.00 0.00 0.00 0.00 0.00 0.00 0.00 0.00 0.00 0.00 0.00 0.00 0.00 0.00 0.00 0.00 0.01 0.01 0.01 0.01 0.02 0.03 0.05 0.06 0.06 0.11 0.21 0.26 0.32 0.21 0.07 0.06 0.08 0.10
0.00 0.00 0.00 0.00 0.00 0.00 0.00 0.00 0.00 0.00 0.00 0.00 0.00 0.00 0.00 0.00 0.00 0.00 0.00 0.00 0.00 0.00 0.00 0.01 0.01 0.01 0.01 0.01 0.02 0.02 0.03 0.05 0.07 0.10 0.11 0.10 0.11 0.20 0.34 0.16 0.03 0.03 0.05
0.00 0.00 0.00 0.00 0.00 0.00 0.00 0.00 0.00 0.00 0.00 0.00 0.00 0.00 0.00 0.00 0.00 0.00 0.00 0.00 0.00 0.00 0.01 0.01 0.01 0.02 0.02 0.02 0.03 0.04 0.05 0.06 0.08 0.10 0.13 0.18 0.22 0.21 0.29 0.26 0.11 0.05 0.03
0.00 0.00 0.00 0.00 0.00 0.00 0.00 0.00 0.00 0.00 0.00 0.00 0.00 0.00 0.00 0.00 0.00 0.00 0.00 0.00 0.00 0.01 0.01 0.02 0.02 0.03 0.04 0.04 0.05 0.07 0.08 0.09 0.11 0.12 0.14 0.16 0.19 0.22 0.27 0.31 0.21 0.11 0.05
0.00 0.00 0.00 0.00 0.00 0.00 0.00 0.00 0.00 0.00 0.00 0.00 0.00 0.00 0.00 0.01 0.00 0.00 0.00 0.01 0.01 0.01 0.02 0.03 0.04 0.05 0.06 0.07 0.09 0.11 0.12 0.13 0.15 0.15 0.16 0.18 0.17 0.19 0.25 0.33 0.37 0.28 0.11
0.00 0.00 0.00 0.00 0.00 0.00 0.00 0.00 0.00 0.00 0.00 0.00 0.00 0.00 0.00 0.00 0.00 0.00 0.01 0.01 0.02 0.03 0.04 0.06 0.08 0.10 0.11 0.12 0.13 0.15 0.17 0.18 0.20 0.21 0.21 0.23 0.21 0.21 0.22 0.27 0.38 0.51 0.37
0.00 0.00 0.00 0.00 0.00 0.00 0.00 0.00 0.00 0.00 0.01 0.00 0.01 0.01 0.01 0.01 0.01 0.01 0.02 0.03 0.04 0.05 0.06 0.07 0.10 0.13 0.15 0.17 0.19 0.21 0.22 0.25 0.28 0.29 0.29 0.29 0.28 0.28 0.27 0.27 0.29 0.39 0.50
0.00 0.00 0.00 0.00 0.00 0.00 0.00 0.00 0.01 0.01 0.01 0.01 0.01 0.02 0.02 0.03 0.03 0.04 0.05 0.07 0.08 0.09 0.09 0.09 0.10 0.12 0.14 0.17 0.21 0.25 0.29 0.33 0.33 0.34 0.36 0.37 0.37 0.37 0.35 0.34 0.34 0.35 0.46
0.00 0.00 0.00 0.00 0.00 0.00 0.00 0.01 0.02 0.03 0.04 0.03 0.03 0.04 0.04 0.06 0.09 0.11 0.12 0.13 0.14 0.14 0.14 0.13 0.13 0.13 0.14 0.16 0.19 0.22 0.26 0.33 0.37 0.39 0.42 0.43 0.43 0.45 0.44 0.44 0.42 0.39 0.41
0.00 0.00 0.00 0.00 0.00 0.01 0.01 0.02 0.03 0.05 0.04 0.04 0.05 0.06 0.09 0.12 0.16 0.19 0.20 0.20 0.20 0.20 0.19 0.19 0.20 0.20 0.23 0.27 0.28 0.26 0.28 0.31 0.34 0.36 0.41 0.46 0.51 0.54 0.52 0.52 0.49 0.44 0.38
0.00 0.00 0.00 0.00 0.01 0.01 0.02 0.03 0.05 0.06 0.07 0.09 0.11 0.14 0.18 0.22 0.25 0.26 0.25 0.23 0.23 0.24 0.24 0.24 0.26 0.29 0.37 0.51 0.54 0.43 0.39 0.36 0.36 0.36 0.39 0.45 0.52 0.59 0.64 0.67 0.58 0.50 0.46
0.00 0.01 0.01 0.01 0.02 0.02 0.03 0.06 0.09 0.12 0.16 0.20 0.23 0.23 0.22 0.22 0.22 0.22 0.22 0.23 0.25 0.26 0.26 0.24 0.26 0.32 0.46 0.78 0.81 0.64 0.50 0.43 0.41 0.39 0.40 0.43 0.54 0.68 0.81 0.87 0.78 0.67 0.57
0.01 0.01 0.02 0.03 0.04 0.06 0.09 0.14 0.20 0.23 0.25 0.27 0.27 0.25 0.22 0.21 0.21 0.22 0.22 0.23 0.23 0.21 0.18 0.17 0.21 0.30 0.47 0.85 0.90 0.71 0.49 0.43 0.43 0.43 0.39 0.37 0.41 0.47 0.56 0.68 0.68 0.67 0.63
0.03 0.04 0.05 0.07 0.09 0.13 0.18 0.22 0.24 0.24 0.26 0.28 0.28 0.26 0.24 0.23 0.21 0.20 0.18 0.18 0.16 0.13 0.10 0.09 0.11 0.18 0.34 0.70 0.78 0.63 0.41 0.33 0.35 0.34 0.29 0.27 0.28 0.28 0.27 0.32 0.31 0.34 0.44
0.07 0.09 0.11 0.12 0.15 0.20 0.24 0.27 0.26 0.26 0.26 0.25 0.23 0.19 0.16 0.15 0.14 0.14 0.13 0.11 0.09 0.08 0.06 0.05 0.04 0.06 0.14 0.47 0.69 0.52 0.26 0.23 0.26 0.26 0.28 0.27 0.26 0.24 0.25 0.28 0.27 0.25 0.29
0.07 0.08 0.08 0.09 0.13 0.19 0.22 0.23 0.21 0.20 0.17 0.15 0.12 0.09 0.07 0.07 0.08 0.08 0.07 0.05 0.04 0.04 0.03 0.02 0.02 0.02 0.06 0.27 0.61 0.55 0.20 0.18 0.20 0.24 0.33 0.34 0.30 0.27 0.26 0.29 0.29 0.24 0.24
0.04 0.04 0.04 0.04 0.07 0.10 0.12 0.12 0.12 0.10 0.09 0.07 0.05 0.03 0.02 0.03 0.04 0.04 0.03 0.02 0.02 0.02 0.01 0.01 0.01 0.01 0.03 0.15 0.50 0.67 0.27 0.20 0.18 0.20 0.30 0.47 0.41 0.32 0.24 0.23 0.21 0.19 0.21
0.03 0.02 0.02 0.04 0.07 0.10 0.11 0.10 0.08 0.05 0.03 0.02 0.01 0.01 0.00 0.01 0.01 0.01 0.01 0.02 0.02 0.02 0.01 0.01 0.01 0.01 0.01 0.05 0.29 0.66 0.52 0.31 0.20 0.20 0.30 0.46 0.39 0.28 0.20 0.15 0.14 0.19 0.19
0.02 0.02 0.03 0.05 0.10 0.12 0.10 0.06 0.04 0.01 0.00 0.00 0.00 0.00 0.00 0.01 0.01 0.01 0.01 0.01 0.02 0.02 0.02 0.02 0.02 0.01 0.01 0.04 0.18 0.41 0.51 0.39 0.19 0.21 0.24 0.32 0.29 0.21 0.14 0.09 0.09 0.10 0.07
0.02 0.04 0.05 0.08 0.11 0.09 0.05 0.02 0.01 0.00 0.00 0.00 0.00 0.00 0.01 0.01 0.01 0.01 0.02 0.02 0.02 0.04 0.06 0.05 0.04 0.02 0.02 0.04 0.15 0.22 0.22 0.23 0.16 0.25 0.38 0.28 0.17 0.10 0.06 0.03 0.03 0.03 0.02
0.05 0.06 0.07 0.09 0.10 0.06 0.02 0.00 0.00 0.00 0.00 0.00 0.01 0.01 0.01 0.01 0.01 0.02 0.02 0.03 0.04 0.13 0.19 0.14 0.10 0.05 0.04 0.13 0.29 0.27 0.14 0.12 0.12 0.13 0.21 0.17 0.07 0.02 0.01 0.01 0.01 0.01 0.02
0.07 0.08 0.09 0.09 0.07 0.03 0.01 0.00 0.00 0.00 0.00 0.00 0.01 0.01 0.01 0.01 0.02 0.02 0.02 0.03 0.05 0.19 0.32 0.25 0.22 0.19 0.20 0.35 0.51 0.41 0.29 0.28 0.24 0.16 0.10 0.06 0.03 0.02 0.01 0.01 0.01 0.01 0.01
0.11 0.11 0.09 0.05 0.02 0.01 0.00 0.00 0.00 0.00 0.00 0.01 0.01 0.02 0.02 0.02 0.02 0.02 0.02 0.03 0.04 0.09 0.11 0.14 0.21 0.21 0.30 0.40 0.33 0.27 0.24 0.23 0.20 0.11 0.07 0.05 0.04 0.03 0.03 0.02 0.01 0.01 0.02

GEFSMW_prec_meanprecacc_084.txt.gz
Total_Precipitation_Accumulation
0.00 0.00 0.00 0.00 0.00 0.00 0.00 0.00 0.00 0.00 0.00 0.00 0.00 0.00 0.00 0.00 0.00 0.00 0.00 0.00 0.00 0.00 0.00 0.00 0.01 0.02 0.04 0.07 0.10 0.11 0.11 0.12 0.17 0.21 0.20 0.20 0.23 0.27 0.26 0.25 0.28 0.32 0.35
0.00 0.00 0.00 0.00 0.00 0.00 0.00 0.00 0.00 0.00 0.00 0.00 0.00 0.00 0.00 0.00 0.00 0.00 0.00 0.00 0.00 0.00 0.00 0.00 0.00 0.00 0.01 0.01 0.02 0.03 0.05 0.05 0.08 0.15 0.20 0.17 0.15 0.16 0.17 0.18 0.22 0.28 0.35
0.00 0.00 0.00 0.00 0.00 0.00 0.00 0.00 0.00 0.00 0.00 0.00 0.00 0.00 0.00 0.00 0.00 0.00 0.00 0.00 0.00 0.00 0.00 0.00 0.00 0.00 0.01 0.01 0.01 0.02 0.03 0.04 0.04 0.08 0.23 0.32 0.24 0.16 0.12 0.14 0.16 0.19 0.21
0.00 0.00 0.00 0.00 0.00 0.00 0.00 0.00 0.00 0.00 0.00 0.00 0.00 0.00 0.00 0.00 0.00 0.00 0.00 0.00 0.00 0.00 0.00 0.00 0.00 0.01 0.01 0.01 0.01 0.02 0.03 0.05 0.06 0.06 0.11 0.21 0.26 0.32 0.21 0.07 0.06 0.08 0.10
0.00 0.00 0.00 0.00 0.00 0.00 0.00 0.00 0.00 0.00 0.00 0.00 0.00 0.00 0.00 0.00 0.00 0.00 0.00 0.00 0.00 0.00 0.00 0.01 0.01 0.01 0.01 0.01 0.02 0.02 0.03 0.05 0.07 0.10 0.11 0.10 0.11 0.20 0.34 0.16 0.03 0.03 0.05
0.00 0.00 0.00 0.00 0.00 0.00 0.00 0.00 0.00 0.00 0.00 0.00 0.00 0.00 0.00 0.00 0.00 0.00 0.00 0.00 0.00 0.00 0.01 0.01 0.01 0.02 0.02 0.02 0.03 0.04 0.05 0.06 0.08 0.10 0.13 0.18 0.22 0.21 0.29 0.26 0.11 0.05 0.03
0.00 0.00 0.00 0.00 0.00 0.00 0.00 0.00 0.00 0.00 0.00 0.00 0.00 0.00 0.00 0.00 0.00 0.00 0.00 0.00 0.00 0.01 0.01 0.02 0.02 0.03 0.04 0.04 0.05 0.07 0.08 0.09 0.11 0.12 0.14 0.16 0.19 0.22 0.27 0.31 0.21 0.11 0.05
0.00 0.00 0.00 0.00 0.00 0.00 0.00 0.00 0.00 0.00 0.00 0.00 0.00 0.00 0.00 0.01 0.00 0.00 0.00 0.01 0.01 0.01 0.02 0.03 0.04 0.05 0.06 0.07 0.09 0.11 0.12 0.13 0.15 0.15 0.16 0.18 0.17 0.19 0.25 0.33 0.38 0.29 0.11
0.00 0.00 0.00 0.00 0.00 0.00 0.00 0.00 0.00 0.00 0.00 0.00 0.00 0.00 0.00 0.00 0.00 0.00 0.01 0.01 0.02 0.03 0.04 0.06 0.08 0.10 0.11 0.12 0.13 0.15 0.17 0.18 0.20 0.21 0.21 0.23 0.21 0.21 0.22 0.27 0.39 0.53 0.39
0.00 0.00 0.00 0.00 0.00 0.00 0.00 0.00 0.00 0.00 0.01 0.00 0.01 0.01 0.01 0.01 0.01 0.01 0.02 0.03 0.04 0.05 0.06 0.07 0.10 0.13 0.15 0.17 0.19 0.21 0.22 0.25 0.28 0.29 0.29 0.29 0.28 0.28 0.27 0.27 0.30 0.41 0.53
0.00 0.00 0.00 0.00 0.00 0.00 0.00 0.00 0.01 0.01 0.01 0.01 0.01 0.02 0.02 0.03 0.03 0.04 0.05 0.07 0.08 0.09 0.09 0.09 0.10 0.12 0.14 0.17 0.21 0.25 0.29 0.33 0.34 0.34 0.36 0.38 0.37 0.37 0.35 0.34 0.34 0.36 0.48
0.00 0.00 0.00 0.00 0.00 0.00 0.00 0.01 0.02 0.03 0.04 0.03 0.03 0.04 0.04 0.06 0.09 0.11 0.12 0.13 0.14 0.14 0.14 0.13 0.13 0.13 0.14 0.17 0.19 0.23 0.27 0.33 0.37 0.39 0.42 0.43 0.43 0.45 0.44 0.45 0.43 0.40 0.42
0.00 0.00 0.00 0.00 0.00 0.01 0.01 0.02 0.03 0.05 0.04 0.04 0.05 0.06 0.09 0.12 0.16 0.19 0.20 0.20 0.20 0.20 0.19 0.19 0.20 0.20 0.23 0.27 0.28 0.27 0.28 0.32 0.34 0.36 0.41 0.46 0.51 0.54 0.52 0.52 0.50 0.45 0.39
0.00 0.00 0.00 0.00 0.01 0.01 0.02 0.03 0.05 0.06 0.07 0.09 0.11 0.14 0.18 0.22 0.25 0.26 0.25 0.23 0.23 0.24 0.24 0.24 0.26 0.30 0.38 0.51 0.55 0.44 0.40 0.37 0.37 0.36 0.39 0.45 0.53 0.60 0.65 0.68 0.59 0.51 0.49
0.00 0.01 0.01 0.01 0.02 0.02 0.03 0.06 0.09 0.12 0.16 0.20 0.23 0.23 0.22 0.22 0.22 0.22 0.22 0.23 0.25 0.27 0.26 0.25 0.26 0.32 0.47 0.78 0.82 0.65 0.51 0.44 0.42 0.40 0.41 0.44 0.54 0.69 0.83 0.90 0.83 0.73 0.65
0.01 0.01 0.02 0.03 0.04 0.06 0.09 0.14 0.20 0.23 0.25 0.27 0.27 0.25 0.22 0.21 0.21 0.22 0.22 0.23 0.23 0.21 0.18 0.17 0.22 0.30 0.48 0.86 0.91 0.72 0.50 0.44 0.44 0.44 0.39 0.37 0.41 0.48 0.57 0.71 0.72 0.73 0.72
0.03 0.04 0.05 0.07 0.09 0.13 0.18 0.22 0.24 0.24 0.26 0.28 0.28 0.26 0.24 0.23 0.21 0.20 0.18 0.18 0.16 0.13 0.11 0.09 0.12 0.18 0.36 0.72 0.80 0.64 0.41 0.33 0.35 0.35 0.30 0.28 0.28 0.28 0.27 0.32 0.32 0.36 0.46
0.07 0.09 0.11 0.12 0.15 0.20 0.24 0.27 0.26 0.26 0.26 0.25 0.23 0.19 0.16 0.15 0.14 0.14 0.13 0.11 0.10 0.08 0.06 0.05 0.05 0.07 0.16 0.49 0.70 0.53 0.26 0.23 0.26 0.27 0.28 0.28 0.26 0.24 0.25 0.29 0.29 0.27 0.30
0.07 0.08 0.08 0.09 0.13 0.19 0.22 0.23 0.21 0.20 0.17 0.15 0.12 0.09 0.07 0.07 0.08 0.08 0.07 0.05 0.04 0.04 0.03 0.03 0.03 0.03 0.07 0.29 0.62 0.56 0.21 0.19 0.21 0.24 0.33 0.35 0.30 0.28 0.28 0.32 0.33 0.27 0.26
0.04 0.04 0.04 0.04 0.07 0.10 0.12 0.12 0.12 0.10 0.09 0.07 0.05 0.03 0.02 0.03 0.04 0.04 0.03 0.02 0.02 0.02 0.02 0.02 0.02 0.02 0.04 0.17 0.51 0.67 0.28 0.21 0.18 0.21 0.31 0.47 0.41 0.34 0.27 0.27 0.26 0.23 0.23
0.03 0.02 0.02 0.04 0.07 0.10 0.11 0.10 0.08 0.05 0.03 0.02 0.01 0.01 0.00 0.01 0.01 0.01 0.01 0.02 0.02 0.02 0.02 0.02 0.02 0.02 0.03 0.06 0.30 0.67 0.53 0.32 0.21 0.21 0.31 0.46 0.39 0.29 0.22 0.19 0.19 0.23 0.23
0.02 0.02 0.03 0.05 0.10 0.12 0.10 0.06 0.04 0.01 0.00 0.00 0.00 0.00 0.00 0.01 0.01 0.01 0.01 0.02 0.02 0.02 0.03 0.03 0.03 0.02 0.02 0.05 0.19 0.42 0.52 0.39 0.20 0.22 0.25 0.33 0.29 0.23 0.16 0.11 0.12 0.13 0.11
0.02 0.04 0.05 0.08 0.11 0.09 0.05 0.02 0.01 0.00 0.00 0.00 0.00 0.00 0.01 0.01 0.01 0.01 0.02 0.02 0.02 0.04 0.06 0.06 0.05 0.03 0.03 0.05 0.16 0.22 0.23 0.24 0.17 0.25 0.38 0.29 0.18 0.11 0.07 0.04 0.04 0.04 0.03
0.05 0.06 0.07 0.09 0.10 0.06 0.02 0.00 0.00 0.00 0.00 0.00 0.01 0.01 0.01 0.01 0.01 0.02 0.02 0.03 0.05 0.14 0.20 0.15 0.10 0.06 0.05 0.14 0.30 0.28 0.15 0.13 0.13 0.14 0.21 0.17 0.07 0.02 0.01 0.01 0.01 0.01 0.02
0.07 0.08 0.09 0.09 0.07 0.03 0.01 0.00 0.00 0.00 0.00 0.00 0.01 0.01 0.01 0.01 0.02 0.02 0.02 0.04 0.06 0.20 0.33 0.26 0.23 0.19 0.21 0.35 0.51 0.42 0.30 0.28 0.25 0.16 0.10 0.07 0.04 0.02 0.01 0.01 0.01 0.01 0.01
0.11 0.11 0.09 0.05 0.02 0.01 0.00 0.00 0.00 0.00 0.00 0.01 0.01 0.02 0.02 0.02 0.02 0.02 0.03 0.03 0.05 0.10 0.12 0.15 0.22 0.21 0.31 0.40 0.34 0.28 0.25 0.24 0.21 0.12 0.08 0.06 0.04 0.03 0.03 0.02 0.01 0.01 0.02

GEFSMW_prec_meanprecacc_090.txt.gz
Total_Precipitation_Accumulation
0.00 0.00 0.00 0.00 0.00 0.00 0.00 0.00 0.00 0.00 0.00 0.00 0.00 0.00 0.00 0.00 0.00 0.00 0.00 0.00 0.00 0.00 0.00 0.00 0.01 0.02 0.04 0.07 0.10 0.11 0.11 0.12 0.17 0.21 0.20 0.20 0.23 0.27 0.26 0.25 0.28 0.32 0.35
0.00 0.00 0.00 0.00 0.00 0.00 0.00 0.00 0.00 0.00 0.00 0.00 0.00 0.00 0.00 0.00 0.00 0.00 0.00 0.00 0.00 0.00 0.00 0.00 0.00 0.00 0.01 0.01 0.02 0.03 0.05 0.05 0.08 0.15 0.20 0.17 0.15 0.16 0.17 0.18 0.22 0.28 0.35
0.00 0.00 0.00 0.00 0.00 0.00 0.00 0.00 0.00 0.00 0.00 0.00 0.00 0.00 0.00 0.00 0.00 0.00 0.00 0.00 0.00 0.00 0.00 0.00 0.00 0.00 0.01 0.01 0.01 0.02 0.03 0.04 0.04 0.08 0.23 0.32 0.24 0.16 0.12 0.14 0.16 0.19 0.21
0.00 0.00 0.00 0.00 0.00 0.00 0.00 0.00 0.00 0.00 0.00 0.00 0.00 0.00 0.00 0.00 0.00 0.00 0.00 0.00 0.00 0.00 0.00 0.00 0.00 0.01 0.01 0.01 0.01 0.02 0.03 0.05 0.06 0.06 0.11 0.21 0.26 0.32 0.21 0.07 0.06 0.08 0.10
0.00 0.00 0.00 0.00 0.00 0.00 0.00 0.00 0.00 0.00 0.00 0.00 0.00 0.00 0.00 0.00 0.00 0.00 0.00 0.00 0.00 0.00 0.00 0.01 0.01 0.01 0.01 0.01 0.02 0.02 0.03 0.05 0.07 0.10 0.11 0.10 0.11 0.20 0.34 0.16 0.03 0.03 0.05
0.00 0.00 0.00 0.00 0.00 0.00 0.00 0.00 0.00 0.00 0.00 0.00 0.00 0.00 0.00 0.00 0.00 0.00 0.00 0.00 0.00 0.00 0.01 0.01 0.01 0.02 0.02 0.02 0.03 0.04 0.05 0.06 0.08 0.10 0.13 0.18 0.22 0.21 0.29 0.26 0.11 0.05 0.03
0.00 0.00 0.00 0.00 0.00 0.00 0.00 0.00 0.00 0.00 0.00 0.00 0.00 0.00 0.00 0.00 0.00 0.00 0.00 0.00 0.00 0.01 0.01 0.02 0.02 0.03 0.04 0.04 0.05 0.07 0.08 0.09 0.11 0.12 0.14 0.16 0.19 0.22 0.27 0.31 0.21 0.11 0.05
0.00 0.00 0.00 0.00 0.00 0.00 0.00 0.00 0.00 0.00 0.00 0.00 0.00 0.00 0.00 0.01 0.00 0.00 0.00 0.01 0.01 0.01 0.02 0.03 0.04 0.05 0.06 0.07 0.09 0.11 0.12 0.13 0.15 0.15 0.16 0.18 0.17 0.19 0.25 0.33 0.38 0.29 0.11
0.00 0.00 0.00 0.00 0.00 0.00 0.00 0.00 0.00 0.00 0.00 0.00 0.00 0.00 0.00 0.00 0.00 0.00 0.01 0.01 0.02 0.03 0.04 0.06 0.08 0.10 0.11 0.12 0.13 0.15 0.17 0.18 0.20 0.21 0.21 0.23 0.21 0.21 0.22 0.27 0.39 0.53 0.40
0.00 0.00 0.00 0.00 0.00 0.00 0.00 0.00 0.00 0.00 0.01 0.00 0.01 0.01 0.01 0.01 0.01 0.01 0.02 0.03 0.04 0.05 0.06 0.07 0.10 0.13 0.15 0.17 0.19 0.21 0.22 0.25 0.28 0.29 0.29 0.29 0.28 0.28 0.27 0.27 0.30 0.41 0.54
0.00 0.00 0.00 0.00 0.00 0.00 0.00 0.00 0.01 0.01 0.01 0.01 0.01 0.02 0.02 0.03 0.03 0.04 0.05 0.07 0.08 0.09 0.09 0.09 0.10 0.12 0.14 0.17 0.21 0.25 0.30 0.33 0.34 0.34 0.37 0.38 0.37 0.37 0.35 0.35 0.34 0.37 0.49
0.00 0.00 0.00 0.00 0.00 0.00 0.00 0.01 0.02 0.03 0.04 0.03 0.03 0.04 0.04 0.06 0.09 0.11 0.12 0.13 0.14 0.14 0.14 0.13 0.13 0.13 0.14 0.17 0.19 0.23 0.27 0.33 0.37 0.39 0.43 0.44 0.44 0.45 0.45 0.45 0.43 0.41 0.43
0.00 0.00 0.00 0.00 0.00 0.01 0.01 0.02 0.03 0.05 0.04 0.04 0.05 0.06 0.09 0.12 0.16 0.19 0.20 0.20 0.20 0.20 0.19 0.19 0.20 0.20 0.23 0.28 0.28 0.27 0.29 0.32 0.35 0.37 0.42 0.47 0.52 0.55 0.53 0.53 0.51 0.45 0.39
0.00 0.00 0.00 0.00 0.01 0.01 0.02 0.03 0.05 0.06 0.07 0.09 0.11 0.14 0.18 0.22 0.25 0.26 0.25 0.23 0.23 0.24 0.24 0.24 0.26 0.30 0.38 0.51 0.55 0.45 0.40 0.37 0.37 0.37 0.40 0.46 0.54 0.61 0.66 0.69 0.60 0.52 0.49
0.00 0.01 0.01 0.01 0.02 0.02 0.03 0.06 0.09 0.12 0.16 0.20 0.23 0.23 0.22 0.22 0.22 0.22 0.22 0.23 0.25 0.27 0.26 0.25 0.26 0.32 0.47 0.79 0.82 0.65 0.52 0.45 0.42 0.40 0.42 0.45 0.55 0.70 0.84 0.91 0.84 0.75 0.67
0.01 0.01 0.02 0.03 0.04 0.06 0.09 0.14 0.20 0.23 0.25 0.27 0.27 0.25 0.22 0.21 0.21 0.22 0.22 0.23 0.23 0.21 0.18 0.17 0.22 0.30 0.48 0.86 0.91 0.72 0.50 0.44 0.45 0.45 0.40 0.38 0.42 0.49 0.59 0.73 0.75 0.76 0.76
0.03 0.04 0.05 0.07 0.09 0.13 0.18 0.22 0.24 0.24 0.26 0.28 0.28 0.26 0.24 0.23 0.21 0.20 0.18 0.18 0.16 0.13 0.11 0.09 0.12 0.18 0.36 0.72 0.80 0.65 0.42 0.34 0.36 0.36 0.31 0.29 0.29 0.30 0.29 0.35 0.36 0.40 0.50
0.07 0.09 0.11 0.12 0.15 0.20 0.24 0.27 0.26 0.26 0.26 0.25 0.23 0.19 0.16 0.15 0.14 0.14 0.13 0.11 0.10 0.08 0.06 0.05 0.05 0.07 0.16 0.49 0.71 0.54 0.28 0.25 0.28 0.28 0.30 0.30 0.28 0.26 0.28 0.32 0.32 0.30 0.32
0.07 0.08 0.08 0.09 0.13 0.19 0.22 0.23 0.21 0.20 0.17 0.15 0.12 0.09 0.07 0.07 0.08 0.08 0.07 0.05 0.04 0.04 0.03 0.03 0.03 0.03 0.07 0.29 0.63 0.57 0.23 0.22 0.22 0.25 0.35 0.37 0.32 0.29 0.30 0.37 0.36 0.29 0.27
0.04 0.04 0.04 0.04 0.07 0.10 0.12 0.12 0.12 0.10 0.09 0.07 0.05 0.03 0.02 0.03 0.04 0.04 0.03 0.02 0.02 0.02 0.02 0.02 0.02 0.02 0.04 0.17 0.51 0.69 0.31 0.24 0.21 0.23 0.33 0.50 0.44 0.36 0.30 0.32 0.30 0.26 0.24
0.03 0.02 0.02 0.04 0.07 0.10 0.11 0.10 0.08 0.05 0.03 0.02 0.01 0.01 0.00 0.01 0.01 0.01 0.01 0.02 0.02 0.02 0.02 0.02 0.02 0.02 0.03 0.07 0.31 0.69 0.56 0.35 0.24 0.24 0.34 0.48 0.41 0.33 0.26 0.23 0.23 0.25 0.25
0.02 0.02 0.03 0.05 0.10 0.12 0.10 0.06 0.04 0.01 0.00 0.00 0.00 0.00 0.00 0.01 0.01 0.01 0.01 0.02 0.02 0.02 0.03 0.03 0.03 0.03 0.02 0.05 0.19 0.44 0.55 0.43 0.24 0.25 0.27 0.34 0.31 0.26 0.20 0.16 0.16 0.16 0.15
0.02 0.04 0.05 0.08 0.11 0.09 0.05 0.02 0.01 0.00 0.00 0.00 0.00 0.00 0.01 0.01 0.01 0.01 0.02 0.02 0.03 0.04 0.07 0.07 0.05 0.03 0.03 0.06 0.16 0.24 0.25 0.29 0.22 0.29 0.40 0.31 0.20 0.14 0.10 0.08 0.08 0.07 0.06
0.05 0.06 0.07 0.09 0.10 0.06 0.02 0.00 0.00 0.00 0.00 0.00 0.01 0.01 0.01 0.01 0.01 0.02 0.02 0.03 0.05 0.14 0.21 0.16 0.11 0.06 0.06 0.14 0.31 0.29 0.17 0.17 0.19 0.19 0.24 0.21 0.11 0.06 0.04 0.03 0.03 0.03 0.04
0.07 0.08 0.09 0.09 0.07 0.03 0.01 0.00 0.00 0.00 0.00 0.01 0.01 0.01 0.01 0.02 0.02 0.02 0.02 0.04 0.06 0.20 0.34 0.27 0.24 0.20 0.22 0.36 0.52 0.44 0.32 0.31 0.29 0.22 0.16 0.12 0.08 0.06 0.04 0.02 0.02 0.02 0.02
0.11 0.11 0.09 0.05 0.02 0.01 0.00 0.00 0.00 0.00 0.01 0.01 0.02 0.02 0.02 0.02 0.02 0.03 0.03 0.03 0.05 0.10 0.12 0.15 0.23 0.22 0.32 0.41 0.36 0.30 0.27 0.27 0.25 0.19 0.15 0.10 0.07 0.05 0.04 0.03 0.02 0.02 0.02

GEFSMW_prec_meanprecacc_096.txt.gz
Total_Precipitation_Accumulation
0.00 0.00 0.00 0.00 0.00 0.00 0.00 0.00 0.00 0.00 0.00 0.00 0.00 0.00 0.00 0.00 0.00 0.00 0.00 0.00 0.00 0.00 0.00 0.00 0.01 0.02 0.04 0.07 0.10 0.11 0.11 0.12 0.17 0.21 0.20 0.20 0.23 0.27 0.26 0.25 0.28 0.32 0.35
0.00 0.00 0.00 0.00 0.00 0.00 0.00 0.00 0.00 0.00 0.00 0.00 0.00 0.00 0.00 0.00 0.00 0.00 0.00 0.00 0.00 0.00 0.00 0.00 0.00 0.00 0.01 0.01 0.02 0.03 0.05 0.05 0.08 0.15 0.20 0.17 0.15 0.16 0.17 0.18 0.22 0.28 0.35
0.00 0.00 0.00 0.00 0.00 0.00 0.00 0.00 0.00 0.00 0.00 0.00 0.00 0.00 0.00 0.00 0.00 0.00 0.00 0.00 0.00 0.00 0.00 0.00 0.00 0.00 0.01 0.01 0.01 0.02 0.03 0.04 0.04 0.08 0.23 0.32 0.24 0.16 0.12 0.14 0.16 0.19 0.21
0.00 0.00 0.00 0.00 0.00 0.00 0.00 0.00 0.00 0.00 0.00 0.00 0.00 0.00 0.00 0.00 0.00 0.00 0.00 0.00 0.00 0.00 0.00 0.00 0.00 0.01 0.01 0.01 0.01 0.02 0.03 0.05 0.06 0.06 0.11 0.21 0.26 0.32 0.21 0.07 0.06 0.08 0.10
0.00 0.00 0.00 0.00 0.00 0.00 0.00 0.00 0.00 0.00 0.00 0.00 0.00 0.00 0.00 0.00 0.00 0.00 0.00 0.00 0.00 0.00 0.00 0.01 0.01 0.01 0.01 0.01 0.02 0.02 0.03 0.05 0.07 0.10 0.11 0.10 0.11 0.20 0.34 0.16 0.03 0.03 0.05
0.00 0.00 0.00 0.00 0.00 0.00 0.00 0.00 0.00 0.00 0.00 0.00 0.00 0.00 0.00 0.00 0.00 0.00 0.00 0.00 0.00 0.00 0.01 0.01 0.01 0.02 0.02 0.02 0.03 0.04 0.05 0.06 0.08 0.10 0.13 0.18 0.22 0.21 0.29 0.26 0.11 0.05 0.03
0.00 0.00 0.00 0.00 0.00 0.00 0.00 0.00 0.00 0.00 0.00 0.00 0.00 0.00 0.00 0.00 0.00 0.00 0.00 0.00 0.00 0.01 0.01 0.02 0.02 0.03 0.04 0.04 0.05 0.07 0.08 0.09 0.11 0.12 0.14 0.16 0.19 0.22 0.27 0.31 0.21 0.11 0.05
0.00 0.00 0.00 0.00 0.00 0.00 0.00 0.00 0.00 0.00 0.00 0.00 0.00 0.00 0.00 0.01 0.00 0.00 0.00 0.01 0.01 0.01 0.02 0.03 0.04 0.05 0.06 0.07 0.09 0.11 0.12 0.13 0.15 0.15 0.16 0.18 0.17 0.19 0.25 0.33 0.38 0.29 0.11
0.00 0.00 0.00 0.00 0.00 0.00 0.00 0.00 0.00 0.00 0.00 0.00 0.00 0.00 0.00 0.00 0.00 0.00 0.01 0.01 0.02 0.03 0.04 0.06 0.08 0.10 0.11 0.12 0.13 0.15 0.17 0.18 0.20 0.21 0.21 0.23 0.21 0.21 0.22 0.27 0.39 0.54 0.40
0.00 0.00 0.00 0.00 0.00 0.00 0.00 0.00 0.00 0.00 0.01 0.00 0.01 0.01 0.01 0.01 0.01 0.01 0.02 0.03 0.04 0.05 0.06 0.07 0.10 0.13 0.15 0.17 0.19 0.21 0.22 0.25 0.28 0.29 0.29 0.29 0.28 0.28 0.27 0.27 0.30 0.41 0.55
0.00 0.00 0.00 0.00 0.00 0.00 0.00 0.00 0.01 0.01 0.01 0.01 0.01 0.02 0.02 0.03 0.03 0.04 0.05 0.07 0.08 0.09 0.09 0.09 0.10 0.12 0.14 0.17 0.21 0.25 0.30 0.33 0.34 0.34 0.37 0.38 0.38 0.38 0.36 0.35 0.35 0.37 0.49
0.00 0.00 0.00 0.00 0.00 0.00 0.00 0.01 0.02 0.03 0.04 0.03 0.03 0.04 0.04 0.06 0.09 0.11 0.12 0.13 0.14 0.14 0.14 0.13 0.13 0.13 0.14 0.17 0.19 0.23 0.27 0.33 0.37 0.39 0.43 0.44 0.44 0.46 0.45 0.46 0.44 0.41 0.44
0.00 0.00 0.00 0.00 0.00 0.01 0.01 0.02 0.03 0.05 0.04 0.04 0.05 0.06 0.09 0.12 0.16 0.19 0.20 0.20 0.20 0.20 0.19 0.19 0.20 0.20 0.23 0.28 0.28 0.27 0.29 0.32 0.35 0.37 0.42 0.47 0.52 0.56 0.54 0.54 0.52 0.46 0.40
0.00 0.00 0.00 0.00 0.01 0.01 0.02 0.03 0.05 0.06 0.07 0.09 0.11 0.14 0.18 0.22 0.25 0.26 0.25 0.23 0.23 0.24 0.24 0.24 0.26 0.30 0.38 0.51 0.55 0.45 0.40 0.37 0.37 0.37 0.40 0.46 0.55 0.62 0.67 0.71 0.62 0.53 0.51
0.00 0.01 0.01 0.01 0.02 0.02 0.03 0.06 0.09 0.12 0.16 0.20 0.23 0.23 0.22 0.22 0.22 0.22 0.22 0.23 0.25 0.27 0.26 0.25 0.26 0.32 0.47 0.79 0.83 0.65 0.52 0.45 0.43 0.40 0.42 0.46 0.56 0.71 0.85 0.93 0.86 0.77 0.70
0.01 0.01 0.02 0.03 0.04 0.06 0.09 0.14 0.20 0.23 0.25 0.27 0.27 0.25 0.22 0.21 0.21 0.22 0.22 0.23 0.23 0.21 0.18 0.17 0.22 0.30 0.48 0.86 0.91 0.73 0.51 0.44 0.45 0.45 0.41 0.39 0.43 0.50 0.61 0.76 0.78 0.79 0.79
0.03 0.04 0.05 0.07 0.09 0.13 0.18 0.22 0.24 0.24 0.26 0.28 0.28 0.26 0.24 0.23 0.21 0.20 0.18 0.18 0.16 0.13 0.11 0.09 0.12 0.18 0.36 0.72 0.80 0.65 0.42 0.34 0.36 0.36 0.32 0.30 0.30 0.31 0.31 0.38 0.41 0.46 0.56
0.07 0.09 0.11 0.12 0.15 0.20 0.24 0.27 0.26 0.26 0.26 0.25 0.23 0.19 0.16 0.15 0.14 0.14 0.13 0.11 0.10 0.08 0.06 0.05 0.05 0.07 0.16 0.49 0.71 0.54 0.28 0.25 0.28 0.28 0.30 0.31 0.29 0.27 0.30 0.35 0.36 0.34 0.37
0.07 0.08 0.08 0.09 0.13 0.19 0.22 0.23 0.21 0.20 0.17 0.15 0.12 0.09 0.07 0.07 0.08 0.08 0.07 0.05 0.05 0.04 0.03 0.03 0.03 0.04 0.07 0.29 0.63 0.58 0.24 0.22 0.23 0.26 0.35 0.38 0.34 0.30 0.33 0.42 0.41 0.32 0.28
0.04 0.04 0.04 0.04 0.07 0.10 0.12 0.12 0.12 0.10 0.09 0.07 0.05 0.03 0.02 0.03 0.04 0.04 0.03 0.02 0.02 0.02 0.02 0.02 0.02 0.02 0.04 0.17 0.52 0.70 0.32 0.25 0.22 0.24 0.34 0.51 0.45 0.37 0.33 0.39 0.36 0.29 0.25
0.03 0.02 0.02 0.04 0.07 0.10 0.11 0.10 0.08 0.05 0.03 0.02 0.01 0.01 0.00 0.01 0.01 0.02 0.02 0.02 0.02 0.02 0.02 0.02 0.02 0.02 0.03 0.07 0.32 0.70 0.57 0.36 0.25 0.26 0.35 0.49 0.43 0.35 0.30 0.29 0.29 0.28 0.27
0.02 0.02 0.03 0.05 0.10 0.12 0.10 0.06 0.04 0.01 0.00 0.00 0.00 0.00 0.00 0.01 0.01 0.01 0.02 0.02 0.02 0.03 0.03 0.03 0.03 0.03 0.02 0.06 0.20 0.45 0.56 0.44 0.25 0.27 0.28 0.35 0.32 0.29 0.25 0.22 0.23 0.21 0.21
0.02 0.04 0.05 0.08 0.11 0.09 0.05 0.02 0.01 0.00 0.00 0.00 0.00 0.01 0.01 0.01 0.01 0.02 0.02 0.02 0.03 0.05 0.07 0.07 0.06 0.04 0.03 0.06 0.17 0.24 0.26 0.30 0.24 0.30 0.42 0.33 0.22 0.17 0.14 0.13 0.14 0.15 0.15
0.05 0.06 0.07 0.09 0.10 0.06 0.02 0.00 0.00 0.00 0.00 0.00 0.01 0.01 0.01 0.01 0.02 0.02 0.02 0.03 0.05 0.15 0.21 0.16 0.12 0.07 0.06 0.15 0.31 0.30 0.18 0.18 0.21 0.21 0.27 0.24 0.15 0.10 0.08 0.06 0.07 0.09 0.12
0.07 0.08 0.09 0.09 0.07 0.03 0.01 0.00 0.00 0.00 0.01 0.01 0.01 0.02 0.02 0.02 0.02 0.02 0.02 0.05 0.07 0.21 0.35 0.29 0.26 0.22 0.23 0.37 0.54 0.45 0.33 0.32 0.31 0.26 0.21 0.17 0.14 0.12 0.10 0.06 0.04 0.05 0.07
0.11 0.11 0.09 0.05 0.02 0.01 0.00 0.00 0.00 0.01 0.01 0.02 0.03 0.03 0.03 0.03 0.03 0.03 0.04 0.04 0.06 0.11 0.14 0.17 0.25 0.24 0.34 0.43 0.38 0.32 0.30 0.29 0.28 0.24 0.21 0.15 0.11 0.09 0.08 0.06 0.05 0.04 0.05

GEFSMW_prec_meanprecacc_102.txt.gz
Total_Precipitation_Accumulation
0.00 0.00 0.00 0.00 0.00 0.00 0.00 0.00 0.00 0.00 0.00 0.00 0.00 0.00 0.00 0.00 0.00 0.00 0.00 0.00 0.00 0.00 0.00 0.00 0.01 0.02 0.04 0.07 0.10 0.11 0.11 0.12 0.17 0.21 0.20 0.20 0.23 0.27 0.26 0.25 0.28 0.32 0.35
0.00 0.00 0.00 0.00 0.00 0.00 0.00 0.00 0.00 0.00 0.00 0.00 0.00 0.00 0.00 0.00 0.00 0.00 0.00 0.00 0.00 0.00 0.00 0.00 0.00 0.00 0.01 0.01 0.02 0.03 0.05 0.05 0.08 0.15 0.20 0.17 0.15 0.16 0.17 0.18 0.22 0.28 0.35
0.00 0.00 0.00 0.00 0.00 0.00 0.00 0.00 0.00 0.00 0.00 0.00 0.00 0.00 0.00 0.00 0.00 0.00 0.00 0.00 0.00 0.00 0.00 0.00 0.00 0.00 0.01 0.01 0.01 0.02 0.03 0.04 0.04 0.08 0.23 0.32 0.24 0.16 0.12 0.14 0.16 0.19 0.21
0.00 0.00 0.00 0.00 0.00 0.00 0.00 0.00 0.00 0.00 0.00 0.00 0.00 0.00 0.00 0.00 0.00 0.00 0.00 0.00 0.00 0.00 0.00 0.00 0.00 0.01 0.01 0.01 0.01 0.02 0.03 0.05 0.06 0.06 0.11 0.21 0.26 0.32 0.21 0.07 0.06 0.08 0.10
0.00 0.00 0.00 0.00 0.00 0.00 0.00 0.00 0.00 0.00 0.00 0.00 0.00 0.00 0.00 0.00 0.00 0.00 0.00 0.00 0.00 0.00 0.00 0.01 0.01 0.01 0.01 0.01 0.02 0.02 0.03 0.05 0.07 0.10 0.11 0.10 0.11 0.20 0.34 0.16 0.03 0.03 0.05
0.00 0.00 0.00 0.00 0.00 0.00 0.00 0.00 0.00 0.00 0.00 0.00 0.00 0.00 0.00 0.00 0.00 0.00 0.00 0.00 0.00 0.00 0.01 0.01 0.01 0.02 0.02 0.02 0.03 0.04 0.05 0.06 0.08 0.10 0.13 0.18 0.22 0.21 0.29 0.26 0.11 0.05 0.03
0.00 0.00 0.00 0.00 0.00 0.00 0.00 0.00 0.00 0.00 0.00 0.00 0.00 0.00 0.00 0.00 0.00 0.00 0.00 0.00 0.00 0.01 0.01 0.02 0.02 0.03 0.04 0.04 0.05 0.07 0.08 0.09 0.11 0.12 0.14 0.16 0.19 0.22 0.27 0.31 0.21 0.11 0.05
0.00 0.00 0.00 0.00 0.00 0.00 0.00 0.00 0.00 0.00 0.00 0.00 0.00 0.00 0.00 0.01 0.00 0.00 0.00 0.01 0.01 0.01 0.02 0.03 0.04 0.05 0.06 0.07 0.09 0.11 0.12 0.13 0.15 0.15 0.16 0.18 0.17 0.19 0.25 0.33 0.38 0.29 0.11
0.00 0.00 0.00 0.00 0.00 0.00 0.00 0.00 0.00 0.00 0.00 0.00 0.00 0.00 0.00 0.00 0.00 0.00 0.01 0.01 0.02 0.03 0.04 0.06 0.08 0.10 0.11 0.12 0.13 0.15 0.17 0.18 0.20 0.21 0.21 0.23 0.21 0.21 0.22 0.27 0.39 0.54 0.40
0.00 0.00 0.00 0.00 0.00 0.00 0.00 0.00 0.00 0.00 0.01 0.00 0.01 0.01 0.01 0.01 0.01 0.01 0.02 0.03 0.04 0.05 0.06 0.07 0.10 0.13 0.15 0.17 0.19 0.21 0.22 0.25 0.28 0.29 0.29 0.29 0.28 0.28 0.27 0.27 0.30 0.41 0.55
0.00 0.00 0.00 0.00 0.00 0.00 0.00 0.00 0.01 0.01 0.01 0.01 0.01 0.02 0.02 0.03 0.03 0.04 0.05 0.07 0.08 0.09 0.09 0.09 0.10 0.12 0.14 0.17 0.21 0.25 0.30 0.33 0.34 0.34 0.37 0.38 0.38 0.38 0.36 0.35 0.35 0.37 0.49
0.00 0.00 0.00 0.00 0.00 0.00 0.00 0.01 0.02 0.03 0.04 0.03 0.03 0.04 0.04 0.06 0.09 0.11 0.12 0.13 0.14 0.14 0.14 0.13 0.13 0.13 0.14 0.17 0.19 0.23 0.27 0.33 0.37 0.39 0.43 0.44 0.44 0.46 0.45 0.46 0.44 0.42 0.44
0.00 0.00 0.00 0.00 0.00 0.01 0.01 0.02 0.03 0.05 0.04 0.04 0.05 0.06 0.09 0.12 0.16 0.19 0.20 0.20 0.20 0.20 0.19 0.19 0.20 0.20 0.24 0.28 0.28 0.27 0.29 0.32 0.35 0.37 0.42 0.47 0.52 0.56 0.54 0.54 0.52 0.47 0.41
0.00 0.00 0.00 0.00 0.01 0.01 0.02 0.03 0.05 0.06 0.07 0.09 0.11 0.14 0.18 0.22 0.25 0.26 0.25 0.23 0.23 0.24 0.24 0.24 0.26 0.30 0.38 0.51 0.55 0.45 0.40 0.38 0.37 0.37 0.40 0.46 0.55 0.62 0.67 0.71 0.62 0.54 0.52
0.00 0.01 0.01 0.01 0.02 0.02 0.03 0.06 0.09 0.12 0.16 0.20 0.23 0.23 0.22 0.22 0.22 0.22 0.22 0.23 0.25 0.27 0.26 0.25 0.26 0.32 0.47 0.79 0.83 0.65 0.52 0.45 0.43 0.40 0.42 0.46 0.56 0.71 0.86 0.93 0.86 0.77 0.72
0.01 0.01 0.02 0.03 0.04 0.06 0.09 0.14 0.20 0.23 0.25 0.27 0.27 0.25 0.22 0.21 0.21 0.22 0.22 0.23 0.23 0.21 0.18 0.17 0.22 0.30 0.48 0.86 0.91 0.73 0.51 0.45 0.45 0.45 0.41 0.39 0.44 0.50 0.61 0.77 0.79 0.80 0.81
0.03 0.04 0.05 0.07 0.09 0.13 0.18 0.22 0.24 0.24 0.26 0.28 0.28 0.26 0.24 0.23 0.21 0.20 0.18 0.18 0.16 0.13 0.11 0.09 0.12 0.19 0.36 0.72 0.81 0.66 0.43 0.34 0.36 0.36 0.32 0.30 0.31 0.32 0.32 0.39 0.43 0.50 0.60
0.07 0.09 0.11 0.12 0.15 0.20 0.24 0.27 0.26 0.26 0.26 0.25 0.23 0.19 0.16 0.15 0.14 0.14 0.13 0.11 0.10 0.08 0.07 0.05 0.05 0.07 0.16 0.49 0.72 0.55 0.29 0.25 0.28 0.28 0.30 0.31 0.29 0.28 0.31 0.36 0.37 0.36 0.40
0.07 0.08 0.08 0.09 0.13 0.19 0.22 0.23 0.21 0.20 0.17 0.15 0.12 0.09 0.07 0.07 0.08 0.08 0.07 0.05 0.05 0.04 0.03 0.03 0.03 0.04 0.08 0.29 0.64 0.59 0.24 0.23 0.23 0.26 0.36 0.39 0.34 0.31 0.34 0.44 0.43 0.33 0.29
0.04 0.04 0.04 0.04 0.07 0.10 0.12 0.12 0.12 0.10 0.09 0.07 0.05 0.03 0.02 0.03 0.04 0.04 0.03 0.02 0.02 0.02 0.02 0.02 0.02 0.03 0.04 0.17 0.53 0.71 0.33 0.26 0.22 0.24 0.34 0.51 0.46 0.38 0.35 0.41 0.39 0.32 0.26
0.03 0.02 0.02 0.04 0.07 0.10 0.11 0.10 0.08 0.05 0.03 0.02 0.01 0.01 0.00 0.01 0.01 0.02 0.02 0.02 0.02 0.02 0.02 0.03 0.03 0.03 0.03 0.07 0.32 0.71 0.58 0.37 0.27 0.27 0.36 0.49 0.44 0.37 0.33 0.33 0.32 0.31 0.28
0.02 0.02 0.03 0.05 0.10 0.12 0.10 0.06 0.04 0.01 0.00 0.00 0.00 0.00 0.00 0.01 0.01 0.02 0.02 0.02 0.03 0.03 0.04 0.04 0.04 0.03 0.03 0.06 0.21 0.46 0.59 0.47 0.29 0.29 0.29 0.36 0.34 0.31 0.28 0.25 0.27 0.25 0.25
0.02 0.04 0.05 0.08 0.11 0.09 0.05 0.02 0.01 0.00 0.00 0.00 0.00 0.01 0.01 0.01 0.01 0.02 0.03 0.03 0.04 0.06 0.08 0.08 0.07 0.04 0.04 0.07 0.18 0.26 0.29 0.33 0.27 0.32 0.43 0.35 0.24 0.20 0.17 0.16 0.18 0.19 0.20
0.05 0.06 0.07 0.09 0.10 0.06 0.02 0.00 0.00 0.00 0.00 0.00 0.01 0.01 0.01 0.02 0.02 0.02 0.03 0.04 0.06 0.16 0.23 0.19 0.14 0.09 0.07 0.15 0.32 0.31 0.20 0.20 0.22 0.23 0.29 0.26 0.17 0.12 0.09 0.08 0.09 0.13 0.17
0.07 0.08 0.09 0.09 0.07 0.03 0.01 0.00 0.00 0.00 0.01 0.01 0.02 0.02 0.02 0.02 0.03 0.03 0.03 0.05 0.08 0.23 0.39 0.33 0.30 0.26 0.26 0.38 0.56 0.48 0.36 0.35 0.33 0.29 0.24 0.20 0.17 0.15 0.13 0.09 0.06 0.07 0.10
0.11 0.11 0.09 0.05 0.02 0.01 0.00 0.00 0.00 0.01 0.02 0.03 0.03 0.03 0.04 0.04 0.04 0.04 0.04 0.04 0.06 0.12 0.15 0.19 0.28 0.26 0.36 0.46 0.41 0.35 0.32 0.32 0.31 0.29 0.26 0.18 0.14 0.12 0.10 0.09 0.07 0.06 0.07

GEFSMW_prec_meanprecacc_108.txt.gz
Total_Precipitation_Accumulation
0.00 0.00 0.00 0.00 0.00 0.00 0.00 0.00 0.00 0.00 0.00 0.00 0.00 0.00 0.00 0.00 0.00 0.00 0.00 0.00 0.00 0.00 0.00 0.00 0.01 0.02 0.04 0.07 0.10 0.11 0.11 0.12 0.17 0.21 0.20 0.20 0.23 0.27 0.26 0.25 0.28 0.32 0.35
0.00 0.00 0.00 0.00 0.00 0.00 0.00 0.00 0.00 0.00 0.00 0.00 0.00 0.00 0.00 0.00 0.00 0.00 0.00 0.00 0.00 0.00 0.00 0.00 0.00 0.00 0.01 0.01 0.02 0.03 0.05 0.05 0.08 0.15 0.20 0.17 0.15 0.16 0.17 0.18 0.22 0.28 0.35
0.00 0.00 0.00 0.00 0.00 0.00 0.00 0.00 0.00 0.00 0.00 0.00 0.00 0.00 0.00 0.00 0.00 0.00 0.00 0.00 0.00 0.00 0.00 0.00 0.00 0.00 0.01 0.01 0.01 0.02 0.03 0.04 0.04 0.08 0.23 0.32 0.24 0.16 0.12 0.14 0.16 0.19 0.21
0.00 0.00 0.00 0.00 0.00 0.00 0.00 0.00 0.00 0.00 0.00 0.00 0.00 0.00 0.00 0.00 0.00 0.00 0.00 0.00 0.00 0.00 0.00 0.00 0.00 0.01 0.01 0.01 0.01 0.02 0.03 0.05 0.06 0.06 0.11 0.21 0.26 0.32 0.21 0.07 0.06 0.08 0.10
0.00 0.00 0.00 0.00 0.00 0.00 0.00 0.00 0.00 0.00 0.00 0.00 0.00 0.00 0.00 0.00 0.00 0.00 0.00 0.00 0.00 0.00 0.00 0.01 0.01 0.01 0.01 0.01 0.02 0.02 0.03 0.05 0.07 0.10 0.11 0.10 0.11 0.20 0.34 0.16 0.03 0.03 0.05
0.00 0.00 0.00 0.00 0.00 0.00 0.00 0.00 0.00 0.00 0.00 0.00 0.00 0.00 0.00 0.00 0.00 0.00 0.00 0.00 0.00 0.00 0.01 0.01 0.01 0.02 0.02 0.02 0.03 0.04 0.05 0.06 0.08 0.10 0.13 0.18 0.22 0.21 0.29 0.26 0.11 0.05 0.03
0.00 0.00 0.00 0.00 0.00 0.00 0.00 0.00 0.00 0.00 0.00 0.00 0.00 0.00 0.00 0.00 0.00 0.00 0.00 0.00 0.00 0.01 0.01 0.02 0.02 0.03 0.04 0.04 0.05 0.07 0.08 0.09 0.11 0.12 0.14 0.16 0.19 0.22 0.27 0.31 0.21 0.11 0.05
0.00 0.00 0.00 0.00 0.00 0.00 0.00 0.00 0.00 0.00 0.00 0.00 0.00 0.00 0.00 0.01 0.00 0.00 0.00 0.01 0.01 0.01 0.02 0.03 0.04 0.05 0.06 0.07 0.09 0.11 0.12 0.13 0.15 0.15 0.16 0.18 0.17 0.19 0.25 0.33 0.38 0.29 0.11
0.00 0.00 0.00 0.00 0.00 0.00 0.00 0.00 0.00 0.00 0.00 0.00 0.00 0.00 0.00 0.00 0.00 0.00 0.01 0.01 0.02 0.03 0.04 0.06 0.08 0.10 0.11 0.12 0.13 0.15 0.17 0.18 0.20 0.21 0.21 0.23 0.21 0.21 0.22 0.27 0.39 0.54 0.40
0.00 0.00 0.00 0.00 0.00 0.00 0.00 0.00 0.00 0.00 0.01 0.00 0.01 0.01 0.01 0.01 0.01 0.01 0.02 0.03 0.04 0.05 0.06 0.07 0.10 0.13 0.15 0.17 0.19 0.21 0.22 0.25 0.28 0.29 0.29 0.29 0.28 0.28 0.27 0.27 0.30 0.41 0.55
0.00 0.00 0.00 0.00 0.00 0.00 0.00 0.00 0.01 0.01 0.01 0.01 0.01 0.02 0.02 0.03 0.03 0.04 0.05 0.07 0.08 0.09 0.09 0.09 0.10 0.12 0.14 0.17 0.21 0.25 0.30 0.33 0.34 0.34 0.37 0.38 0.38 0.38 0.36 0.35 0.35 0.37 0.49
0.00 0.00 0.00 0.00 0.00 0.00 0.00 0.01 0.02 0.03 0.04 0.03 0.03 0.04 0.04 0.06 0.09 0.11 0.12 0.13 0.14 0.14 0.14 0.13 0.13 0.13 0.14 0.17 0.19 0.23 0.27 0.33 0.37 0.39 0.43 0.44 0.44 0.46 0.45 0.46 0.44 0.42 0.44
0.00 0.00 0.00 0.00 0.00 0.01 0.01 0.02 0.03 0.05 0.04 0.04 0.05 0.06 0.09 0.12 0.16 0.19 0.20 0.20 0.20 0.20 0.19 0.19 0.20 0.20 0.24 0.28 0.28 0.27 0.29 0.32 0.35 0.37 0.42 0.47 0.52 0.56 0.54 0.54 0.52 0.47 0.41
0.00 0.00 0.00 0.00 0.01 0.01 0.02 0.03 0.05 0.06 0.07 0.09 0.11 0.14 0.18 0.22 0.25 0.26 0.25 0.23 0.23 0.24 0.24 0.24 0.26 0.30 0.38 0.52 0.55 0.45 0.40 0.38 0.37 0.37 0.40 0.46 0.55 0.62 0.67 0.71 0.63 0.54 0.53
0.00 0.01 0.01 0.01 0.02 0.02 0.03 0.06 0.09 0.12 0.16 0.20 0.23 0.23 0.22 0.22 0.22 0.22 0.22 0.23 0.25 0.27 0.26 0.25 0.26 0.32 0.47 0.79 0.83 0.66 0.52 0.45 0.43 0.41 0.42 0.46 0.57 0.72 0.87 0.95 0.87 0.79 0.74
0.01 0.01 0.02 0.03 0.04 0.06 0.09 0.14 0.20 0.23 0.25 0.27 0.27 0.25 0.22 0.21 0.21 0.22 0.22 0.23 0.23 0.21 0.18 0.17 0.22 0.31 0.48 0.86 0.92 0.74 0.52 0.46 0.46 0.46 0.42 0.40 0.45 0.52 0.63 0.80 0.83 0.85 0.85
0.03 0.04 0.05 0.07 0.09 0.13 0.18 0.22 0.24 0.24 0.26 0.28 0.28 0.26 0.24 0.23 0.21 0.20 0.18 0.18 0.16 0.13 0.11 0.09 0.12 0.19 0.36 0.73 0.82 0.67 0.44 0.36 0.38 0.38 0.33 0.32 0.32 0.33 0.34 0.41 0.46 0.54 0.65
0.07 0.09 0.11 0.12 0.15 0.20 0.24 0.27 0.26 0.26 0.26 0.25 0.23 0.19 0.16 0.15 0.14 0.14 0.13 0.11 0.10 0.08 0.07 0.05 0.06 0.08 0.16 0.50 0.72 0.57 0.30 0.27 0.29 0.30 0.31 0.33 0.31 0.30 0.33 0.38 0.39 0.38 0.42
0.07 0.08 0.08 0.09 0.13 0.19 0.22 0.23 0.21 0.20 0.17 0.15 0.12 0.09 0.07 0.07 0.08 0.08 0.07 0.05 0.05 0.04 0.03 0.03 0.03 0.04 0.08 0.30 0.65 0.60 0.26 0.25 0.24 0.27 0.37 0.41 0.36 0.33 0.37 0.48 0.46 0.35 0.31
0.04 0.04 0.04 0.04 0.07 0.10 0.12 0.12 0.12 0.10 0.09 0.07 0.05 0.03 0.02 0.03 0.04 0.04 0.03 0.02 0.02 0.03 0.03 0.02 0.03 0.03 0.05 0.18 0.54 0.73 0.36 0.28 0.24 0.26 0.36 0.53 0.49 0.41 0.39 0.46 0.43 0.36 0.28
0.03 0.02 0.02 0.04 0.07 0.10 0.11 0.10 0.08 0.05 0.03 0.02 0.01 0.01 0.00 0.01 0.01 0.02 0.02 0.02 0.03 0.03 0.03 0.03 0.03 0.03 0.03 0.08 0.33 0.73 0.61 0.40 0.31 0.30 0.38 0.51 0.46 0.41 0.37 0.38 0.37 0.35 0.32
0.02 0.02 0.03 0.05 0.10 0.12 0.10 0.06 0.04 0.01 0.00 0.00 0.00 0.00 0.00 0.01 0.01 0.02 0.02 0.03 0.03 0.04 0.04 0.04 0.04 0.03 0.03 0.06 0.21 0.48 0.61 0.51 0.33 0.32 0.31 0.37 0.35 0.34 0.32 0.30 0.31 0.30 0.30
0.02 0.04 0.05 0.08 0.11 0.09 0.05 0.02 0.01 0.00 0.00 0.00 0.00 0.01 0.01 0.01 0.01 0.02 0.03 0.04 0.04 0.06 0.09 0.08 0.07 0.05 0.04 0.07 0.18 0.27 0.30 0.35 0.30 0.34 0.45 0.37 0.27 0.23 0.20 0.19 0.22 0.24 0.26
0.05 0.06 0.07 0.09 0.10 0.06 0.02 0.00 0.00 0.00 0.00 0.01 0.01 0.01 0.01 0.02 0.02 0.03 0.04 0.05 0.07 0.17 0.25 0.20 0.16 0.10 0.08 0.16 0.33 0.33 0.21 0.22 0.25 0.25 0.31 0.28 0.19 0.14 0.11 0.10 0.12 0.15 0.20
0.07 0.08 0.09 0.09 0.07 0.03 0.01 0.00 0.00 0.00 0.01 0.01 0.02 0.02 0.02 0.03 0.03 0.03 0.03 0.06 0.09 0.24 0.41 0.36 0.33 0.29 0.28 0.40 0.59 0.52 0.39 0.38 0.36 0.32 0.27 0.22 0.19 0.17 0.14 0.10 0.07 0.08 0.13
0.11 0.11 0.09 0.05 0.02 0.01 0.00 0.00 0.00 0.01 0.02 0.03 0.03 0.04 0.04 0.04 0.04 0.05 0.05 0.05 0.07 0.13 0.16 0.20 0.29 0.28 0.38 0.48 0.43 0.38 0.35 0.35 0.34 0.33 0.29 0.20 0.15 0.14 0.12 0.10 0.08 0.07 0.08

GEFSMW_prec_meanprecacc_114.txt.gz
Total_Precipitation_Accumulation
0.00 0.00 0.00 0.00 0.00 0.00 0.00 0.00 0.00 0.00 0.00 0.00 0.00 0.00 0.00 0.00 0.00 0.00 0.00 0.00 0.00 0.00 0.00 0.00 0.01 0.02 0.04 0.07 0.10 0.11 0.11 0.12 0.17 0.21 0.20 0.20 0.23 0.27 0.26 0.25 0.28 0.32 0.35
0.00 0.00 0.00 0.00 0.00 0.00 0.00 0.00 0.00 0.00 0.00 0.00 0.00 0.00 0.00 0.00 0.00 0.00 0.00 0.00 0.00 0.00 0.00 0.00 0.00 0.00 0.01 0.01 0.02 0.03 0.05 0.05 0.08 0.16 0.20 0.17 0.15 0.16 0.17 0.18 0.22 0.28 0.35
0.00 0.00 0.00 0.00 0.00 0.00 0.00 0.00 0.00 0.00 0.00 0.00 0.00 0.00 0.00 0.00 0.00 0.00 0.00 0.00 0.00 0.00 0.00 0.00 0.00 0.00 0.01 0.01 0.01 0.02 0.03 0.04 0.04 0.08 0.23 0.32 0.24 0.16 0.12 0.14 0.16 0.19 0.21
0.00 0.00 0.00 0.00 0.00 0.00 0.00 0.00 0.00 0.00 0.00 0.00 0.00 0.00 0.00 0.00 0.00 0.00 0.00 0.00 0.00 0.00 0.00 0.00 0.00 0.01 0.01 0.01 0.01 0.02 0.03 0.05 0.06 0.06 0.11 0.21 0.26 0.32 0.21 0.07 0.06 0.08 0.10
0.00 0.00 0.00 0.00 0.00 0.00 0.00 0.00 0.00 0.00 0.00 0.00 0.00 0.00 0.00 0.00 0.00 0.00 0.00 0.00 0.00 0.00 0.00 0.01 0.01 0.01 0.01 0.01 0.02 0.02 0.03 0.05 0.08 0.10 0.11 0.10 0.11 0.20 0.34 0.16 0.03 0.03 0.05
0.00 0.00 0.00 0.00 0.00 0.00 0.00 0.00 0.00 0.00 0.00 0.00 0.00 0.00 0.00 0.00 0.00 0.00 0.00 0.00 0.00 0.00 0.01 0.01 0.01 0.02 0.02 0.02 0.03 0.04 0.05 0.06 0.08 0.10 0.13 0.18 0.22 0.21 0.29 0.26 0.11 0.05 0.03
0.00 0.00 0.00 0.00 0.00 0.00 0.00 0.00 0.00 0.00 0.00 0.00 0.00 0.00 0.00 0.00 0.00 0.00 0.00 0.00 0.00 0.01 0.01 0.02 0.02 0.03 0.04 0.04 0.05 0.07 0.08 0.09 0.11 0.12 0.14 0.16 0.19 0.22 0.27 0.31 0.21 0.11 0.05
0.00 0.00 0.00 0.00 0.00 0.00 0.00 0.00 0.00 0.00 0.00 0.00 0.00 0.00 0.00 0.01 0.00 0.00 0.00 0.01 0.01 0.01 0.02 0.03 0.04 0.05 0.06 0.07 0.09 0.11 0.12 0.13 0.15 0.15 0.16 0.18 0.17 0.20 0.26 0.34 0.38 0.29 0.11
0.00 0.00 0.00 0.00 0.00 0.00 0.00 0.00 0.00 0.00 0.00 0.00 0.00 0.00 0.00 0.00 0.00 0.00 0.01 0.01 0.02 0.03 0.04 0.06 0.08 0.10 0.11 0.12 0.13 0.15 0.17 0.18 0.20 0.21 0.21 0.23 0.21 0.21 0.23 0.27 0.39 0.54 0.41
0.00 0.00 0.00 0.00 0.00 0.00 0.00 0.00 0.00 0.00 0.01 0.00 0.01 0.01 0.01 0.01 0.01 0.01 0.02 0.03 0.04 0.05 0.06 0.07 0.10 0.13 0.15 0.17 0.19 0.21 0.22 0.25 0.28 0.29 0.29 0.29 0.29 0.28 0.27 0.28 0.30 0.42 0.56
0.00 0.00 0.00 0.00 0.00 0.00 0.00 0.00 0.01 0.01 0.01 0.01 0.01 0.02 0.02 0.03 0.03 0.04 0.05 0.07 0.08 0.09 0.09 0.09 0.10 0.12 0.14 0.17 0.21 0.25 0.30 0.33 0.34 0.34 0.37 0.38 0.38 0.38 0.36 0.35 0.35 0.38 0.50
0.00 0.00 0.00 0.00 0.00 0.00 0.00 0.01 0.02 0.03 0.04 0.03 0.03 0.04 0.04 0.06 0.09 0.11 0.12 0.13 0.14 0.14 0.14 0.13 0.13 0.13 0.14 0.17 0.19 0.23 0.27 0.33 0.37 0.39 0.43 0.44 0.44 0.46 0.46 0.46 0.45 0.42 0.45
0.00 0.00 0.00 0.00 0.00 0.01 0.01 0.02 0.03 0.05 0.04 0.04 0.05 0.06 0.09 0.12 0.16 0.19 0.20 0.20 0.20 0.20 0.19 0.19 0.20 0.20 0.24 0.28 0.28 0.27 0.29 0.32 0.35 0.37 0.42 0.47 0.53 0.57 0.55 0.55 0.53 0.48 0.42
0.00 0.00 0.00 0.00 0.01 0.01 0.02 0.03 0.05 0.06 0.07 0.09 0.11 0.14 0.18 0.22 0.25 0.26 0.25 0.23 0.23 0.24 0.24 0.24 0.26 0.30 0.38 0.52 0.55 0.45 0.41 0.38 0.37 0.37 0.41 0.47 0.55 0.63 0.68 0.72 0.64 0.55 0.55
0.00 0.01 0.01 0.01 0.02 0.02 0.03 0.06 0.09 0.12 0.16 0.20 0.23 0.23 0.22 0.22 0.22 0.22 0.22 0.23 0.25 0.27 0.26 0.25 0.26 0.32 0.47 0.79 0.83 0.66 0.53 0.46 0.44 0.41 0.43 0.47 0.58 0.74 0.89 0.98 0.91 0.82 0.78
0.01 0.01 0.02 0.03 0.04 0.06 0.09 0.14 0.20 0.23 0.25 0.27 0.27 0.25 0.22 0.21 0.21 0.22 0.22 0.23 0.23 0.21 0.18 0.17 0.22 0.31 0.48 0.87 0.93 0.75 0.53 0.47 0.47 0.47 0.43 0.41 0.46 0.54 0.67 0.85 0.89 0.92 0.94
0.03 0.04 0.05 0.07 0.09 0.13 0.18 0.22 0.24 0.24 0.26 0.28 0.28 0.26 0.24 0.23 0.21 0.20 0.18 0.18 0.16 0.13 0.11 0.09 0.12 0.19 0.36 0.73 0.82 0.68 0.46 0.37 0.39 0.39 0.34 0.33 0.33 0.35 0.35 0.44 0.50 0.57 0.70
0.07 0.09 0.11 0.12 0.15 0.20 0.24 0.27 0.26 0.26 0.26 0.25 0.23 0.19 0.16 0.15 0.14 0.14 0.13 0.11 0.10 0.08 0.07 0.05 0.06 0.08 0.16 0.50 0.73 0.58 0.32 0.27 0.30 0.30 0.32 0.34 0.32 0.31 0.35 0.41 0.42 0.40 0.44
0.07 0.08 0.08 0.09 0.13 0.19 0.22 0.23 0.21 0.20 0.17 0.15 0.12 0.09 0.07 0.07 0.08 0.08 0.07 0.06 0.05 0.04 0.03 0.03 0.04 0.04 0.08 0.30 0.65 0.62 0.27 0.26 0.25 0.27 0.37 0.41 0.38 0.35 0.41 0.52 0.49 0.37 0.33
0.04 0.04 0.04 0.04 0.07 0.10 0.12 0.12 0.12 0.10 0.09 0.07 0.05 0.03 0.02 0.03 0.04 0.04 0.03 0.03 0.02 0.03 0.03 0.03 0.03 0.03 0.05 0.18 0.54 0.74 0.37 0.29 0.25 0.27 0.37 0.55 0.51 0.44 0.43 0.50 0.48 0.40 0.31
0.03 0.02 0.02 0.04 0.07 0.10 0.11 0.10 0.08 0.05 0.03 0.02 0.01 0.01 0.00 0.01 0.01 0.02 0.02 0.02 0.03 0.03 0.03 0.03 0.03 0.03 0.04 0.08 0.34 0.74 0.62 0.42 0.32 0.32 0.40 0.52 0.48 0.44 0.41 0.43 0.42 0.39 0.36
0.02 0.02 0.03 0.05 0.10 0.12 0.10 0.06 0.04 0.01 0.00 0.00 0.00 0.00 0.00 0.01 0.01 0.02 0.02 0.03 0.03 0.04 0.04 0.05 0.04 0.03 0.03 0.07 0.22 0.49 0.63 0.53 0.35 0.34 0.32 0.39 0.38 0.37 0.36 0.33 0.35 0.34 0.36
0.02 0.04 0.05 0.08 0.11 0.09 0.05 0.02 0.01 0.00 0.00 0.00 0.00 0.01 0.01 0.01 0.02 0.02 0.03 0.04 0.04 0.07 0.09 0.09 0.08 0.05 0.04 0.07 0.19 0.28 0.32 0.38 0.32 0.36 0.47 0.39 0.30 0.25 0.22 0.21 0.24 0.27 0.29
0.05 0.06 0.07 0.09 0.10 0.06 0.02 0.00 0.00 0.00 0.00 0.01 0.01 0.01 0.01 0.02 0.02 0.03 0.04 0.05 0.08 0.18 0.26 0.21 0.17 0.11 0.09 0.17 0.34 0.34 0.22 0.23 0.26 0.26 0.32 0.30 0.20 0.15 0.12 0.10 0.13 0.16 0.22
0.07 0.08 0.09 0.09 0.07 0.03 0.01 0.00 0.00 0.00 0.01 0.01 0.02 0.02 0.02 0.03 0.03 0.03 0.04 0.07 0.09 0.25 0.43 0.38 0.36 0.32 0.30 0.41 0.61 0.54 0.42 0.40 0.39 0.35 0.30 0.24 0.20 0.18 0.15 0.11 0.08 0.09 0.14
0.11 0.11 0.09 0.05 0.02 0.01 0.00 0.00 0.00 0.01 0.02 0.03 0.03 0.04 0.04 0.04 0.04 0.05 0.05 0.05 0.07 0.14 0.17 0.22 0.31 0.30 0.40 0.50 0.46 0.40 0.37 0.37 0.37 0.36 0.32 0.22 0.17 0.15 0.14 0.12 0.10 0.08 0.09

GEFSMW_prec_meanprecacc_120.txt.gz
Total_Precipitation_Accumulation
0.00 0.00 0.00 0.00 0.00 0.00 0.00 0.00 0.00 0.00 0.00 0.00 0.00 0.00 0.00 0.00 0.00 0.00 0.00 0.00 0.00 0.00 0.00 0.01 0.01 0.03 0.04 0.07 0.10 0.11 0.11 0.13 0.17 0.21 0.20 0.20 0.23 0.27 0.26 0.25 0.28 0.32 0.35
0.00 0.00 0.00 0.00 0.00 0.00 0.00 0.00 0.00 0.00 0.00 0.00 0.00 0.00 0.00 0.00 0.00 0.00 0.00 0.00 0.00 0.00 0.00 0.00 0.00 0.01 0.01 0.01 0.02 0.03 0.06 0.05 0.08 0.16 0.20 0.17 0.15 0.16 0.17 0.18 0.22 0.28 0.35
0.00 0.00 0.00 0.00 0.00 0.00 0.00 0.00 0.00 0.00 0.00 0.00 0.00 0.00 0.00 0.00 0.00 0.00 0.00 0.00 0.00 0.00 0.00 0.00 0.00 0.00 0.01 0.01 0.01 0.02 0.03 0.04 0.04 0.08 0.23 0.32 0.24 0.16 0.12 0.14 0.16 0.19 0.21
0.00 0.00 0.00 0.00 0.00 0.00 0.00 0.00 0.00 0.00 0.00 0.00 0.00 0.00 0.00 0.00 0.00 0.00 0.00 0.00 0.00 0.00 0.00 0.00 0.01 0.01 0.01 0.01 0.01 0.02 0.03 0.05 0.06 0.06 0.11 0.21 0.26 0.32 0.21 0.07 0.06 0.08 0.10
0.00 0.00 0.00 0.00 0.00 0.00 0.00 0.00 0.00 0.00 0.00 0.00 0.00 0.00 0.00 0.00 0.00 0.00 0.00 0.00 0.00 0.00 0.00 0.01 0.01 0.01 0.01 0.01 0.02 0.02 0.03 0.05 0.08 0.10 0.11 0.10 0.12 0.21 0.35 0.17 0.03 0.03 0.05
0.00 0.00 0.00 0.00 0.00 0.00 0.00 0.00 0.00 0.00 0.00 0.00 0.00 0.00 0.00 0.00 0.00 0.00 0.00 0.00 0.00 0.00 0.01 0.01 0.01 0.02 0.02 0.02 0.03 0.04 0.05 0.06 0.08 0.10 0.13 0.18 0.22 0.21 0.29 0.27 0.11 0.06 0.03
0.00 0.00 0.00 0.00 0.00 0.00 0.00 0.00 0.00 0.00 0.00 0.00 0.00 0.00 0.00 0.00 0.00 0.00 0.00 0.00 0.00 0.01 0.01 0.02 0.02 0.03 0.04 0.04 0.05 0.07 0.08 0.09 0.11 0.12 0.14 0.16 0.19 0.22 0.28 0.32 0.21 0.12 0.06
0.00 0.00 0.00 0.00 0.00 0.00 0.00 0.00 0.00 0.00 0.00 0.00 0.00 0.00 0.00 0.01 0.00 0.00 0.00 0.01 0.01 0.01 0.02 0.03 0.04 0.05 0.06 0.07 0.09 0.11 0.12 0.13 0.15 0.15 0.16 0.18 0.17 0.20 0.26 0.34 0.39 0.30 0.11
0.00 0.00 0.00 0.00 0.00 0.00 0.00 0.00 0.00 0.00 0.00 0.00 0.00 0.00 0.00 0.00 0.00 0.00 0.01 0.01 0.02 0.03 0.04 0.06 0.08 0.10 0.11 0.12 0.13 0.15 0.17 0.18 0.20 0.21 0.21 0.23 0.21 0.21 0.23 0.28 0.40 0.55 0.42
0.00 0.00 0.00 0.00 0.00 0.00 0.00 0.00 0.00 0.00 0.01 0.00 0.01 0.01 0.01 0.01 0.01 0.01 0.02 0.03 0.04 0.05 0.06 0.07 0.10 0.13 0.15 0.17 0.19 0.21 0.22 0.25 0.28 0.29 0.29 0.29 0.29 0.28 0.27 0.28 0.31 0.43 0.57
0.00 0.00 0.00 0.00 0.00 0.00 0.00 0.00 0.01 0.01 0.01 0.01 0.01 0.02 0.02 0.03 0.03 0.04 0.05 0.07 0.08 0.09 0.09 0.09 0.10 0.12 0.14 0.17 0.21 0.25 0.30 0.33 0.34 0.35 0.37 0.38 0.38 0.38 0.36 0.36 0.36 0.38 0.51
0.00 0.00 0.00 0.00 0.00 0.00 0.00 0.01 0.02 0.03 0.04 0.03 0.03 0.04 0.04 0.06 0.09 0.11 0.12 0.13 0.14 0.14 0.14 0.13 0.13 0.13 0.14 0.17 0.19 0.23 0.27 0.33 0.37 0.39 0.43 0.44 0.44 0.46 0.46 0.47 0.45 0.43 0.45
0.00 0.00 0.00 0.00 0.00 0.01 0.01 0.02 0.03 0.05 0.04 0.04 0.05 0.06 0.09 0.12 0.16 0.19 0.20 0.20 0.20 0.20 0.19 0.19 0.20 0.20 0.24 0.28 0.28 0.27 0.29 0.32 0.35 0.37 0.42 0.47 0.53 0.57 0.55 0.55 0.54 0.48 0.43
0.00 0.00 0.00 0.00 0.01 0.01 0.02 0.03 0.05 0.06 0.07 0.09 0.11 0.14 0.18 0.22 0.25 0.26 0.25 0.23 0.23 0.24 0.24 0.24 0.26 0.30 0.38 0.52 0.55 0.45 0.41 0.38 0.37 0.37 0.41 0.47 0.56 0.63 0.69 0.73 0.64 0.56 0.56
0.00 0.01 0.01 0.01 0.02 0.02 0.03 0.06 0.09 0.12 0.16 0.20 0.23 0.23 0.22 0.22 0.22 0.22 0.22 0.23 0.25 0.27 0.26 0.25 0.26 0.32 0.47 0.79 0.83 0.66 0.53 0.46 0.44 0.42 0.43 0.47 0.59 0.76 0.91 1.00 0.93 0.85 0.82
0.01 0.01 0.02 0.03 0.04 0.06 0.09 0.14 0.20 0.23 0.25 0.27 0.27 0.25 0.22 0.21 0.21 0.22 0.22 0.23 0.23 0.21 0.18 0.17 0.22 0.31 0.48 0.87 0.93 0.76 0.53 0.47 0.47 0.48 0.43 0.41 0.47 0.55 0.68 0.87 0.92 0.95 0.98
0.03 0.04 0.05 0.07 0.09 0.13 0.18 0.22 0.24 0.24 0.26 0.28 0.28 0.26 0.24 0.23 0.21 0.20 0.18 0.18 0.16 0.13 0.11 0.09 0.12 0.19 0.36 0.73 0.83 0.69 0.46 0.37 0.39 0.39 0.35 0.33 0.33 0.36 0.36 0.45 0.50 0.58 0.72
0.07 0.09 0.11 0.12 0.15 0.20 0.24 0.27 0.26 0.26 0.26 0.25 0.23 0.19 0.16 0.15 0.14 0.14 0.13 0.11 0.10 0.08 0.07 0.05 0.06 0.08 0.16 0.50 0.74 0.59 0.32 0.28 0.30 0.30 0.32 0.34 0.32 0.31 0.35 0.42 0.43 0.40 0.45
0.07 0.08 0.08 0.09 0.13 0.19 0.22 0.23 0.21 0.20 0.17 0.15 0.12 0.09 0.07 0.07 0.08 0.08 0.07 0.06 0.05 0.04 0.03 0.03 0.04 0.04 0.08 0.30 0.66 0.62 0.28 0.26 0.25 0.28 0.37 0.42 0.38 0.36 0.43 0.55 0.51 0.39 0.34
0.04 0.04 0.04 0.04 0.07 0.10 0.12 0.12 0.12 0.10 0.09 0.07 0.05 0.03 0.02 0.03 0.04 0.04 0.03 0.03 0.02 0.03 0.03 0.03 0.03 0.03 0.05 0.18 0.54 0.75 0.38 0.30 0.25 0.27 0.37 0.55 0.52 0.46 0.46 0.53 0.51 0.43 0.32
0.03 0.02 0.02 0.04 0.07 0.10 0.11 0.10 0.08 0.05 0.03 0.02 0.01 0.01 0.00 0.01 0.01 0.02 0.02 0.02 0.03 0.03 0.03 0.03 0.03 0.03 0.04 0.08 0.34 0.75 0.64 0.43 0.34 0.33 0.41 0.53 0.50 0.46 0.44 0.46 0.45 0.43 0.39
0.02 0.02 0.03 0.05 0.10 0.12 0.10 0.06 0.04 0.01 0.00 0.00 0.00 0.00 0.00 0.01 0.01 0.02 0.02 0.03 0.03 0.04 0.04 0.05 0.04 0.03 0.03 0.07 0.22 0.50 0.65 0.56 0.38 0.36 0.33 0.39 0.39 0.40 0.40 0.37 0.38 0.38 0.40
0.02 0.04 0.05 0.08 0.11 0.09 0.05 0.02 0.01 0.00 0.00 0.00 0.00 0.01 0.01 0.01 0.02 0.02 0.03 0.04 0.04 0.07 0.09 0.09 0.08 0.05 0.04 0.07 0.20 0.29 0.33 0.40 0.34 0.37 0.49 0.42 0.33 0.29 0.24 0.22 0.26 0.29 0.30
0.05 0.06 0.07 0.09 0.10 0.06 0.02 0.00 0.00 0.00 0.00 0.01 0.01 0.01 0.01 0.02 0.02 0.03 0.04 0.05 0.08 0.18 0.26 0.22 0.18 0.12 0.09 0.17 0.34 0.35 0.24 0.26 0.29 0.28 0.34 0.32 0.23 0.17 0.13 0.11 0.13 0.17 0.23
0.07 0.08 0.09 0.09 0.07 0.03 0.01 0.00 0.00 0.00 0.01 0.01 0.02 0.02 0.02 0.03 0.03 0.03 0.04 0.07 0.09 0.25 0.44 0.40 0.37 0.34 0.32 0.42 0.63 0.58 0.45 0.44 0.42 0.39 0.34 0.26 0.21 0.19 0.15 0.11 0.08 0.09 0.15
0.11 0.11 0.09 0.05 0.02 0.01 0.00 0.00 0.00 0.01 0.02 0.03 0.03 0.04 0.04 0.04 0.04 0.05 0.05 0.05 0.07 0.14 0.18 0.22 0.32 0.31 0.42 0.52 0.48 0.43 0.41 0.41 0.40 0.41 0.36 0.24 0.18 0.16 0.14 0.13 0.10 0.09 0.10

GEFSMW_prec_meanprecacc_126.txt.gz
Total_Precipitation_Accumulation
0.00 0.00 0.00 0.00 0.00 0.00 0.00 0.00 0.00 0.00 0.00 0.00 0.00 0.00 0.00 0.00 0.00 0.01 0.01 0.01 0.01 0.00 0.00 0.01 0.01 0.03 0.04 0.07 0.10 0.11 0.12 0.13 0.17 0.21 0.20 0.20 0.23 0.27 0.26 0.25 0.28 0.32 0.35
0.00 0.00 0.00 0.00 0.00 0.00 0.00 0.00 0.00 0.00 0.00 0.00 0.00 0.00 0.00 0.00 0.00 0.00 0.00 0.01 0.01 0.00 0.00 0.01 0.01 0.01 0.01 0.01 0.02 0.04 0.06 0.06 0.08 0.16 0.20 0.17 0.15 0.16 0.17 0.18 0.22 0.28 0.35
0.00 0.00 0.00 0.00 0.00 0.00 0.00 0.00 0.00 0.00 0.00 0.00 0.00 0.00 0.00 0.00 0.00 0.00 0.00 0.00 0.00 0.00 0.00 0.01 0.01 0.01 0.01 0.01 0.01 0.02 0.03 0.04 0.04 0.08 0.23 0.33 0.24 0.16 0.12 0.14 0.16 0.19 0.21
0.00 0.00 0.00 0.00 0.00 0.00 0.00 0.00 0.00 0.00 0.00 0.00 0.00 0.00 0.00 0.00 0.00 0.00 0.00 0.00 0.00 0.00 0.00 0.00 0.01 0.01 0.01 0.01 0.02 0.02 0.03 0.05 0.06 0.06 0.11 0.21 0.26 0.32 0.21 0.07 0.06 0.08 0.10
0.00 0.00 0.00 0.00 0.00 0.00 0.00 0.00 0.00 0.00 0.00 0.00 0.00 0.00 0.00 0.00 0.00 0.00 0.00 0.00 0.00 0.00 0.00 0.01 0.01 0.01 0.01 0.02 0.02 0.02 0.03 0.05 0.08 0.10 0.11 0.10 0.12 0.21 0.35 0.17 0.03 0.03 0.05
0.00 0.00 0.00 0.00 0.00 0.00 0.00 0.00 0.00 0.00 0.00 0.00 0.00 0.00 0.00 0.00 0.00 0.00 0.00 0.00 0.00 0.00 0.01 0.01 0.01 0.02 0.02 0.02 0.03 0.04 0.05 0.06 0.08 0.10 0.13 0.18 0.22 0.21 0.29 0.27 0.11 0.06 0.03
0.00 0.00 0.00 0.00 0.00 0.00 0.00 0.00 0.00 0.00 0.00 0.00 0.00 0.00 0.00 0.00 0.00 0.00 0.00 0.00 0.00 0.01 0.01 0.02 0.02 0.03 0.04 0.04 0.05 0.07 0.08 0.09 0.11 0.12 0.14 0.16 0.19 0.22 0.28 0.32 0.22 0.12 0.06
0.00 0.00 0.00 0.00 0.00 0.00 0.00 0.00 0.00 0.00 0.00 0.00 0.00 0.00 0.00 0.01 0.00 0.00 0.00 0.01 0.01 0.01 0.02 0.03 0.04 0.05 0.06 0.07 0.09 0.11 0.12 0.13 0.15 0.15 0.16 0.18 0.17 0.20 0.26 0.34 0.39 0.30 0.11
0.00 0.00 0.00 0.00 0.00 0.00 0.00 0.00 0.00 0.00 0.00 0.00 0.00 0.00 0.00 0.00 0.00 0.00 0.01 0.01 0.02 0.03 0.04 0.06 0.08 0.10 0.11 0.12 0.13 0.15 0.17 0.18 0.20 0.21 0.21 0.23 0.21 0.21 0.23 0.28 0.40 0.56 0.43
0.00 0.00 0.00 0.00 0.00 0.00 0.00 0.00 0.00 0.00 0.01 0.00 0.01 0.01 0.01 0.01 0.01 0.01 0.02 0.03 0.04 0.05 0.06 0.07 0.10 0.13 0.15 0.17 0.19 0.21 0.22 0.25 0.28 0.29 0.29 0.29 0.29 0.28 0.27 0.28 0.31 0.43 0.58
0.00 0.00 0.00 0.00 0.00 0.00 0.00 0.00 0.01 0.01 0.01 0.01 0.01 0.02 0.02 0.03 0.03 0.04 0.05 0.07 0.08 0.09 0.09 0.09 0.10 0.12 0.14 0.17 0.21 0.25 0.30 0.33 0.34 0.35 0.37 0.38 0.38 0.38 0.36 0.36 0.36 0.38 0.51
0.00 0.00 0.00 0.00 0.00 0.00 0.00 0.01 0.02 0.03 0.04 0.03 0.03 0.04 0.04 0.06 0.09 0.11 0.12 0.13 0.14 0.14 0.14 0.13 0.13 0.13 0.14 0.17 0.19 0.23 0.27 0.33 0.37 0.39 0.43 0.44 0.44 0.46 0.46 0.47 0.45 0.43 0.46
0.00 0.00 0.00 0.00 0.00 0.01 0.01 0.02 0.03 0.05 0.04 0.04 0.05 0.06 0.09 0.12 0.16 0.19 0.20 0.20 0.20 0.20 0.19 0.19 0.20 0.20 0.24 0.28 0.28 0.27 0.29 0.32 0.35 0.37 0.42 0.47 0.53 0.57 0.55 0.55 0.54 0.49 0.43
0.00 0.00 0.00 0.00 0.01 0.01 0.02 0.03 0.05 0.06 0.07 0.09 0.11 0.14 0.18 0.22 0.25 0.26 0.25 0.23 0.23 0.24 0.24 0.24 0.26 0.30 0.38 0.52 0.55 0.45 0.41 0.38 0.37 0.37 0.41 0.47 0.56 0.63 0.69 0.73 0.65 0.57 0.57
0.00 0.01 0.01 0.01 0.02 0.02 0.03 0.06 0.09 0.12 0.16 0.20 0.23 0.23 0.22 0.22 0.22 0.22 0.22 0.23 0.25 0.27 0.26 0.25 0.26 0.32 0.47 0.79 0.83 0.66 0.53 0.46 0.44 0.42 0.44 0.48 0.59 0.76 0.92 1.02 0.95 0.87 0.85
0.01 0.01 0.02 0.03 0.04 0.06 0.09 0.14 0.20 0.23 0.25 0.27 0.27 0.25 0.22 0.21 0.21 0.22 0.22 0.23 0.23 0.21 0.18 0.17 0.22 0.31 0.48 0.87 0.93 0.76 0.54 0.47 0.48 0.48 0.43 0.41 0.47 0.56 0.69 0.89 0.94 0.98 1.02
0.03 0.04 0.05 0.07 0.09 0.13 0.18 0.22 0.24 0.24 0.26 0.28 0.28 0.26 0.24 0.23 0.21 0.20 0.18 0.18 0.16 0.13 0.11 0.09 0.12 0.19 0.36 0.73 0.83 0.69 0.47 0.38 0.39 0.39 0.35 0.33 0.33 0.36 0.36 0.45 0.51 0.59 0.73
0.07 0.09 0.11 0.12 0.15 0.20 0.24 0.27 0.26 0.26 0.26 0.25 0.23 0.19 0.16 0.15 0.14 0.14 0.13 0.11 0.10 0.08 0.07 0.05 0.06 0.08 0.16 0.50 0.74 0.59 0.32 0.28 0.30 0.30 0.33 0.34 0.32 0.31 0.36 0.42 0.43 0.41 0.45
0.07 0.08 0.08 0.09 0.13 0.19 0.22 0.23 0.21 0.20 0.17 0.15 0.12 0.09 0.07 0.07 0.08 0.08 0.07 0.06 0.05 0.04 0.03 0.03 0.04 0.04 0.08 0.30 0.66 0.63 0.28 0.26 0.25 0.28 0.37 0.42 0.38 0.36 0.45 0.57 0.54 0.40 0.34
0.04 0.04 0.04 0.04 0.07 0.10 0.12 0.12 0.12 0.10 0.09 0.07 0.05 0.03 0.02 0.03 0.04 0.04 0.03 0.03 0.02 0.03 0.03 0.03 0.03 0.03 0.05 0.18 0.55 0.75 0.38 0.30 0.25 0.27 0.37 0.56 0.53 0.48 0.50 0.56 0.54 0.47 0.34
0.03 0.02 0.02 0.04 0.07 0.10 0.11 0.10 0.08 0.05 0.03 0.02 0.01 0.01 0.00 0.01 0.01 0.02 0.02 0.02 0.03 0.03 0.03 0.03 0.03 0.03 0.04 0.08 0.34 0.76 0.64 0.44 0.35 0.34 0.41 0.54 0.51 0.48 0.47 0.50 0.49 0.48 0.44
0.02 0.02 0.03 0.05 0.10 0.12 0.10 0.06 0.04 0.01 0.00 0.00 0.00 0.00 0.00 0.01 0.01 0.02 0.02 0.03 0.03 0.04 0.04 0.05 0.04 0.03 0.03 0.07 0.22 0.51 0.66 0.57 0.40 0.38 0.34 0.40 0.41 0.43 0.44 0.41 0.42 0.43 0.45
0.02 0.04 0.05 0.08 0.11 0.09 0.05 0.02 0.01 0.00 0.00 0.00 0.00 0.01 0.01 0.01 0.02 0.02 0.03 0.04 0.04 0.07 0.09 0.09 0.08 0.05 0.04 0.07 0.20 0.30 0.34 0.41 0.36 0.39 0.51 0.44 0.36 0.32 0.27 0.25 0.29 0.31 0.33
0.05 0.06 0.07 0.09 0.10 0.06 0.02 0.00 0.00 0.00 0.00 0.01 0.01 0.01 0.01 0.02 0.02 0.03 0.04 0.05 0.08 0.19 0.26 0.22 0.18 0.12 0.09 0.17 0.34 0.35 0.25 0.27 0.30 0.30 0.36 0.34 0.25 0.18 0.14 0.12 0.14 0.18 0.24
0.07 0.08 0.09 0.09 0.07 0.03 0.01 0.00 0.00 0.00 0.01 0.01 0.02 0.02 0.02 0.03 0.03 0.03 0.04 0.07 0.09 0.26 0.45 0.40 0.38 0.35 0.33 0.43 0.64 0.60 0.48 0.47 0.46 0.43 0.39 0.30 0.23 0.20 0.16 0.11 0.09 0.10 0.15
0.11 0.11 0.09 0.05 0.02 0.01 0.00 0.00 0.00 0.01 0.02 0.03 0.03 0.04 0.04 0.04 0.04 0.05 0.05 0.05 0.07 0.14 0.18 0.23 0.33 0.32 0.42 0.53 0.50 0.46 0.43 0.44 0.44 0.45 0.40 0.26 0.19 0.17 0.15 0.13 0.11 0.09 0.11

GEFSMW_prec_meanprecacc_132.txt.gz
Total_Precipitation_Accumulation
0.00 0.00 0.00 0.00 0.00 0.00 0.00 0.00 0.00 0.00 0.00 0.01 0.01 0.01 0.01 0.00 0.01 0.01 0.01 0.01 0.01 0.01 0.01 0.01 0.01 0.03 0.05 0.08 0.11 0.12 0.12 0.13 0.17 0.21 0.20 0.20 0.23 0.27 0.26 0.25 0.28 0.32 0.35
0.00 0.00 0.00 0.00 0.00 0.00 0.00 0.00 0.00 0.00 0.00 0.00 0.00 0.00 0.00 0.00 0.00 0.01 0.01 0.01 0.01 0.01 0.01 0.01 0.01 0.01 0.01 0.01 0.02 0.04 0.06 0.06 0.08 0.16 0.20 0.17 0.15 0.16 0.17 0.18 0.22 0.28 0.35
0.00 0.00 0.00 0.00 0.00 0.00 0.00 0.00 0.00 0.00 0.00 0.00 0.00 0.00 0.00 0.00 0.00 0.01 0.01 0.01 0.00 0.00 0.01 0.01 0.01 0.01 0.01 0.01 0.01 0.02 0.03 0.04 0.04 0.08 0.23 0.33 0.24 0.16 0.12 0.14 0.16 0.19 0.21
0.00 0.00 0.00 0.00 0.00 0.00 0.00 0.00 0.00 0.00 0.00 0.00 0.00 0.00 0.01 0.01 0.01 0.00 0.00 0.00 0.00 0.00 0.00 0.00 0.01 0.01 0.01 0.01 0.02 0.02 0.03 0.05 0.06 0.06 0.11 0.21 0.26 0.32 0.21 0.07 0.06 0.08 0.10
0.00 0.00 0.00 0.00 0.00 0.00 0.00 0.00 0.00 0.00 0.00 0.00 0.00 0.00 0.00 0.00 0.00 0.00 0.00 0.00 0.00 0.00 0.00 0.01 0.01 0.01 0.01 0.02 0.02 0.02 0.03 0.05 0.08 0.10 0.11 0.10 0.12 0.21 0.35 0.17 0.03 0.03 0.05
0.00 0.00 0.00 0.00 0.00 0.00 0.00 0.00 0.00 0.00 0.00 0.00 0.00 0.00 0.00 0.00 0.00 0.00 0.00 0.00 0.00 0.00 0.01 0.01 0.01 0.02 0.02 0.02 0.03 0.04 0.05 0.06 0.08 0.10 0.13 0.18 0.22 0.21 0.29 0.27 0.11 0.06 0.03
0.00 0.00 0.00 0.00 0.00 0.00 0.00 0.00 0.00 0.00 0.00 0.00 0.00 0.00 0.00 0.00 0.00 0.00 0.00 0.00 0.00 0.01 0.01 0.02 0.02 0.03 0.04 0.04 0.05 0.07 0.08 0.09 0.11 0.12 0.14 0.16 0.19 0.22 0.28 0.32 0.22 0.12 0.06
0.00 0.00 0.00 0.00 0.00 0.00 0.00 0.00 0.00 0.00 0.00 0.00 0.00 0.00 0.00 0.01 0.00 0.00 0.00 0.01 0.01 0.01 0.02 0.03 0.04 0.05 0.06 0.07 0.09 0.11 0.12 0.13 0.15 0.15 0.16 0.18 0.17 0.20 0.26 0.34 0.39 0.30 0.11
0.00 0.00 0.00 0.00 0.00 0.00 0.00 0.00 0.00 0.00 0.00 0.00 0.00 0.00 0.00 0.00 0.00 0.00 0.01 0.01 0.02 0.03 0.04 0.06 0.08 0.10 0.11 0.12 0.13 0.15 0.17 0.18 0.20 0.21 0.21 0.23 0.21 0.21 0.23 0.28 0.40 0.56 0.43
0.00 0.00 0.00 0.00 0.00 0.00 0.00 0.00 0.00 0.00 0.01 0.00 0.01 0.01 0.01 0.01 0.01 0.01 0.02 0.03 0.04 0.05 0.06 0.07 0.10 0.13 0.15 0.17 0.19 0.21 0.22 0.25 0.28 0.29 0.29 0.29 0.29 0.28 0.27 0.28 0.31 0.43 0.58
0.00 0.00 0.00 0.00 0.00 0.00 0.00 0.00 0.01 0.01 0.01 0.01 0.01 0.02 0.02 0.03 0.03 0.04 0.05 0.07 0.08 0.09 0.09 0.09 0.10 0.12 0.14 0.17 0.21 0.25 0.30 0.33 0.34 0.35 0.37 0.38 0.38 0.38 0.36 0.36 0.36 0.38 0.52
0.00 0.00 0.00 0.00 0.00 0.00 0.00 0.01 0.02 0.03 0.04 0.03 0.03 0.04 0.04 0.06 0.09 0.11 0.12 0.13 0.14 0.14 0.14 0.13 0.13 0.13 0.14 0.17 0.19 0.23 0.27 0.33 0.37 0.39 0.43 0.44 0.44 0.46 0.46 0.47 0.45 0.43 0.46
0.00 0.00 0.00 0.00 0.00 0.01 0.01 0.02 0.03 0.05 0.04 0.04 0.05 0.06 0.09 0.12 0.16 0.19 0.20 0.20 0.20 0.20 0.19 0.19 0.20 0.20 0.24 0.28 0.28 0.27 0.29 0.32 0.35 0.37 0.42 0.47 0.53 0.57 0.55 0.56 0.54 0.49 0.43
0.00 0.00 0.00 0.00 0.01 0.01 0.02 0.03 0.05 0.06 0.07 0.09 0.11 0.14 0.18 0.22 0.25 0.26 0.25 0.23 0.23 0.24 0.24 0.24 0.26 0.30 0.38 0.52 0.55 0.45 0.41 0.38 0.37 0.37 0.41 0.47 0.56 0.64 0.69 0.74 0.65 0.57 0.58
0.00 0.01 0.01 0.01 0.02 0.02 0.03 0.06 0.09 0.12 0.16 0.20 0.23 0.23 0.22 0.22 0.22 0.22 0.22 0.23 0.25 0.27 0.26 0.25 0.26 0.32 0.47 0.79 0.83 0.66 0.53 0.46 0.44 0.42 0.44 0.48 0.60 0.77 0.93 1.03 0.96 0.89 0.88
0.01 0.01 0.02 0.03 0.04 0.06 0.09 0.14 0.20 0.23 0.25 0.27 0.27 0.25 0.22 0.21 0.21 0.22 0.22 0.23 0.23 0.21 0.18 0.17 0.22 0.31 0.48 0.87 0.93 0.76 0.54 0.48 0.48 0.48 0.43 0.41 0.47 0.56 0.70 0.90 0.96 1.00 1.05
0.03 0.04 0.05 0.07 0.09 0.13 0.18 0.22 0.24 0.24 0.26 0.28 0.28 0.26 0.24 0.23 0.21 0.20 0.18 0.18 0.16 0.13 0.11 0.09 0.12 0.19 0.36 0.73 0.83 0.69 0.47 0.38 0.39 0.39 0.35 0.33 0.33 0.36 0.36 0.45 0.52 0.60 0.74
0.07 0.09 0.11 0.12 0.15 0.20 0.24 0.27 0.26 0.26 0.26 0.25 0.23 0.19 0.16 0.15 0.14 0.14 0.13 0.11 0.10 0.08 0.07 0.05 0.06 0.08 0.16 0.50 0.74 0.59 0.33 0.28 0.30 0.31 0.33 0.34 0.32 0.31 0.36 0.43 0.44 0.42 0.46
0.07 0.08 0.08 0.09 0.13 0.19 0.22 0.23 0.21 0.20 0.17 0.15 0.12 0.09 0.07 0.07 0.08 0.08 0.07 0.06 0.05 0.04 0.03 0.03 0.04 0.04 0.08 0.30 0.66 0.63 0.28 0.26 0.25 0.28 0.38 0.42 0.39 0.37 0.46 0.59 0.56 0.42 0.35
0.04 0.04 0.04 0.04 0.07 0.10 0.12 0.12 0.12 0.10 0.09 0.07 0.05 0.03 0.02 0.03 0.04 0.04 0.03 0.03 0.02 0.03 0.03 0.03 0.03 0.03 0.05 0.18 0.55 0.75 0.38 0.30 0.25 0.27 0.37 0.56 0.54 0.50 0.52 0.59 0.58 0.51 0.36
0.03 0.02 0.02 0.04 0.07 0.10 0.11 0.10 0.08 0.05 0.03 0.02 0.01 0.01 0.00 0.01 0.01 0.02 0.02 0.02 0.03 0.03 0.03 0.03 0.03 0.03 0.04 0.08 0.34 0.76 0.65 0.44 0.36 0.35 0.42 0.54 0.52 0.50 0.50 0.54 0.53 0.52 0.48
0.02 0.02 0.03 0.05 0.10 0.12 0.10 0.06 0.04 0.01 0.00 0.00 0.00 0.00 0.00 0.01 0.01 0.02 0.02 0.03 0.03 0.04 0.04 0.05 0.04 0.03 0.03 0.07 0.22 0.51 0.67 0.58 0.42 0.39 0.35 0.41 0.42 0.45 0.47 0.45 0.46 0.47 0.49
0.02 0.04 0.05 0.08 0.11 0.09 0.05 0.02 0.01 0.00 0.00 0.00 0.00 0.01 0.01 0.01 0.02 0.02 0.03 0.04 0.04 0.07 0.09 0.09 0.08 0.05 0.04 0.07 0.20 0.30 0.35 0.42 0.37 0.40 0.52 0.45 0.38 0.35 0.29 0.26 0.30 0.33 0.34
0.05 0.06 0.07 0.09 0.10 0.06 0.02 0.00 0.00 0.00 0.00 0.01 0.01 0.01 0.01 0.02 0.02 0.03 0.04 0.05 0.08 0.19 0.26 0.22 0.18 0.12 0.10 0.17 0.34 0.35 0.26 0.28 0.32 0.31 0.37 0.36 0.27 0.20 0.15 0.13 0.15 0.18 0.24
0.07 0.08 0.09 0.09 0.07 0.03 0.01 0.00 0.00 0.00 0.01 0.01 0.02 0.02 0.02 0.03 0.03 0.03 0.04 0.07 0.09 0.26 0.45 0.40 0.38 0.36 0.34 0.43 0.65 0.62 0.51 0.50 0.50 0.47 0.44 0.34 0.26 0.22 0.17 0.12 0.10 0.10 0.16
0.11 0.11 0.09 0.05 0.02 0.01 0.00 0.00 0.00 0.01 0.02 0.03 0.03 0.04 0.04 0.04 0.04 0.05 0.05 0.05 0.07 0.14 0.18 0.23 0.33 0.32 0.43 0.54 0.52 0.47 0.46 0.46 0.47 0.50 0.46 0.30 0.21 0.19 0.16 0.14 0.12 0.10 0.11

GEFSMW_prec_meanprecacc_138.txt.gz
Total_Precipitation_Accumulation
0.00 0.00 0.00 0.00 0.00 0.00 0.00 0.00 0.00 0.00 0.00 0.01 0.01 0.01 0.01 0.01 0.01 0.01 0.01 0.01 0.01 0.01 0.01 0.01 0.02 0.03 0.05 0.08 0.11 0.12 0.12 0.13 0.17 0.22 0.20 0.20 0.23 0.27 0.26 0.25 0.28 0.32 0.35
0.00 0.00 0.00 0.00 0.00 0.00 0.00 0.00 0.00 0.00 0.00 0.00 0.01 0.01 0.01 0.01 0.01 0.01 0.01 0.01 0.01 0.01 0.01 0.01 0.01 0.01 0.02 0.02 0.02 0.04 0.06 0.06 0.08 0.16 0.20 0.17 0.15 0.16 0.17 0.18 0.22 0.28 0.35
0.00 0.00 0.00 0.00 0.00 0.00 0.00 0.00 0.00 0.00 0.00 0.00 0.00 0.00 0.00 0.00 0.01 0.01 0.01 0.01 0.00 0.00 0.01 0.01 0.01 0.01 0.01 0.01 0.01 0.02 0.03 0.04 0.04 0.08 0.23 0.33 0.24 0.16 0.12 0.14 0.16 0.19 0.21
0.00 0.00 0.00 0.00 0.00 0.00 0.00 0.00 0.00 0.00 0.00 0.00 0.00 0.00 0.01 0.01 0.01 0.01 0.00 0.00 0.00 0.00 0.00 0.00 0.01 0.01 0.01 0.01 0.02 0.02 0.03 0.05 0.06 0.06 0.11 0.21 0.26 0.32 0.21 0.07 0.06 0.08 0.10
0.00 0.00 0.00 0.00 0.00 0.00 0.00 0.00 0.00 0.00 0.00 0.00 0.00 0.00 0.01 0.00 0.00 0.00 0.00 0.00 0.00 0.00 0.00 0.01 0.01 0.01 0.01 0.02 0.02 0.02 0.03 0.05 0.08 0.10 0.11 0.10 0.12 0.21 0.35 0.17 0.03 0.03 0.05
0.00 0.00 0.00 0.00 0.00 0.00 0.00 0.00 0.00 0.00 0.00 0.00 0.00 0.00 0.00 0.00 0.00 0.00 0.00 0.00 0.00 0.00 0.01 0.01 0.01 0.02 0.02 0.02 0.03 0.04 0.05 0.06 0.08 0.11 0.13 0.18 0.22 0.21 0.29 0.27 0.11 0.06 0.03
0.00 0.00 0.00 0.00 0.00 0.00 0.00 0.00 0.00 0.00 0.00 0.00 0.00 0.00 0.00 0.00 0.00 0.00 0.00 0.00 0.00 0.01 0.01 0.02 0.02 0.03 0.04 0.04 0.05 0.07 0.08 0.09 0.11 0.12 0.14 0.16 0.19 0.22 0.28 0.32 0.22 0.12 0.06
0.00 0.00 0.00 0.00 0.00 0.00 0.00 0.00 0.00 0.00 0.00 0.00 0.00 0.00 0.01 0.01 0.00 0.00 0.00 0.01 0.01 0.01 0.02 0.03 0.04 0.05 0.06 0.07 0.09 0.11 0.12 0.13 0.15 0.15 0.16 0.18 0.17 0.20 0.26 0.34 0.39 0.30 0.11
0.00 0.00 0.00 0.00 0.00 0.00 0.00 0.00 0.00 0.00 0.00 0.00 0.00 0.00 0.00 0.00 0.00 0.00 0.01 0.01 0.02 0.03 0.04 0.06 0.08 0.10 0.11 0.12 0.13 0.15 0.17 0.18 0.20 0.21 0.21 0.23 0.21 0.21 0.23 0.28 0.40 0.56 0.43
0.00 0.00 0.00 0.00 0.00 0.00 0.00 0.00 0.00 0.00 0.01 0.00 0.01 0.01 0.01 0.01 0.01 0.01 0.02 0.03 0.04 0.05 0.06 0.07 0.10 0.13 0.15 0.17 0.19 0.21 0.22 0.25 0.28 0.29 0.29 0.29 0.29 0.28 0.27 0.28 0.31 0.43 0.58
0.00 0.00 0.00 0.00 0.00 0.00 0.00 0.00 0.01 0.01 0.01 0.01 0.01 0.02 0.02 0.03 0.03 0.04 0.05 0.07 0.08 0.09 0.09 0.09 0.10 0.12 0.14 0.17 0.21 0.25 0.30 0.33 0.34 0.35 0.37 0.38 0.38 0.38 0.36 0.36 0.36 0.38 0.52
0.00 0.00 0.00 0.00 0.00 0.00 0.00 0.01 0.02 0.03 0.04 0.03 0.03 0.04 0.04 0.06 0.09 0.11 0.12 0.13 0.14 0.14 0.14 0.13 0.13 0.13 0.14 0.17 0.19 0.23 0.27 0.33 0.37 0.39 0.43 0.44 0.44 0.46 0.46 0.47 0.45 0.43 0.46
0.00 0.00 0.00 0.00 0.00 0.01 0.01 0.02 0.03 0.05 0.04 0.04 0.05 0.06 0.09 0.12 0.16 0.19 0.20 0.20 0.20 0.20 0.19 0.19 0.20 0.20 0.24 0.28 0.28 0.27 0.29 0.32 0.35 0.37 0.42 0.47 0.53 0.57 0.55 0.56 0.54 0.49 0.43
0.00 0.00 0.00 0.00 0.01 0.01 0.02 0.03 0.05 0.06 0.07 0.09 0.11 0.14 0.18 0.22 0.25 0.26 0.25 0.24 0.23 0.24 0.24 0.24 0.26 0.30 0.38 0.52 0.55 0.45 0.41 0.38 0.37 0.37 0.41 0.47 0.56 0.64 0.70 0.74 0.65 0.57 0.58
0.00 0.01 0.01 0.01 0.02 0.02 0.03 0.06 0.09 0.12 0.16 0.20 0.23 0.23 0.22 0.22 0.22 0.22 0.22 0.23 0.25 0.27 0.26 0.25 0.26 0.32 0.47 0.79 0.83 0.66 0.53 0.46 0.44 0.42 0.44 0.48 0.60 0.77 0.93 1.04 0.97 0.90 0.90
0.01 0.01 0.02 0.03 0.04 0.06 0.09 0.14 0.20 0.23 0.25 0.27 0.27 0.25 0.22 0.21 0.21 0.22 0.22 0.23 0.23 0.21 0.18 0.17 0.22 0.31 0.48 0.87 0.93 0.76 0.54 0.48 0.48 0.48 0.44 0.42 0.47 0.56 0.70 0.91 0.97 1.02 1.08
0.03 0.04 0.05 0.07 0.09 0.13 0.18 0.22 0.24 0.24 0.26 0.28 0.28 0.26 0.24 0.23 0.21 0.20 0.18 0.18 0.16 0.13 0.11 0.09 0.12 0.19 0.36 0.73 0.83 0.70 0.47 0.38 0.39 0.39 0.35 0.33 0.33 0.36 0.37 0.46 0.52 0.61 0.75
0.07 0.09 0.11 0.12 0.15 0.20 0.24 0.27 0.26 0.26 0.26 0.25 0.23 0.19 0.16 0.15 0.14 0.14 0.13 0.11 0.10 0.08 0.07 0.05 0.06 0.08 0.16 0.50 0.74 0.59 0.33 0.28 0.30 0.31 0.33 0.34 0.32 0.31 0.36 0.43 0.45 0.42 0.46
0.07 0.08 0.08 0.09 0.13 0.19 0.22 0.23 0.21 0.20 0.17 0.15 0.12 0.09 0.07 0.07 0.08 0.08 0.07 0.06 0.05 0.04 0.03 0.03 0.04 0.04 0.08 0.30 0.66 0.63 0.28 0.26 0.25 0.28 0.38 0.42 0.39 0.37 0.47 0.60 0.58 0.44 0.36
0.04 0.04 0.04 0.04 0.07 0.10 0.12 0.12 0.12 0.10 0.09 0.07 0.05 0.03 0.02 0.03 0.04 0.04 0.03 0.03 0.02 0.03 0.03 0.03 0.03 0.03 0.05 0.18 0.55 0.75 0.38 0.30 0.25 0.27 0.38 0.56 0.54 0.51 0.54 0.61 0.60 0.54 0.38
0.03 0.02 0.02 0.04 0.07 0.10 0.11 0.10 0.08 0.05 0.03 0.02 0.01 0.01 0.00 0.01 0.01 0.02 0.02 0.02 0.03 0.03 0.03 0.03 0.03 0.03 0.04 0.08 0.34 0.76 0.65 0.45 0.37 0.36 0.43 0.55 0.53 0.51 0.51 0.56 0.56 0.55 0.51
0.02 0.02 0.03 0.05 0.10 0.12 0.10 0.06 0.04 0.01 0.00 0.00 0.00 0.00 0.00 0.01 0.01 0.02 0.02 0.03 0.03 0.04 0.04 0.05 0.04 0.03 0.03 0.07 0.22 0.51 0.67 0.59 0.42 0.40 0.35 0.41 0.43 0.47 0.49 0.48 0.49 0.50 0.54
0.02 0.04 0.05 0.08 0.11 0.09 0.05 0.02 0.01 0.00 0.00 0.00 0.00 0.01 0.01 0.01 0.02 0.02 0.03 0.04 0.04 0.07 0.09 0.09 0.08 0.05 0.04 0.07 0.20 0.30 0.35 0.42 0.38 0.41 0.53 0.47 0.39 0.37 0.31 0.28 0.33 0.36 0.37
0.05 0.06 0.07 0.09 0.10 0.06 0.02 0.00 0.00 0.00 0.00 0.01 0.01 0.01 0.01 0.02 0.02 0.03 0.04 0.05 0.08 0.19 0.26 0.22 0.18 0.12 0.10 0.17 0.35 0.36 0.26 0.29 0.33 0.32 0.39 0.38 0.28 0.21 0.16 0.14 0.16 0.19 0.25
0.07 0.08 0.09 0.09 0.07 0.03 0.01 0.00 0.00 0.00 0.01 0.01 0.02 0.02 0.02 0.03 0.03 0.03 0.04 0.07 0.09 0.26 0.45 0.41 0.39 0.36 0.34 0.43 0.66 0.63 0.52 0.52 0.52 0.50 0.47 0.37 0.28 0.23 0.18 0.14 0.11 0.12 0.17
0.11 0.11 0.09 0.05 0.02 0.01 0.00 0.00 0.00 0.01 0.02 0.03 0.03 0.04 0.04 0.04 0.04 0.05 0.05 0.05 0.07 0.14 0.18 0.23 0.34 0.33 0.43 0.55 0.52 0.49 0.47 0.48 0.49 0.53 0.49 0.33 0.24 0.21 0.19 0.17 0.14 0.12 0.13

GEFSMW_prec_meanprecacc_144.txt.gz
Total_Precipitation_Accumulation
0.00 0.00 0.00 0.00 0.00 0.00 0.00 0.00 0.00 0.00 0.00 0.01 0.01 0.01 0.01 0.01 0.01 0.01 0.01 0.01 0.01 0.01 0.01 0.01 0.02 0.03 0.05 0.08 0.11 0.12 0.13 0.13 0.17 0.22 0.20 0.20 0.23 0.27 0.26 0.25 0.28 0.32 0.35
0.00 0.00 0.00 0.00 0.00 0.00 0.00 0.00 0.00 0.00 0.00 0.00 0.01 0.01 0.01 0.01 0.01 0.01 0.01 0.01 0.01 0.01 0.01 0.01 0.02 0.02 0.02 0.02 0.02 0.04 0.06 0.06 0.08 0.16 0.20 0.17 0.15 0.16 0.17 0.18 0.22 0.28 0.35
0.00 0.00 0.00 0.00 0.00 0.00 0.00 0.00 0.00 0.00 0.00 0.00 0.00 0.00 0.00 0.01 0.01 0.01 0.01 0.01 0.00 0.01 0.01 0.01 0.01 0.01 0.01 0.01 0.01 0.02 0.03 0.04 0.04 0.08 0.24 0.33 0.24 0.16 0.12 0.14 0.16 0.19 0.21
0.00 0.00 0.00 0.00 0.00 0.00 0.00 0.00 0.00 0.00 0.00 0.00 0.00 0.01 0.01 0.01 0.01 0.01 0.00 0.00 0.00 0.00 0.00 0.01 0.01 0.01 0.01 0.01 0.02 0.02 0.03 0.05 0.06 0.06 0.11 0.21 0.26 0.32 0.21 0.07 0.06 0.08 0.10
0.00 0.00 0.00 0.00 0.00 0.00 0.00 0.00 0.00 0.00 0.00 0.00 0.00 0.00 0.01 0.00 0.00 0.00 0.00 0.00 0.00 0.00 0.01 0.01 0.01 0.01 0.01 0.02 0.02 0.02 0.03 0.05 0.08 0.10 0.11 0.10 0.12 0.21 0.35 0.17 0.03 0.03 0.05
0.00 0.00 0.00 0.00 0.00 0.00 0.00 0.00 0.00 0.00 0.00 0.00 0.00 0.00 0.00 0.00 0.00 0.00 0.00 0.00 0.00 0.00 0.01 0.01 0.01 0.02 0.02 0.02 0.03 0.04 0.05 0.06 0.08 0.11 0.13 0.18 0.22 0.21 0.29 0.27 0.11 0.06 0.03
0.00 0.00 0.00 0.00 0.00 0.00 0.00 0.00 0.00 0.00 0.00 0.00 0.00 0.00 0.00 0.01 0.00 0.00 0.00 0.00 0.00 0.01 0.01 0.02 0.03 0.03 0.04 0.05 0.05 0.07 0.08 0.09 0.11 0.12 0.14 0.16 0.19 0.22 0.28 0.32 0.22 0.12 0.06
0.00 0.00 0.00 0.00 0.00 0.00 0.00 0.00 0.00 0.00 0.00 0.00 0.00 0.00 0.01 0.01 0.00 0.00 0.00 0.01 0.01 0.01 0.02 0.03 0.04 0.05 0.06 0.07 0.09 0.11 0.12 0.13 0.15 0.15 0.16 0.18 0.17 0.20 0.26 0.34 0.39 0.30 0.11
0.00 0.00 0.00 0.00 0.00 0.00 0.00 0.00 0.00 0.00 0.00 0.00 0.00 0.00 0.01 0.01 0.00 0.00 0.01 0.01 0.02 0.03 0.04 0.06 0.09 0.10 0.11 0.12 0.13 0.15 0.17 0.19 0.20 0.21 0.21 0.23 0.21 0.21 0.23 0.28 0.40 0.56 0.43
0.00 0.00 0.00 0.00 0.00 0.00 0.00 0.00 0.00 0.00 0.01 0.00 0.01 0.01 0.01 0.01 0.01 0.01 0.02 0.03 0.04 0.05 0.06 0.08 0.10 0.13 0.15 0.17 0.19 0.21 0.22 0.25 0.28 0.29 0.29 0.29 0.29 0.28 0.27 0.28 0.31 0.43 0.58
0.00 0.00 0.00 0.00 0.00 0.00 0.00 0.00 0.01 0.01 0.01 0.01 0.01 0.02 0.02 0.03 0.03 0.05 0.06 0.07 0.08 0.09 0.09 0.09 0.10 0.12 0.14 0.17 0.22 0.25 0.30 0.33 0.34 0.35 0.37 0.38 0.38 0.38 0.36 0.36 0.36 0.38 0.52
0.00 0.00 0.00 0.00 0.00 0.00 0.00 0.01 0.02 0.03 0.04 0.03 0.03 0.04 0.05 0.06 0.09 0.11 0.12 0.13 0.14 0.14 0.14 0.13 0.13 0.13 0.14 0.17 0.19 0.23 0.27 0.34 0.37 0.39 0.43 0.44 0.44 0.46 0.46 0.47 0.45 0.43 0.46
0.00 0.00 0.00 0.00 0.00 0.01 0.01 0.02 0.03 0.05 0.04 0.04 0.05 0.06 0.09 0.12 0.16 0.19 0.20 0.20 0.20 0.20 0.19 0.19 0.20 0.21 0.24 0.28 0.29 0.27 0.29 0.33 0.35 0.37 0.42 0.47 0.53 0.57 0.55 0.56 0.54 0.49 0.43
0.00 0.00 0.00 0.00 0.01 0.01 0.02 0.03 0.05 0.06 0.07 0.09 0.11 0.14 0.18 0.22 0.25 0.26 0.25 0.24 0.23 0.24 0.24 0.24 0.26 0.30 0.38 0.52 0.56 0.45 0.41 0.38 0.37 0.37 0.41 0.47 0.56 0.64 0.70 0.74 0.65 0.58 0.58
0.00 0.01 0.01 0.01 0.02 0.02 0.03 0.06 0.09 0.12 0.16 0.20 0.23 0.23 0.22 0.22 0.22 0.22 0.22 0.23 0.25 0.27 0.26 0.25 0.27 0.32 0.47 0.79 0.83 0.66 0.53 0.46 0.44 0.42 0.44 0.48 0.60 0.77 0.94 1.04 0.98 0.91 0.91
0.01 0.01 0.02 0.03 0.04 0.06 0.09 0.14 0.20 0.23 0.25 0.27 0.27 0.25 0.22 0.21 0.21 0.22 0.22 0.23 0.23 0.21 0.18 0.17 0.22 0.31 0.48 0.87 0.93 0.76 0.54 0.48 0.48 0.48 0.44 0.42 0.48 0.56 0.70 0.91 0.97 1.02 1.09
0.03 0.04 0.05 0.07 0.09 0.13 0.18 0.22 0.24 0.24 0.26 0.28 0.28 0.26 0.24 0.23 0.21 0.20 0.18 0.18 0.16 0.13 0.11 0.09 0.12 0.19 0.36 0.73 0.83 0.70 0.47 0.38 0.39 0.40 0.35 0.34 0.33 0.36 0.37 0.46 0.52 0.61 0.75
0.07 0.09 0.11 0.12 0.15 0.20 0.24 0.27 0.26 0.26 0.26 0.25 0.23 0.19 0.16 0.15 0.14 0.14 0.13 0.11 0.10 0.08 0.07 0.05 0.06 0.08 0.16 0.50 0.74 0.59 0.33 0.28 0.31 0.31 0.33 0.34 0.32 0.31 0.37 0.44 0.45 0.42 0.46
0.07 0.08 0.08 0.09 0.13 0.19 0.22 0.23 0.21 0.20 0.17 0.15 0.12 0.09 0.07 0.07 0.08 0.08 0.07 0.06 0.05 0.04 0.03 0.03 0.04 0.04 0.08 0.30 0.66 0.63 0.28 0.26 0.26 0.28 0.38 0.42 0.39 0.37 0.48 0.61 0.59 0.44 0.37
0.04 0.04 0.04 0.04 0.07 0.10 0.12 0.12 0.12 0.10 0.09 0.07 0.05 0.03 0.02 0.03 0.04 0.04 0.03 0.03 0.02 0.03 0.03 0.03 0.03 0.03 0.05 0.18 0.55 0.75 0.38 0.30 0.25 0.27 0.38 0.56 0.55 0.51 0.55 0.62 0.62 0.56 0.38
0.03 0.02 0.02 0.04 0.07 0.10 0.11 0.10 0.08 0.05 0.03 0.02 0.01 0.01 0.00 0.01 0.01 0.02 0.02 0.02 0.03 0.03 0.03 0.03 0.03 0.03 0.04 0.08 0.34 0.76 0.65 0.45 0.37 0.36 0.43 0.55 0.53 0.52 0.52 0.58 0.58 0.57 0.53
0.02 0.02 0.03 0.05 0.10 0.12 0.10 0.06 0.04 0.01 0.00 0.00 0.00 0.00 0.00 0.01 0.01 0.02 0.02 0.03 0.03 0.04 0.04 0.05 0.04 0.03 0.03 0.07 0.22 0.51 0.68 0.59 0.43 0.40 0.36 0.42 0.44 0.48 0.51 0.49 0.50 0.53 0.56
0.02 0.04 0.05 0.08 0.11 0.09 0.05 0.02 0.01 0.00 0.00 0.00 0.00 0.01 0.01 0.01 0.02 0.02 0.03 0.04 0.04 0.07 0.09 0.09 0.08 0.05 0.04 0.07 0.20 0.30 0.35 0.43 0.38 0.41 0.53 0.47 0.41 0.38 0.32 0.29 0.34 0.37 0.38
0.05 0.06 0.07 0.09 0.10 0.06 0.02 0.00 0.00 0.00 0.00 0.01 0.01 0.01 0.01 0.02 0.02 0.03 0.04 0.05 0.08 0.19 0.26 0.22 0.18 0.12 0.10 0.17 0.35 0.36 0.26 0.29 0.33 0.33 0.39 0.39 0.29 0.21 0.16 0.14 0.16 0.19 0.26
0.07 0.08 0.09 0.09 0.07 0.03 0.01 0.00 0.00 0.00 0.01 0.01 0.02 0.02 0.02 0.03 0.03 0.03 0.04 0.07 0.09 0.26 0.45 0.41 0.39 0.36 0.34 0.43 0.66 0.63 0.52 0.53 0.53 0.51 0.49 0.38 0.28 0.24 0.19 0.14 0.11 0.12 0.18
0.11 0.11 0.09 0.05 0.02 0.01 0.00 0.00 0.00 0.01 0.02 0.03 0.03 0.04 0.04 0.04 0.04 0.05 0.05 0.05 0.07 0.14 0.18 0.23 0.34 0.33 0.43 0.55 0.53 0.49 0.48 0.49 0.50 0.55 0.51 0.33 0.24 0.22 0.19 0.17 0.15 0.13 0.14

GEFSMW_prec_meanprecacc_150.txt.gz
Total_Precipitation_Accumulation
0.00 0.00 0.00 0.00 0.00 0.00 0.00 0.00 0.00 0.00 0.00 0.01 0.02 0.02 0.01 0.01 0.01 0.01 0.01 0.01 0.01 0.01 0.01 0.01 0.02 0.03 0.05 0.08 0.11 0.12 0.13 0.13 0.17 0.22 0.20 0.20 0.23 0.27 0.26 0.25 0.28 0.32 0.35
0.00 0.00 0.00 0.00 0.00 0.00 0.00 0.00 0.00 0.00 0.00 0.00 0.01 0.01 0.01 0.01 0.01 0.01 0.01 0.01 0.01 0.01 0.01 0.01 0.02 0.02 0.02 0.02 0.03 0.04 0.06 0.06 0.08 0.16 0.20 0.17 0.15 0.16 0.17 0.18 0.22 0.28 0.35
0.00 0.00 0.00 0.00 0.00 0.00 0.00 0.00 0.00 0.00 0.00 0.00 0.00 0.00 0.01 0.01 0.01 0.01 0.01 0.01 0.01 0.01 0.01 0.01 0.01 0.01 0.01 0.02 0.02 0.02 0.04 0.04 0.04 0.09 0.24 0.33 0.24 0.16 0.12 0.14 0.16 0.19 0.21
0.00 0.00 0.00 0.00 0.00 0.00 0.00 0.00 0.00 0.00 0.00 0.00 0.00 0.01 0.01 0.01 0.01 0.01 0.01 0.01 0.01 0.01 0.01 0.01 0.01 0.01 0.01 0.02 0.02 0.02 0.03 0.05 0.06 0.06 0.11 0.21 0.26 0.33 0.21 0.07 0.06 0.08 0.10
0.00 0.00 0.00 0.00 0.00 0.00 0.00 0.00 0.00 0.00 0.00 0.00 0.00 0.00 0.01 0.01 0.00 0.00 0.00 0.00 0.00 0.01 0.01 0.01 0.02 0.02 0.02 0.02 0.03 0.03 0.04 0.06 0.08 0.11 0.11 0.10 0.12 0.21 0.35 0.17 0.03 0.03 0.05
0.00 0.00 0.00 0.00 0.00 0.00 0.00 0.00 0.00 0.00 0.00 0.00 0.00 0.00 0.00 0.00 0.00 0.00 0.00 0.00 0.00 0.01 0.01 0.02 0.02 0.03 0.03 0.03 0.04 0.06 0.06 0.07 0.09 0.11 0.13 0.18 0.23 0.21 0.29 0.27 0.11 0.06 0.03
0.00 0.00 0.00 0.00 0.00 0.00 0.00 0.00 0.00 0.00 0.00 0.00 0.00 0.00 0.00 0.01 0.01 0.01 0.01 0.01 0.01 0.01 0.02 0.03 0.03 0.04 0.05 0.06 0.07 0.08 0.09 0.10 0.11 0.12 0.14 0.16 0.19 0.22 0.28 0.32 0.22 0.12 0.06
0.00 0.00 0.00 0.00 0.00 0.00 0.00 0.00 0.00 0.00 0.00 0.00 0.00 0.00 0.01 0.01 0.01 0.01 0.01 0.01 0.01 0.02 0.03 0.04 0.05 0.06 0.07 0.09 0.10 0.12 0.13 0.14 0.15 0.15 0.17 0.19 0.18 0.20 0.27 0.35 0.39 0.30 0.11
0.00 0.00 0.00 0.00 0.00 0.00 0.00 0.00 0.00 0.00 0.00 0.00 0.00 0.00 0.01 0.01 0.00 0.00 0.01 0.02 0.02 0.03 0.04 0.07 0.09 0.11 0.12 0.13 0.14 0.16 0.17 0.19 0.21 0.22 0.22 0.24 0.22 0.22 0.23 0.28 0.40 0.56 0.43
0.00 0.00 0.00 0.00 0.00 0.00 0.00 0.00 0.00 0.00 0.01 0.00 0.01 0.01 0.01 0.01 0.01 0.01 0.02 0.03 0.05 0.06 0.06 0.08 0.11 0.14 0.16 0.18 0.21 0.22 0.23 0.26 0.29 0.30 0.30 0.29 0.29 0.28 0.27 0.28 0.31 0.43 0.58
0.00 0.00 0.00 0.00 0.00 0.00 0.00 0.00 0.01 0.01 0.01 0.01 0.01 0.02 0.02 0.03 0.03 0.05 0.06 0.07 0.08 0.09 0.09 0.10 0.11 0.13 0.15 0.18 0.22 0.26 0.30 0.34 0.34 0.35 0.37 0.38 0.38 0.38 0.36 0.36 0.36 0.39 0.52
0.00 0.00 0.00 0.00 0.00 0.00 0.00 0.01 0.02 0.03 0.04 0.03 0.03 0.04 0.05 0.06 0.09 0.11 0.12 0.13 0.14 0.15 0.14 0.14 0.14 0.14 0.15 0.17 0.20 0.24 0.28 0.34 0.38 0.40 0.43 0.45 0.44 0.47 0.46 0.47 0.45 0.43 0.46
0.00 0.00 0.00 0.00 0.00 0.01 0.01 0.02 0.03 0.05 0.04 0.04 0.05 0.06 0.09 0.12 0.16 0.19 0.20 0.20 0.20 0.20 0.19 0.19 0.20 0.21 0.24 0.28 0.29 0.28 0.30 0.33 0.35 0.37 0.43 0.47 0.53 0.57 0.55 0.56 0.54 0.49 0.44
0.00 0.00 0.00 0.00 0.01 0.01 0.02 0.03 0.05 0.06 0.07 0.09 0.11 0.14 0.18 0.22 0.25 0.26 0.25 0.24 0.23 0.24 0.24 0.24 0.26 0.30 0.38 0.52 0.56 0.45 0.41 0.38 0.37 0.37 0.41 0.47 0.56 0.64 0.70 0.74 0.66 0.58 0.59
0.00 0.01 0.01 0.01 0.02 0.02 0.03 0.06 0.09 0.12 0.16 0.20 0.23 0.23 0.22 0.22 0.22 0.22 0.22 0.23 0.25 0.27 0.26 0.25 0.27 0.32 0.47 0.79 0.83 0.66 0.53 0.46 0.44 0.42 0.44 0.48 0.60 0.77 0.94 1.05 0.98 0.92 0.91
0.01 0.01 0.02 0.03 0.04 0.06 0.09 0.14 0.20 0.23 0.25 0.27 0.27 0.25 0.22 0.21 0.21 0.22 0.22 0.23 0.23 0.21 0.18 0.17 0.22 0.31 0.48 0.87 0.93 0.76 0.54 0.48 0.48 0.48 0.44 0.42 0.48 0.57 0.71 0.92 0.97 1.03 1.09
0.03 0.04 0.05 0.07 0.09 0.13 0.18 0.22 0.24 0.24 0.26 0.28 0.28 0.26 0.24 0.23 0.21 0.20 0.19 0.18 0.16 0.13 0.11 0.09 0.12 0.19 0.36 0.73 0.83 0.70 0.47 0.38 0.40 0.40 0.35 0.34 0.34 0.37 0.37 0.46 0.52 0.61 0.75
0.07 0.09 0.11 0.12 0.15 0.20 0.24 0.27 0.26 0.26 0.26 0.25 0.23 0.19 0.16 0.15 0.14 0.14 0.13 0.11 0.10 0.08 0.07 0.05 0.06 0.08 0.16 0.50 0.74 0.59 0.33 0.28 0.31 0.31 0.33 0.35 0.33 0.31 0.37 0.44 0.45 0.43 0.47
0.07 0.08 0.08 0.09 0.13 0.19 0.22 0.23 0.21 0.20 0.17 0.15 0.12 0.09 0.07 0.07 0.08 0.08 0.07 0.06 0.05 0.04 0.04 0.03 0.04 0.04 0.08 0.30 0.66 0.63 0.29 0.27 0.26 0.28 0.38 0.42 0.39 0.37 0.48 0.62 0.60 0.45 0.37
0.04 0.04 0.04 0.04 0.07 0.10 0.12 0.12 0.12 0.10 0.09 0.07 0.05 0.03 0.02 0.03 0.04 0.04 0.03 0.03 0.02 0.03 0.03 0.03 0.03 0.03 0.05 0.18 0.55 0.76 0.39 0.31 0.25 0.28 0.38 0.56 0.55 0.52 0.55 0.63 0.63 0.57 0.39
0.03 0.02 0.02 0.04 0.07 0.10 0.11 0.10 0.08 0.05 0.03 0.02 0.01 0.01 0.00 0.01 0.01 0.02 0.02 0.02 0.03 0.03 0.03 0.03 0.03 0.03 0.04 0.08 0.34 0.76 0.65 0.45 0.37 0.36 0.43 0.55 0.53 0.53 0.53 0.59 0.59 0.58 0.55
0.02 0.02 0.03 0.05 0.10 0.12 0.10 0.06 0.04 0.01 0.00 0.00 0.00 0.00 0.00 0.01 0.01 0.02 0.02 0.03 0.03 0.04 0.04 0.05 0.04 0.03 0.03 0.07 0.22 0.51 0.68 0.60 0.43 0.40 0.36 0.42 0.44 0.49 0.52 0.50 0.51 0.54 0.58
0.02 0.04 0.05 0.08 0.11 0.09 0.05 0.02 0.01 0.00 0.00 0.00 0.00 0.01 0.01 0.01 0.02 0.02 0.03 0.04 0.04 0.07 0.09 0.09 0.08 0.05 0.04 0.07 0.20 0.30 0.36 0.43 0.39 0.41 0.54 0.48 0.41 0.39 0.33 0.29 0.35 0.38 0.38
0.05 0.06 0.07 0.09 0.10 0.06 0.02 0.00 0.00 0.00 0.00 0.01 0.01 0.01 0.01 0.02 0.02 0.03 0.04 0.05 0.08 0.19 0.26 0.22 0.18 0.12 0.10 0.17 0.35 0.36 0.27 0.30 0.34 0.33 0.40 0.39 0.30 0.22 0.17 0.15 0.17 0.20 0.26
0.07 0.08 0.09 0.09 0.07 0.03 0.01 0.00 0.00 0.00 0.01 0.01 0.02 0.02 0.02 0.03 0.03 0.03 0.04 0.07 0.09 0.26 0.45 0.41 0.39 0.36 0.35 0.44 0.67 0.64 0.53 0.54 0.54 0.53 0.51 0.40 0.29 0.24 0.19 0.14 0.11 0.12 0.18
0.11 0.11 0.09 0.05 0.02 0.01 0.00 0.00 0.00 0.01 0.02 0.03 0.03 0.04 0.04 0.04 0.04 0.05 0.05 0.05 0.07 0.14 0.18 0.23 0.34 0.33 0.44 0.55 0.53 0.50 0.49 0.50 0.52 0.57 0.53 0.35 0.25 0.22 0.20 0.17 0.15 0.13 0.14

GEFSMW_prec_meanprecacc_156.txt.gz
Total_Precipitation_Accumulation
0.00 0.00 0.00 0.00 0.00 0.00 0.00 0.00 0.00 0.00 0.01 0.01 0.02 0.02 0.02 0.01 0.02 0.01 0.01 0.02 0.02 0.01 0.01 0.01 0.02 0.04 0.06 0.09 0.11 0.13 0.13 0.13 0.17 0.22 0.20 0.20 0.23 0.27 0.26 0.25 0.28 0.32 0.35
0.00 0.00 0.00 0.00 0.00 0.00 0.00 0.00 0.00 0.00 0.00 0.00 0.01 0.01 0.01 0.01 0.01 0.01 0.02 0.02 0.02 0.02 0.02 0.02 0.02 0.02 0.02 0.02 0.03 0.04 0.06 0.06 0.08 0.16 0.21 0.17 0.15 0.16 0.17 0.18 0.22 0.28 0.35
0.00 0.00 0.00 0.00 0.00 0.00 0.00 0.00 0.00 0.00 0.00 0.00 0.00 0.01 0.01 0.01 0.01 0.01 0.02 0.02 0.01 0.01 0.01 0.01 0.02 0.02 0.02 0.02 0.02 0.02 0.04 0.05 0.04 0.09 0.24 0.33 0.24 0.16 0.12 0.14 0.16 0.19 0.21
0.00 0.00 0.00 0.00 0.00 0.00 0.00 0.00 0.00 0.00 0.00 0.00 0.00 0.01 0.01 0.01 0.01 0.01 0.01 0.01 0.01 0.01 0.01 0.01 0.02 0.02 0.02 0.02 0.03 0.03 0.04 0.06 0.07 0.06 0.11 0.22 0.27 0.33 0.21 0.07 0.06 0.08 0.10
0.00 0.00 0.00 0.00 0.00 0.00 0.00 0.00 0.00 0.00 0.00 0.00 0.00 0.01 0.01 0.01 0.00 0.00 0.00 0.00 0.01 0.01 0.01 0.02 0.02 0.02 0.03 0.03 0.03 0.04 0.05 0.06 0.09 0.11 0.12 0.11 0.12 0.21 0.35 0.17 0.03 0.03 0.05
0.00 0.00 0.00 0.00 0.00 0.00 0.00 0.00 0.00 0.00 0.00 0.00 0.00 0.00 0.00 0.00 0.00 0.00 0.01 0.01 0.01 0.01 0.01 0.02 0.03 0.03 0.04 0.04 0.05 0.06 0.07 0.08 0.10 0.12 0.14 0.19 0.23 0.22 0.30 0.27 0.11 0.06 0.04
0.00 0.00 0.00 0.00 0.00 0.00 0.00 0.00 0.00 0.00 0.00 0.00 0.00 0.00 0.00 0.01 0.01 0.01 0.01 0.01 0.01 0.01 0.02 0.03 0.04 0.05 0.05 0.06 0.07 0.09 0.10 0.11 0.12 0.13 0.15 0.18 0.21 0.23 0.29 0.33 0.23 0.13 0.06
0.00 0.00 0.00 0.00 0.00 0.00 0.00 0.00 0.00 0.00 0.00 0.00 0.00 0.00 0.01 0.01 0.01 0.01 0.01 0.01 0.02 0.02 0.03 0.04 0.05 0.06 0.08 0.09 0.11 0.12 0.14 0.15 0.16 0.16 0.18 0.20 0.19 0.22 0.28 0.36 0.40 0.31 0.12
0.00 0.00 0.00 0.00 0.00 0.00 0.00 0.00 0.00 0.00 0.00 0.00 0.00 0.00 0.01 0.01 0.00 0.01 0.01 0.02 0.03 0.03 0.05 0.07 0.10 0.11 0.12 0.14 0.15 0.17 0.18 0.20 0.22 0.23 0.23 0.25 0.23 0.23 0.24 0.29 0.41 0.57 0.44
0.00 0.00 0.00 0.00 0.00 0.00 0.00 0.00 0.00 0.00 0.01 0.00 0.01 0.01 0.01 0.01 0.01 0.01 0.02 0.03 0.05 0.06 0.07 0.08 0.11 0.14 0.17 0.19 0.21 0.22 0.24 0.27 0.30 0.31 0.30 0.30 0.30 0.29 0.28 0.29 0.32 0.44 0.59
0.00 0.00 0.00 0.00 0.00 0.00 0.00 0.00 0.01 0.01 0.01 0.01 0.01 0.02 0.02 0.03 0.03 0.05 0.06 0.07 0.08 0.09 0.10 0.10 0.11 0.13 0.15 0.18 0.23 0.27 0.31 0.35 0.35 0.36 0.38 0.39 0.39 0.39 0.37 0.36 0.37 0.39 0.53
0.00 0.00 0.00 0.00 0.00 0.00 0.00 0.01 0.02 0.03 0.04 0.03 0.03 0.04 0.05 0.06 0.09 0.11 0.12 0.13 0.14 0.15 0.14 0.14 0.14 0.14 0.15 0.18 0.20 0.24 0.28 0.35 0.38 0.40 0.44 0.45 0.45 0.47 0.47 0.48 0.46 0.44 0.48
0.00 0.00 0.00 0.00 0.00 0.01 0.01 0.02 0.03 0.05 0.04 0.04 0.05 0.06 0.09 0.12 0.16 0.19 0.20 0.20 0.20 0.20 0.19 0.20 0.20 0.21 0.24 0.28 0.29 0.28 0.30 0.33 0.36 0.38 0.43 0.48 0.54 0.57 0.56 0.56 0.55 0.50 0.44
0.00 0.00 0.00 0.00 0.01 0.01 0.02 0.03 0.05 0.06 0.07 0.09 0.11 0.14 0.18 0.22 0.25 0.26 0.25 0.24 0.23 0.24 0.24 0.25 0.26 0.30 0.38 0.52 0.56 0.45 0.41 0.38 0.38 0.38 0.41 0.48 0.56 0.64 0.70 0.75 0.66 0.59 0.60
0.00 0.01 0.01 0.01 0.02 0.02 0.03 0.06 0.09 0.12 0.16 0.20 0.23 0.23 0.22 0.22 0.22 0.22 0.22 0.23 0.25 0.27 0.26 0.25 0.27 0.32 0.47 0.79 0.83 0.66 0.53 0.47 0.44 0.42 0.44 0.48 0.60 0.78 0.95 1.05 0.99 0.93 0.93
0.01 0.01 0.02 0.03 0.04 0.06 0.09 0.14 0.20 0.23 0.25 0.27 0.27 0.25 0.22 0.21 0.21 0.22 0.23 0.23 0.23 0.22 0.19 0.17 0.22 0.31 0.48 0.87 0.94 0.76 0.54 0.48 0.48 0.48 0.44 0.42 0.48 0.57 0.72 0.92 0.99 1.04 1.11
0.03 0.04 0.05 0.07 0.09 0.13 0.18 0.22 0.24 0.24 0.26 0.28 0.28 0.26 0.24 0.23 0.22 0.20 0.19 0.18 0.17 0.14 0.11 0.09 0.12 0.19 0.36 0.73 0.83 0.70 0.47 0.38 0.40 0.40 0.36 0.35 0.35 0.38 0.38 0.47 0.53 0.62 0.76
0.07 0.09 0.11 0.12 0.15 0.20 0.24 0.27 0.26 0.26 0.26 0.25 0.23 0.19 0.16 0.15 0.14 0.14 0.13 0.11 0.10 0.09 0.07 0.05 0.06 0.08 0.16 0.50 0.74 0.59 0.33 0.28 0.31 0.31 0.34 0.35 0.33 0.32 0.37 0.44 0.46 0.43 0.47
0.07 0.08 0.08 0.09 0.13 0.19 0.22 0.23 0.21 0.20 0.17 0.15 0.12 0.09 0.07 0.07 0.08 0.09 0.07 0.06 0.05 0.04 0.04 0.03 0.04 0.04 0.08 0.30 0.66 0.63 0.29 0.27 0.26 0.28 0.38 0.43 0.39 0.38 0.49 0.63 0.61 0.46 0.37
0.04 0.04 0.04 0.04 0.07 0.10 0.12 0.12 0.12 0.10 0.09 0.07 0.05 0.03 0.02 0.03 0.04 0.04 0.03 0.03 0.03 0.03 0.03 0.03 0.03 0.03 0.05 0.18 0.55 0.76 0.39 0.31 0.26 0.28 0.38 0.57 0.55 0.52 0.56 0.65 0.65 0.59 0.40
0.03 0.02 0.02 0.04 0.07 0.10 0.11 0.10 0.08 0.05 0.03 0.02 0.01 0.01 0.00 0.01 0.01 0.02 0.02 0.03 0.03 0.03 0.03 0.03 0.03 0.03 0.04 0.08 0.35 0.76 0.65 0.45 0.38 0.36 0.43 0.55 0.54 0.53 0.55 0.61 0.61 0.60 0.57
0.02 0.02 0.03 0.05 0.10 0.12 0.10 0.06 0.04 0.01 0.00 0.00 0.00 0.00 0.00 0.01 0.01 0.02 0.02 0.03 0.03 0.04 0.04 0.05 0.04 0.03 0.03 0.07 0.22 0.52 0.68 0.60 0.44 0.41 0.36 0.42 0.45 0.50 0.53 0.52 0.53 0.56 0.60
0.02 0.04 0.05 0.08 0.11 0.09 0.05 0.02 0.01 0.00 0.00 0.00 0.00 0.01 0.01 0.01 0.02 0.02 0.03 0.04 0.04 0.07 0.09 0.09 0.08 0.05 0.04 0.08 0.20 0.31 0.36 0.44 0.39 0.42 0.55 0.49 0.43 0.40 0.34 0.30 0.36 0.39 0.40
0.05 0.06 0.07 0.09 0.10 0.06 0.02 0.00 0.00 0.00 0.00 0.01 0.01 0.01 0.01 0.02 0.02 0.03 0.04 0.05 0.08 0.19 0.26 0.22 0.18 0.12 0.10 0.17 0.35 0.36 0.27 0.30 0.34 0.34 0.41 0.40 0.30 0.23 0.17 0.15 0.17 0.20 0.26
0.07 0.08 0.09 0.09 0.07 0.03 0.01 0.00 0.00 0.00 0.01 0.01 0.02 0.02 0.02 0.03 0.03 0.03 0.04 0.07 0.09 0.26 0.45 0.41 0.39 0.37 0.35 0.44 0.67 0.65 0.54 0.55 0.55 0.55 0.52 0.41 0.30 0.25 0.19 0.14 0.11 0.12 0.19
0.11 0.11 0.09 0.05 0.02 0.01 0.00 0.00 0.00 0.01 0.02 0.03 0.03 0.04 0.04 0.04 0.04 0.05 0.05 0.05 0.08 0.14 0.18 0.23 0.34 0.33 0.44 0.55 0.54 0.50 0.50 0.51 0.53 0.58 0.55 0.36 0.26 0.23 0.20 0.18 0.15 0.13 0.15

GEFSMW_prec_meanprecacc_162.txt.gz
Total_Precipitation_Accumulation
0.00 0.00 0.00 0.00 0.00 0.00 0.00 0.00 0.00 0.00 0.01 0.01 0.02 0.02 0.02 0.02 0.02 0.02 0.02 0.02 0.02 0.02 0.02 0.02 0.03 0.04 0.06 0.09 0.12 0.13 0.13 0.13 0.18 0.22 0.20 0.20 0.23 0.27 0.26 0.25 0.28 0.32 0.35
0.00 0.00 0.00 0.00 0.00 0.00 0.00 0.00 0.00 0.00 0.00 0.00 0.01 0.01 0.01 0.01 0.01 0.02 0.02 0.02 0.02 0.02 0.02 0.02 0.02 0.02 0.03 0.03 0.03 0.05 0.07 0.06 0.08 0.16 0.21 0.17 0.15 0.16 0.17 0.18 0.22 0.28 0.35
0.00 0.00 0.00 0.00 0.00 0.00 0.00 0.00 0.00 0.00 0.00 0.00 0.01 0.01 0.01 0.01 0.01 0.02 0.02 0.02 0.01 0.01 0.01 0.02 0.02 0.02 0.02 0.02 0.02 0.03 0.05 0.05 0.05 0.09 0.25 0.34 0.24 0.16 0.12 0.14 0.16 0.19 0.21
0.00 0.00 0.00 0.00 0.00 0.00 0.00 0.00 0.00 0.00 0.00 0.00 0.00 0.01 0.01 0.01 0.01 0.01 0.01 0.01 0.01 0.01 0.01 0.02 0.02 0.02 0.02 0.03 0.03 0.03 0.04 0.07 0.08 0.07 0.12 0.22 0.27 0.33 0.22 0.07 0.06 0.08 0.10
0.00 0.00 0.00 0.00 0.00 0.00 0.00 0.00 0.00 0.00 0.00 0.00 0.00 0.01 0.01 0.01 0.01 0.00 0.00 0.01 0.01 0.01 0.01 0.02 0.02 0.03 0.03 0.03 0.04 0.04 0.05 0.07 0.10 0.12 0.12 0.11 0.13 0.22 0.36 0.17 0.03 0.03 0.05
0.00 0.00 0.00 0.00 0.00 0.00 0.00 0.00 0.00 0.00 0.00 0.00 0.00 0.01 0.01 0.01 0.00 0.00 0.01 0.01 0.01 0.01 0.01 0.02 0.03 0.04 0.04 0.04 0.05 0.06 0.07 0.08 0.10 0.13 0.15 0.20 0.24 0.22 0.30 0.28 0.12 0.06 0.04
0.00 0.00 0.00 0.00 0.00 0.00 0.00 0.00 0.00 0.00 0.00 0.00 0.00 0.01 0.01 0.01 0.01 0.01 0.01 0.01 0.01 0.01 0.02 0.03 0.04 0.05 0.06 0.06 0.08 0.09 0.10 0.11 0.13 0.14 0.15 0.18 0.21 0.24 0.30 0.34 0.24 0.13 0.07
0.00 0.00 0.00 0.00 0.00 0.00 0.00 0.00 0.00 0.00 0.00 0.00 0.00 0.00 0.01 0.01 0.01 0.01 0.01 0.01 0.02 0.02 0.03 0.04 0.05 0.07 0.08 0.09 0.11 0.13 0.14 0.15 0.16 0.17 0.18 0.21 0.20 0.23 0.29 0.37 0.41 0.32 0.12
0.00 0.00 0.00 0.00 0.00 0.00 0.00 0.00 0.00 0.00 0.00 0.00 0.00 0.00 0.01 0.01 0.00 0.01 0.01 0.02 0.03 0.03 0.05 0.07 0.10 0.11 0.13 0.14 0.15 0.17 0.19 0.21 0.22 0.24 0.24 0.26 0.24 0.23 0.25 0.29 0.42 0.58 0.45
0.00 0.00 0.00 0.00 0.00 0.00 0.00 0.00 0.00 0.00 0.01 0.00 0.01 0.01 0.01 0.01 0.01 0.01 0.02 0.03 0.05 0.06 0.07 0.08 0.11 0.14 0.17 0.19 0.21 0.22 0.24 0.27 0.30 0.31 0.31 0.31 0.30 0.29 0.28 0.29 0.32 0.45 0.60
0.00 0.00 0.00 0.00 0.00 0.00 0.00 0.00 0.01 0.01 0.01 0.01 0.01 0.02 0.02 0.03 0.03 0.05 0.06 0.07 0.08 0.09 0.10 0.10 0.11 0.13 0.15 0.18 0.23 0.27 0.31 0.35 0.36 0.36 0.38 0.39 0.39 0.39 0.37 0.37 0.37 0.40 0.53
0.00 0.00 0.00 0.00 0.00 0.00 0.00 0.01 0.02 0.03 0.04 0.03 0.03 0.04 0.05 0.06 0.09 0.11 0.12 0.13 0.14 0.15 0.15 0.14 0.14 0.14 0.15 0.18 0.20 0.24 0.28 0.35 0.39 0.40 0.44 0.46 0.45 0.48 0.47 0.48 0.47 0.45 0.48
0.00 0.00 0.00 0.00 0.00 0.01 0.01 0.02 0.03 0.05 0.04 0.04 0.05 0.06 0.09 0.12 0.16 0.19 0.20 0.20 0.20 0.20 0.19 0.20 0.20 0.21 0.24 0.28 0.29 0.28 0.30 0.33 0.36 0.38 0.43 0.48 0.54 0.58 0.56 0.56 0.55 0.50 0.45
0.00 0.00 0.00 0.00 0.01 0.01 0.02 0.03 0.05 0.06 0.07 0.09 0.11 0.14 0.18 0.22 0.25 0.26 0.25 0.24 0.23 0.24 0.24 0.25 0.26 0.30 0.38 0.52 0.56 0.45 0.41 0.38 0.38 0.38 0.42 0.48 0.57 0.64 0.70 0.75 0.66 0.59 0.60
0.00 0.01 0.01 0.01 0.02 0.02 0.03 0.06 0.09 0.12 0.16 0.20 0.23 0.23 0.22 0.22 0.22 0.22 0.22 0.24 0.25 0.27 0.26 0.25 0.27 0.33 0.47 0.79 0.83 0.66 0.53 0.47 0.44 0.42 0.44 0.48 0.60 0.78 0.95 1.06 1.00 0.94 0.94
0.01 0.01 0.02 0.03 0.04 0.06 0.09 0.14 0.20 0.23 0.25 0.27 0.27 0.25 0.22 0.21 0.21 0.22 0.23 0.23 0.23 0.22 0.19 0.18 0.22 0.31 0.48 0.87 0.94 0.76 0.54 0.48 0.48 0.48 0.44 0.42 0.48 0.57 0.72 0.93 0.99 1.05 1.12
0.03 0.04 0.05 0.07 0.09 0.13 0.18 0.22 0.24 0.24 0.26 0.28 0.28 0.26 0.24 0.23 0.22 0.20 0.19 0.18 0.17 0.14 0.11 0.09 0.12 0.19 0.36 0.74 0.83 0.70 0.47 0.38 0.40 0.40 0.36 0.35 0.35 0.38 0.38 0.48 0.55 0.63 0.77
0.08 0.09 0.11 0.12 0.15 0.20 0.24 0.27 0.26 0.26 0.26 0.25 0.23 0.19 0.16 0.15 0.14 0.14 0.13 0.11 0.10 0.09 0.07 0.06 0.06 0.08 0.16 0.50 0.74 0.59 0.33 0.28 0.31 0.31 0.34 0.35 0.33 0.32 0.38 0.45 0.47 0.44 0.47
0.08 0.08 0.08 0.09 0.13 0.19 0.22 0.23 0.21 0.20 0.17 0.15 0.12 0.09 0.07 0.07 0.08 0.09 0.08 0.06 0.05 0.04 0.04 0.04 0.04 0.04 0.08 0.30 0.66 0.63 0.29 0.27 0.26 0.28 0.38 0.43 0.39 0.38 0.50 0.63 0.61 0.46 0.38
0.04 0.04 0.04 0.04 0.07 0.10 0.12 0.12 0.12 0.10 0.09 0.07 0.05 0.03 0.02 0.03 0.04 0.04 0.03 0.03 0.03 0.03 0.03 0.03 0.03 0.03 0.05 0.18 0.55 0.76 0.39 0.31 0.26 0.28 0.38 0.57 0.56 0.53 0.57 0.65 0.66 0.60 0.41
0.03 0.02 0.02 0.04 0.07 0.10 0.11 0.10 0.08 0.05 0.03 0.02 0.01 0.01 0.01 0.01 0.01 0.02 0.02 0.03 0.03 0.03 0.03 0.03 0.03 0.03 0.04 0.08 0.35 0.76 0.65 0.46 0.38 0.37 0.43 0.55 0.54 0.54 0.55 0.62 0.62 0.61 0.57
0.02 0.03 0.03 0.05 0.10 0.12 0.10 0.06 0.04 0.02 0.01 0.00 0.00 0.00 0.01 0.01 0.01 0.02 0.02 0.03 0.03 0.04 0.04 0.05 0.04 0.03 0.03 0.07 0.23 0.52 0.68 0.61 0.44 0.41 0.36 0.43 0.45 0.51 0.54 0.52 0.53 0.56 0.61
0.02 0.04 0.05 0.09 0.11 0.09 0.05 0.02 0.01 0.00 0.00 0.00 0.01 0.01 0.01 0.01 0.02 0.02 0.04 0.04 0.04 0.07 0.10 0.09 0.08 0.05 0.04 0.08 0.21 0.31 0.36 0.44 0.40 0.42 0.55 0.50 0.43 0.40 0.34 0.31 0.36 0.40 0.41
0.05 0.06 0.07 0.09 0.10 0.06 0.02 0.01 0.00 0.00 0.01 0.01 0.01 0.01 0.01 0.02 0.02 0.03 0.04 0.06 0.08 0.19 0.27 0.23 0.19 0.12 0.10 0.18 0.35 0.37 0.28 0.31 0.34 0.34 0.41 0.40 0.31 0.23 0.17 0.16 0.18 0.21 0.28
0.07 0.08 0.09 0.09 0.07 0.03 0.01 0.00 0.00 0.01 0.01 0.01 0.02 0.02 0.02 0.03 0.04 0.03 0.04 0.07 0.10 0.26 0.45 0.41 0.39 0.37 0.35 0.44 0.67 0.65 0.54 0.55 0.55 0.55 0.53 0.41 0.30 0.25 0.20 0.15 0.13 0.14 0.20
0.12 0.12 0.09 0.05 0.02 0.01 0.01 0.01 0.01 0.01 0.02 0.03 0.03 0.04 0.04 0.05 0.05 0.06 0.06 0.06 0.08 0.14 0.19 0.23 0.34 0.33 0.44 0.56 0.54 0.51 0.50 0.51 0.53 0.58 0.55 0.37 0.27 0.24 0.22 0.19 0.16 0.14 0.15

GEFSMW_prec_meanprecacc_168.txt.gz
Total_Precipitation_Accumulation
0.00 0.00 0.00 0.00 0.00 0.01 0.01 0.01 0.01 0.01 0.01 0.01 0.02 0.02 0.02 0.02 0.02 0.02 0.02 0.02 0.02 0.02 0.02 0.02 0.03 0.04 0.06 0.09 0.12 0.13 0.13 0.13 0.18 0.22 0.20 0.20 0.23 0.27 0.26 0.25 0.28 0.32 0.35
0.00 0.00 0.00 0.00 0.00 0.01 0.01 0.01 0.01 0.00 0.00 0.00 0.01 0.01 0.01 0.01 0.01 0.02 0.02 0.02 0.02 0.02 0.02 0.02 0.02 0.02 0.03 0.03 0.03 0.05 0.07 0.06 0.08 0.16 0.21 0.17 0.16 0.16 0.17 0.18 0.22 0.28 0.35
0.00 0.00 0.00 0.00 0.00 0.00 0.00 0.01 0.01 0.00 0.00 0.00 0.01 0.01 0.01 0.01 0.01 0.02 0.02 0.02 0.02 0.02 0.02 0.02 0.02 0.02 0.02 0.03 0.02 0.03 0.05 0.06 0.05 0.09 0.25 0.35 0.25 0.16 0.12 0.14 0.16 0.19 0.21
0.00 0.00 0.00 0.00 0.00 0.00 0.00 0.01 0.01 0.01 0.00 0.01 0.01 0.01 0.01 0.01 0.01 0.01 0.01 0.01 0.01 0.01 0.01 0.02 0.02 0.02 0.03 0.03 0.03 0.03 0.05 0.07 0.08 0.07 0.12 0.23 0.28 0.34 0.22 0.07 0.06 0.08 0.10
0.00 0.00 0.00 0.00 0.00 0.00 0.00 0.00 0.01 0.01 0.01 0.00 0.00 0.01 0.01 0.01 0.01 0.00 0.00 0.01 0.01 0.01 0.02 0.02 0.02 0.03 0.03 0.03 0.04 0.04 0.05 0.07 0.10 0.12 0.13 0.12 0.13 0.22 0.37 0.18 0.03 0.03 0.05
0.00 0.00 0.00 0.00 0.00 0.00 0.00 0.01 0.01 0.01 0.01 0.01 0.00 0.01 0.01 0.01 0.01 0.01 0.01 0.01 0.01 0.01 0.01 0.02 0.03 0.04 0.04 0.04 0.05 0.07 0.08 0.09 0.11 0.13 0.15 0.20 0.24 0.23 0.31 0.29 0.12 0.06 0.04
0.00 0.00 0.00 0.00 0.00 0.00 0.00 0.00 0.01 0.01 0.01 0.01 0.01 0.01 0.01 0.01 0.01 0.01 0.01 0.01 0.01 0.01 0.02 0.03 0.04 0.05 0.06 0.07 0.08 0.09 0.11 0.12 0.13 0.14 0.16 0.19 0.22 0.24 0.31 0.35 0.24 0.14 0.07
0.00 0.00 0.00 0.00 0.00 0.00 0.00 0.00 0.00 0.01 0.01 0.01 0.01 0.01 0.01 0.01 0.01 0.01 0.01 0.01 0.02 0.02 0.03 0.04 0.05 0.07 0.08 0.09 0.11 0.13 0.14 0.15 0.17 0.17 0.19 0.21 0.21 0.23 0.30 0.38 0.42 0.32 0.13
0.00 0.00 0.00 0.00 0.00 0.00 0.00 0.00 0.00 0.00 0.00 0.01 0.01 0.01 0.01 0.01 0.00 0.01 0.01 0.02 0.03 0.03 0.05 0.07 0.10 0.12 0.13 0.14 0.15 0.17 0.19 0.21 0.23 0.24 0.24 0.26 0.24 0.24 0.25 0.30 0.43 0.60 0.47
0.00 0.00 0.00 0.00 0.00 0.00 0.00 0.00 0.00 0.01 0.01 0.01 0.01 0.01 0.01 0.01 0.01 0.01 0.02 0.03 0.05 0.06 0.07 0.08 0.11 0.14 0.17 0.19 0.21 0.23 0.24 0.28 0.30 0.31 0.31 0.31 0.30 0.30 0.29 0.30 0.33 0.45 0.61
0.00 0.00 0.00 0.00 0.00 0.00 0.00 0.00 0.01 0.01 0.02 0.02 0.02 0.02 0.03 0.03 0.04 0.05 0.06 0.07 0.08 0.09 0.10 0.10 0.11 0.13 0.15 0.19 0.23 0.27 0.31 0.35 0.36 0.36 0.38 0.40 0.40 0.40 0.37 0.37 0.37 0.40 0.54
0.00 0.00 0.00 0.00 0.00 0.00 0.00 0.01 0.02 0.03 0.04 0.03 0.03 0.04 0.05 0.07 0.09 0.11 0.12 0.13 0.14 0.15 0.15 0.14 0.14 0.14 0.15 0.18 0.20 0.24 0.28 0.35 0.39 0.41 0.44 0.46 0.46 0.48 0.47 0.48 0.47 0.45 0.49
0.01 0.00 0.00 0.00 0.00 0.01 0.01 0.02 0.04 0.05 0.05 0.05 0.05 0.06 0.09 0.12 0.16 0.19 0.20 0.20 0.20 0.20 0.19 0.20 0.20 0.21 0.24 0.28 0.29 0.28 0.30 0.33 0.36 0.38 0.44 0.49 0.54 0.58 0.56 0.56 0.55 0.50 0.45
0.01 0.01 0.01 0.01 0.01 0.01 0.02 0.03 0.05 0.07 0.07 0.09 0.12 0.14 0.18 0.22 0.25 0.26 0.25 0.24 0.23 0.24 0.24 0.25 0.26 0.30 0.38 0.52 0.56 0.45 0.41 0.38 0.38 0.38 0.42 0.48 0.57 0.64 0.70 0.75 0.67 0.59 0.61
0.01 0.01 0.02 0.02 0.02 0.02 0.03 0.06 0.09 0.13 0.16 0.20 0.23 0.24 0.22 0.22 0.22 0.22 0.23 0.24 0.25 0.27 0.26 0.25 0.27 0.33 0.47 0.79 0.83 0.66 0.53 0.47 0.44 0.42 0.44 0.48 0.60 0.78 0.95 1.06 1.00 0.94 0.95
0.01 0.02 0.03 0.04 0.04 0.06 0.09 0.14 0.20 0.23 0.25 0.27 0.27 0.25 0.23 0.22 0.22 0.22 0.23 0.24 0.24 0.22 0.19 0.18 0.22 0.31 0.48 0.87 0.94 0.76 0.54 0.48 0.48 0.48 0.44 0.42 0.49 0.57 0.72 0.93 1.00 1.05 1.12
0.03 0.04 0.06 0.08 0.10 0.13 0.18 0.22 0.24 0.24 0.26 0.28 0.28 0.27 0.25 0.24 0.22 0.21 0.19 0.18 0.17 0.14 0.11 0.10 0.12 0.19 0.36 0.74 0.83 0.70 0.47 0.38 0.40 0.40 0.36 0.35 0.35 0.38 0.38 0.48 0.55 0.64 0.78
0.08 0.09 0.11 0.12 0.16 0.20 0.24 0.27 0.26 0.26 0.26 0.25 0.23 0.19 0.17 0.16 0.15 0.15 0.14 0.12 0.11 0.09 0.07 0.06 0.06 0.08 0.17 0.51 0.74 0.60 0.33 0.28 0.31 0.31 0.34 0.36 0.34 0.33 0.39 0.46 0.47 0.44 0.48
0.08 0.08 0.08 0.09 0.13 0.19 0.22 0.23 0.21 0.20 0.17 0.15 0.12 0.09 0.07 0.08 0.09 0.09 0.08 0.07 0.06 0.05 0.04 0.04 0.04 0.05 0.08 0.31 0.66 0.63 0.29 0.27 0.26 0.28 0.38 0.43 0.40 0.39 0.51 0.64 0.62 0.46 0.38
0.04 0.04 0.04 0.04 0.07 0.10 0.12 0.12 0.12 0.10 0.09 0.07 0.05 0.03 0.02 0.03 0.04 0.04 0.04 0.04 0.04 0.04 0.03 0.03 0.03 0.04 0.05 0.19 0.55 0.76 0.39 0.31 0.26 0.28 0.38 0.58 0.57 0.54 0.58 0.66 0.67 0.61 0.41
0.03 0.02 0.03 0.04 0.07 0.10 0.11 0.10 0.08 0.05 0.03 0.02 0.01 0.01 0.01 0.01 0.02 0.02 0.02 0.03 0.04 0.04 0.04 0.04 0.03 0.03 0.04 0.09 0.35 0.77 0.66 0.46 0.38 0.37 0.44 0.56 0.55 0.55 0.56 0.62 0.63 0.62 0.58
0.02 0.03 0.03 0.05 0.10 0.12 0.10 0.06 0.04 0.02 0.01 0.00 0.01 0.01 0.01 0.01 0.02 0.02 0.03 0.03 0.04 0.05 0.05 0.06 0.05 0.04 0.04 0.08 0.23 0.53 0.69 0.61 0.45 0.42 0.37 0.44 0.47 0.52 0.55 0.53 0.54 0.57 0.62
0.03 0.04 0.05 0.09 0.12 0.09 0.05 0.03 0.01 0.00 0.00 0.01 0.01 0.01 0.01 0.02 0.02 0.03 0.04 0.05 0.05 0.08 0.10 0.10 0.09 0.07 0.06 0.09 0.22 0.33 0.38 0.46 0.41 0.44 0.57 0.51 0.44 0.41 0.35 0.31 0.37 0.40 0.41
0.05 0.07 0.07 0.09 0.11 0.07 0.02 0.01 0.01 0.01 0.01 0.01 0.01 0.02 0.02 0.02 0.03 0.03 0.04 0.06 0.09 0.20 0.28 0.24 0.20 0.14 0.11 0.19 0.36 0.39 0.30 0.34 0.37 0.36 0.43 0.42 0.32 0.24 0.18 0.16 0.18 0.21 0.28
0.07 0.08 0.09 0.09 0.08 0.04 0.01 0.01 0.02 0.02 0.02 0.02 0.02 0.03 0.03 0.03 0.04 0.04 0.05 0.08 0.10 0.27 0.47 0.42 0.40 0.38 0.36 0.45 0.69 0.67 0.57 0.57 0.57 0.57 0.54 0.43 0.31 0.26 0.21 0.16 0.13 0.15 0.21
0.12 0.12 0.10 0.06 0.03 0.02 0.02 0.02 0.02 0.04 0.04 0.04 0.04 0.05 0.05 0.05 0.06 0.07 0.07 0.08 0.10 0.16 0.20 0.24 0.35 0.34 0.45 0.57 0.56 0.53 0.52 0.53 0.55 0.60 0.57 0.38 0.28 0.25 0.22 0.20 0.17 0.15 0.16

GEFSMW_prec_meanprecacc_174.txt.gz
Total_Precipitation_Accumulation
0.00 0.00 0.00 0.00 0.01 0.03 0.04 0.03 0.02 0.02 0.02 0.02 0.02 0.02 0.02 0.02 0.02 0.02 0.02 0.02 0.02 0.02 0.02 0.02 0.03 0.04 0.06 0.09 0.12 0.13 0.13 0.13 0.18 0.22 0.20 0.20 0.23 0.27 0.26 0.25 0.28 0.32 0.35
0.00 0.00 0.00 0.00 0.00 0.02 0.04 0.04 0.03 0.02 0.01 0.01 0.01 0.01 0.01 0.01 0.01 0.02 0.02 0.02 0.02 0.02 0.02 0.02 0.03 0.03 0.03 0.03 0.03 0.05 0.07 0.06 0.08 0.16 0.21 0.18 0.16 0.16 0.17 0.18 0.22 0.28 0.35
0.00 0.00 0.00 0.00 0.00 0.01 0.02 0.04 0.03 0.02 0.01 0.01 0.01 0.01 0.01 0.01 0.01 0.02 0.02 0.02 0.02 0.02 0.02 0.02 0.02 0.02 0.03 0.03 0.03 0.03 0.05 0.06 0.05 0.10 0.26 0.35 0.25 0.16 0.12 0.14 0.16 0.19 0.21
0.00 0.00 0.00 0.00 0.00 0.00 0.01 0.03 0.05 0.03 0.02 0.02 0.01 0.01 0.01 0.01 0.01 0.01 0.01 0.01 0.01 0.01 0.02 0.02 0.02 0.02 0.03 0.03 0.04 0.04 0.05 0.08 0.08 0.07 0.12 0.23 0.28 0.35 0.22 0.07 0.06 0.08 0.10
0.00 0.00 0.00 0.00 0.00 0.00 0.01 0.02 0.05 0.04 0.02 0.02 0.01 0.01 0.01 0.01 0.01 0.00 0.00 0.01 0.01 0.01 0.02 0.02 0.02 0.03 0.03 0.04 0.04 0.05 0.06 0.08 0.11 0.13 0.13 0.12 0.13 0.23 0.38 0.18 0.04 0.03 0.05
0.00 0.00 0.00 0.00 0.00 0.00 0.00 0.01 0.03 0.05 0.03 0.02 0.02 0.01 0.01 0.01 0.01 0.01 0.01 0.01 0.01 0.01 0.01 0.02 0.03 0.04 0.04 0.04 0.06 0.07 0.08 0.09 0.11 0.14 0.16 0.21 0.25 0.23 0.32 0.30 0.12 0.07 0.04
0.00 0.00 0.00 0.00 0.00 0.00 0.00 0.01 0.02 0.04 0.04 0.03 0.02 0.02 0.01 0.01 0.01 0.01 0.01 0.01 0.01 0.01 0.02 0.03 0.04 0.05 0.06 0.07 0.08 0.10 0.11 0.12 0.14 0.15 0.16 0.19 0.22 0.25 0.31 0.36 0.25 0.14 0.07
0.00 0.00 0.00 0.00 0.00 0.00 0.00 0.00 0.01 0.02 0.02 0.03 0.03 0.03 0.02 0.01 0.01 0.01 0.01 0.01 0.02 0.02 0.03 0.04 0.05 0.07 0.08 0.10 0.11 0.13 0.14 0.16 0.17 0.17 0.19 0.22 0.21 0.24 0.30 0.38 0.43 0.33 0.13
0.00 0.00 0.00 0.00 0.00 0.00 0.00 0.00 0.01 0.01 0.01 0.02 0.03 0.03 0.03 0.02 0.01 0.01 0.01 0.02 0.03 0.03 0.05 0.07 0.10 0.12 0.13 0.14 0.15 0.18 0.19 0.21 0.23 0.24 0.25 0.27 0.25 0.24 0.26 0.31 0.44 0.61 0.48
0.01 0.00 0.00 0.00 0.00 0.00 0.00 0.00 0.01 0.01 0.01 0.01 0.02 0.02 0.03 0.02 0.01 0.02 0.03 0.04 0.05 0.06 0.07 0.08 0.11 0.14 0.17 0.19 0.22 0.23 0.25 0.28 0.31 0.32 0.32 0.31 0.31 0.30 0.30 0.31 0.34 0.47 0.63
0.01 0.01 0.01 0.01 0.00 0.00 0.00 0.01 0.01 0.02 0.03 0.02 0.02 0.03 0.04 0.04 0.05 0.05 0.06 0.07 0.08 0.09 0.10 0.10 0.11 0.13 0.16 0.19 0.23 0.27 0.32 0.35 0.36 0.36 0.39 0.40 0.40 0.40 0.38 0.38 0.38 0.41 0.55
0.01 0.01 0.01 0.01 0.01 0.01 0.01 0.01 0.02 0.04 0.05 0.04 0.04 0.05 0.06 0.07 0.10 0.12 0.13 0.14 0.14 0.15 0.15 0.14 0.14 0.14 0.15 0.18 0.21 0.25 0.29 0.35 0.39 0.41 0.45 0.46 0.46 0.48 0.48 0.49 0.47 0.46 0.49
0.01 0.01 0.01 0.01 0.01 0.01 0.02 0.03 0.04 0.06 0.05 0.05 0.06 0.07 0.10 0.13 0.17 0.20 0.20 0.20 0.20 0.20 0.19 0.20 0.20 0.21 0.24 0.28 0.29 0.28 0.30 0.34 0.36 0.38 0.44 0.49 0.55 0.58 0.56 0.57 0.55 0.51 0.45
0.01 0.01 0.01 0.01 0.01 0.02 0.03 0.04 0.06 0.07 0.08 0.10 0.12 0.15 0.19 0.23 0.26 0.26 0.26 0.24 0.24 0.25 0.24 0.25 0.27 0.30 0.38 0.52 0.56 0.45 0.41 0.39 0.38 0.38 0.42 0.48 0.57 0.65 0.71 0.75 0.67 0.59 0.61
0.01 0.02 0.02 0.02 0.02 0.03 0.04 0.07 0.10 0.13 0.16 0.21 0.24 0.25 0.24 0.23 0.23 0.23 0.23 0.24 0.26 0.27 0.26 0.25 0.27 0.33 0.47 0.79 0.83 0.67 0.54 0.47 0.45 0.42 0.44 0.48 0.61 0.78 0.95 1.06 1.00 0.94 0.95
0.01 0.02 0.03 0.04 0.05 0.06 0.10 0.15 0.21 0.23 0.25 0.28 0.28 0.26 0.24 0.23 0.23 0.24 0.24 0.24 0.24 0.22 0.19 0.18 0.22 0.31 0.48 0.87 0.94 0.77 0.54 0.48 0.49 0.49 0.44 0.42 0.49 0.58 0.72 0.93 1.00 1.06 1.13
0.03 0.04 0.06 0.08 0.10 0.14 0.19 0.23 0.25 0.25 0.26 0.28 0.29 0.27 0.25 0.25 0.23 0.22 0.20 0.19 0.18 0.14 0.12 0.10 0.13 0.20 0.37 0.74 0.84 0.70 0.48 0.38 0.40 0.40 0.36 0.35 0.35 0.38 0.38 0.48 0.56 0.64 0.79
0.08 0.09 0.11 0.12 0.16 0.21 0.25 0.27 0.27 0.27 0.26 0.25 0.23 0.20 0.17 0.16 0.16 0.16 0.15 0.13 0.12 0.10 0.08 0.07 0.07 0.09 0.17 0.51 0.74 0.60 0.33 0.29 0.31 0.31 0.34 0.36 0.34 0.33 0.39 0.46 0.48 0.45 0.48
0.08 0.08 0.08 0.09 0.13 0.19 0.23 0.23 0.22 0.20 0.18 0.15 0.12 0.09 0.07 0.08 0.09 0.10 0.10 0.08 0.07 0.06 0.05 0.04 0.05 0.05 0.09 0.31 0.67 0.64 0.29 0.27 0.26 0.29 0.39 0.44 0.40 0.40 0.52 0.65 0.63 0.47 0.39
0.04 0.04 0.04 0.04 0.07 0.10 0.12 0.13 0.13 0.11 0.09 0.07 0.05 0.03 0.02 0.03 0.04 0.04 0.04 0.05 0.05 0.05 0.05 0.04 0.04 0.04 0.05 0.19 0.56 0.77 0.39 0.32 0.26 0.29 0.39 0.58 0.57 0.55 0.59 0.67 0.68 0.62 0.42
0.03 0.02 0.03 0.04 0.07 0.10 0.11 0.10 0.08 0.06 0.04 0.02 0.02 0.01 0.01 0.01 0.02 0.02 0.03 0.04 0.05 0.06 0.06 0.05 0.04 0.04 0.05 0.09 0.36 0.78 0.67 0.47 0.39 0.38 0.44 0.57 0.57 0.57 0.58 0.64 0.64 0.64 0.60
0.02 0.03 0.04 0.06 0.10 0.12 0.10 0.07 0.04 0.02 0.01 0.01 0.01 0.01 0.01 0.02 0.02 0.03 0.04 0.04 0.05 0.06 0.07 0.07 0.06 0.05 0.05 0.09 0.25 0.54 0.71 0.63 0.46 0.43 0.38 0.45 0.49 0.54 0.58 0.56 0.56 0.59 0.64
0.03 0.04 0.06 0.09 0.12 0.10 0.06 0.04 0.02 0.01 0.01 0.02 0.02 0.02 0.02 0.03 0.03 0.04 0.05 0.05 0.06 0.09 0.12 0.12 0.11 0.08 0.07 0.11 0.25 0.35 0.41 0.48 0.42 0.45 0.59 0.54 0.47 0.44 0.38 0.34 0.39 0.42 0.43
0.06 0.07 0.08 0.10 0.11 0.08 0.03 0.02 0.02 0.01 0.02 0.02 0.03 0.03 0.03 0.04 0.04 0.05 0.05 0.07 0.09 0.20 0.29 0.25 0.21 0.16 0.13 0.21 0.39 0.41 0.33 0.36 0.39 0.37 0.45 0.45 0.36 0.28 0.22 0.20 0.21 0.23 0.30
0.08 0.09 0.10 0.10 0.08 0.04 0.02 0.02 0.02 0.03 0.03 0.04 0.04 0.04 0.04 0.05 0.06 0.06 0.07 0.10 0.12 0.28 0.48 0.44 0.42 0.39 0.38 0.47 0.71 0.69 0.59 0.59 0.59 0.58 0.56 0.45 0.34 0.28 0.23 0.18 0.15 0.16 0.22
0.13 0.13 0.10 0.06 0.04 0.03 0.03 0.03 0.03 0.05 0.06 0.06 0.06 0.07 0.07 0.07 0.08 0.09 0.10 0.10 0.12 0.18 0.22 0.26 0.36 0.36 0.47 0.59 0.58 0.55 0.54 0.56 0.58 0.62 0.59 0.40 0.30 0.27 0.24 0.23 0.20 0.17 0.18

GEFSMW_prec_meanprecacc_180.txt.gz
Total_Precipitation_Accumulation
0.00 0.00 0.00 0.00 0.01 0.03 0.04 0.04 0.03 0.03 0.03 0.04 0.07 0.08 0.05 0.03 0.03 0.02 0.02 0.03 0.02 0.02 0.02 0.02 0.03 0.04 0.06 0.09 0.12 0.13 0.13 0.14 0.18 0.22 0.20 0.20 0.23 0.27 0.26 0.25 0.28 0.32 0.35
0.00 0.00 0.00 0.00 0.00 0.02 0.04 0.05 0.04 0.03 0.03 0.03 0.04 0.06 0.04 0.02 0.02 0.02 0.02 0.02 0.02 0.02 0.02 0.02 0.03 0.03 0.03 0.03 0.04 0.05 0.07 0.07 0.08 0.16 0.21 0.18 0.16 0.16 0.17 0.18 0.22 0.28 0.35
0.00 0.00 0.01 0.00 0.00 0.01 0.02 0.05 0.05 0.03 0.03 0.03 0.03 0.05 0.06 0.03 0.02 0.02 0.02 0.02 0.02 0.02 0.02 0.02 0.03 0.03 0.03 0.03 0.03 0.04 0.06 0.06 0.06 0.10 0.26 0.36 0.25 0.16 0.12 0.14 0.16 0.19 0.21
0.00 0.01 0.01 0.00 0.00 0.00 0.01 0.04 0.06 0.04 0.03 0.03 0.04 0.04 0.05 0.03 0.02 0.01 0.01 0.01 0.01 0.01 0.02 0.02 0.02 0.03 0.03 0.04 0.04 0.04 0.06 0.08 0.09 0.08 0.13 0.24 0.29 0.35 0.23 0.07 0.06 0.08 0.10
0.00 0.01 0.00 0.00 0.00 0.00 0.01 0.02 0.06 0.06 0.04 0.04 0.03 0.04 0.04 0.02 0.01 0.01 0.01 0.01 0.01 0.01 0.02 0.02 0.03 0.03 0.04 0.04 0.04 0.05 0.06 0.08 0.11 0.13 0.13 0.12 0.14 0.23 0.38 0.18 0.04 0.03 0.05
0.01 0.01 0.00 0.00 0.00 0.00 0.00 0.01 0.04 0.07 0.06 0.04 0.04 0.04 0.02 0.01 0.01 0.01 0.01 0.01 0.01 0.01 0.02 0.02 0.03 0.04 0.04 0.05 0.06 0.07 0.08 0.10 0.12 0.14 0.16 0.21 0.25 0.23 0.32 0.30 0.13 0.07 0.04
0.01 0.00 0.00 0.00 0.00 0.00 0.00 0.01 0.02 0.06 0.07 0.06 0.05 0.04 0.03 0.02 0.01 0.01 0.01 0.01 0.01 0.01 0.02 0.03 0.04 0.05 0.06 0.07 0.08 0.10 0.11 0.12 0.14 0.15 0.17 0.20 0.22 0.25 0.31 0.36 0.25 0.15 0.07
0.01 0.00 0.00 0.00 0.00 0.00 0.00 0.00 0.01 0.03 0.06 0.08 0.06 0.05 0.04 0.02 0.02 0.01 0.01 0.01 0.02 0.02 0.03 0.04 0.06 0.07 0.08 0.10 0.11 0.13 0.14 0.16 0.17 0.18 0.19 0.22 0.21 0.24 0.31 0.39 0.43 0.34 0.13
0.00 0.00 0.00 0.00 0.00 0.00 0.00 0.00 0.01 0.01 0.03 0.06 0.09 0.07 0.05 0.03 0.01 0.01 0.02 0.02 0.03 0.03 0.05 0.07 0.10 0.12 0.13 0.14 0.16 0.18 0.19 0.21 0.23 0.25 0.25 0.27 0.25 0.24 0.26 0.31 0.44 0.62 0.49
0.01 0.00 0.00 0.01 0.01 0.01 0.00 0.00 0.01 0.01 0.02 0.03 0.07 0.10 0.08 0.05 0.03 0.02 0.03 0.04 0.05 0.06 0.07 0.08 0.11 0.15 0.17 0.19 0.22 0.23 0.25 0.28 0.31 0.32 0.32 0.32 0.31 0.31 0.30 0.31 0.35 0.47 0.64
0.01 0.01 0.01 0.01 0.01 0.01 0.01 0.01 0.01 0.02 0.03 0.03 0.05 0.09 0.13 0.11 0.08 0.07 0.07 0.08 0.09 0.10 0.10 0.10 0.11 0.13 0.16 0.19 0.24 0.28 0.32 0.36 0.36 0.37 0.39 0.41 0.41 0.41 0.39 0.38 0.38 0.41 0.55
0.01 0.01 0.01 0.01 0.01 0.02 0.01 0.02 0.03 0.04 0.05 0.04 0.05 0.07 0.12 0.15 0.16 0.17 0.15 0.15 0.15 0.15 0.15 0.14 0.14 0.14 0.15 0.18 0.21 0.25 0.29 0.35 0.39 0.41 0.45 0.47 0.47 0.49 0.48 0.49 0.48 0.46 0.50
0.01 0.01 0.01 0.01 0.01 0.02 0.02 0.03 0.04 0.06 0.05 0.05 0.06 0.08 0.12 0.17 0.22 0.25 0.26 0.24 0.22 0.21 0.20 0.20 0.20 0.21 0.24 0.28 0.29 0.28 0.31 0.34 0.37 0.39 0.45 0.49 0.55 0.59 0.57 0.57 0.56 0.51 0.46
0.01 0.01 0.01 0.01 0.01 0.02 0.03 0.05 0.06 0.08 0.08 0.10 0.13 0.16 0.20 0.24 0.29 0.30 0.30 0.30 0.28 0.27 0.25 0.25 0.27 0.31 0.38 0.52 0.56 0.46 0.42 0.39 0.38 0.38 0.42 0.49 0.58 0.65 0.71 0.76 0.67 0.60 0.62
0.01 0.02 0.02 0.02 0.02 0.03 0.05 0.08 0.10 0.14 0.17 0.21 0.24 0.25 0.24 0.24 0.25 0.26 0.27 0.29 0.31 0.31 0.28 0.27 0.28 0.33 0.47 0.79 0.83 0.67 0.54 0.47 0.45 0.43 0.45 0.49 0.62 0.80 0.96 1.07 1.01 0.95 0.96
0.03 0.03 0.03 0.04 0.05 0.06 0.10 0.15 0.21 0.24 0.26 0.28 0.28 0.27 0.25 0.24 0.24 0.26 0.27 0.28 0.29 0.26 0.22 0.20 0.23 0.32 0.49 0.88 0.94 0.77 0.55 0.49 0.50 0.50 0.45 0.43 0.50 0.59 0.74 0.95 1.01 1.07 1.14
0.04 0.05 0.06 0.08 0.10 0.14 0.19 0.23 0.26 0.26 0.27 0.29 0.29 0.28 0.26 0.26 0.25 0.24 0.23 0.23 0.22 0.18 0.15 0.12 0.14 0.20 0.37 0.75 0.84 0.71 0.48 0.39 0.41 0.41 0.37 0.35 0.35 0.39 0.39 0.49 0.57 0.65 0.80
0.08 0.10 0.11 0.13 0.16 0.21 0.25 0.27 0.27 0.27 0.28 0.27 0.24 0.20 0.18 0.17 0.17 0.18 0.18 0.16 0.15 0.14 0.12 0.09 0.08 0.09 0.18 0.52 0.76 0.62 0.35 0.30 0.32 0.32 0.34 0.36 0.34 0.34 0.40 0.47 0.49 0.46 0.49
0.08 0.08 0.08 0.09 0.14 0.19 0.23 0.23 0.22 0.21 0.19 0.17 0.14 0.11 0.09 0.09 0.10 0.12 0.12 0.11 0.11 0.10 0.09 0.08 0.08 0.07 0.10 0.33 0.68 0.66 0.31 0.28 0.27 0.29 0.39 0.44 0.41 0.41 0.53 0.66 0.64 0.48 0.39
0.04 0.04 0.04 0.04 0.07 0.10 0.12 0.13 0.13 0.11 0.10 0.09 0.07 0.05 0.04 0.05 0.06 0.06 0.07 0.07 0.08 0.08 0.08 0.08 0.07 0.07 0.07 0.21 0.57 0.79 0.41 0.33 0.28 0.29 0.40 0.60 0.59 0.57 0.61 0.68 0.69 0.64 0.43
0.03 0.02 0.03 0.04 0.07 0.10 0.11 0.11 0.08 0.06 0.04 0.04 0.03 0.03 0.03 0.04 0.04 0.05 0.06 0.06 0.08 0.09 0.09 0.08 0.07 0.07 0.07 0.11 0.38 0.79 0.68 0.49 0.41 0.39 0.46 0.58 0.59 0.59 0.60 0.66 0.65 0.65 0.61
0.02 0.03 0.04 0.06 0.10 0.12 0.10 0.07 0.05 0.03 0.02 0.03 0.03 0.03 0.04 0.04 0.04 0.06 0.07 0.08 0.08 0.09 0.10 0.10 0.10 0.08 0.07 0.11 0.26 0.56 0.72 0.64 0.48 0.44 0.39 0.46 0.51 0.56 0.59 0.57 0.58 0.62 0.66
0.03 0.05 0.06 0.09 0.12 0.10 0.06 0.04 0.02 0.02 0.02 0.03 0.04 0.04 0.05 0.05 0.06 0.07 0.09 0.08 0.08 0.11 0.14 0.15 0.14 0.11 0.10 0.13 0.26 0.37 0.43 0.50 0.44 0.47 0.61 0.55 0.49 0.47 0.40 0.36 0.42 0.45 0.46
0.07 0.08 0.08 0.10 0.12 0.08 0.04 0.03 0.02 0.02 0.02 0.03 0.04 0.05 0.06 0.07 0.07 0.08 0.08 0.09 0.11 0.23 0.31 0.27 0.24 0.18 0.17 0.24 0.41 0.44 0.36 0.39 0.42 0.40 0.47 0.48 0.39 0.31 0.25 0.24 0.25 0.27 0.33
0.09 0.10 0.11 0.11 0.09 0.05 0.02 0.02 0.03 0.03 0.04 0.04 0.05 0.06 0.07 0.08 0.09 0.08 0.08 0.11 0.14 0.30 0.50 0.46 0.44 0.42 0.40 0.50 0.74 0.72 0.62 0.62 0.62 0.61 0.59 0.48 0.37 0.32 0.26 0.22 0.19 0.20 0.26
0.15 0.15 0.12 0.08 0.05 0.04 0.03 0.03 0.04 0.06 0.07 0.07 0.07 0.08 0.09 0.10 0.11 0.12 0.12 0.12 0.14 0.21 0.25 0.29 0.39 0.39 0.50 0.63 0.62 0.58 0.57 0.59 0.61 0.65 0.61 0.43 0.33 0.31 0.29 0.27 0.24 0.22 0.23

GEFSMW_prec_meanprecacc_186.txt.gz
Total_Precipitation_Accumulation
0.00 0.00 0.00 0.00 0.01 0.03 0.04 0.04 0.04 0.04 0.04 0.05 0.09 0.11 0.09 0.09 0.09 0.08 0.07 0.08 0.06 0.03 0.03 0.02 0.03 0.05 0.07 0.10 0.13 0.14 0.14 0.14 0.18 0.23 0.21 0.20 0.24 0.27 0.26 0.25 0.28 0.32 0.35
0.00 0.00 0.00 0.00 0.00 0.02 0.04 0.05 0.04 0.04 0.04 0.03 0.05 0.08 0.08 0.07 0.07 0.07 0.07 0.07 0.05 0.03 0.03 0.03 0.03 0.03 0.04 0.04 0.04 0.06 0.09 0.08 0.09 0.17 0.22 0.18 0.16 0.16 0.17 0.18 0.22 0.28 0.35
0.00 0.00 0.01 0.01 0.00 0.01 0.03 0.05 0.05 0.04 0.04 0.04 0.05 0.08 0.10 0.08 0.07 0.07 0.07 0.07 0.05 0.04 0.03 0.03 0.03 0.03 0.04 0.04 0.04 0.04 0.07 0.08 0.06 0.11 0.27 0.36 0.25 0.17 0.12 0.14 0.16 0.20 0.21
0.00 0.01 0.01 0.01 0.00 0.01 0.01 0.04 0.07 0.06 0.05 0.04 0.05 0.07 0.09 0.07 0.06 0.05 0.06 0.05 0.04 0.04 0.03 0.03 0.03 0.04 0.04 0.05 0.05 0.05 0.07 0.09 0.10 0.08 0.13 0.24 0.29 0.36 0.23 0.07 0.06 0.08 0.10
0.01 0.01 0.01 0.00 0.00 0.00 0.01 0.02 0.07 0.07 0.06 0.05 0.04 0.06 0.07 0.05 0.04 0.04 0.04 0.05 0.04 0.04 0.04 0.03 0.04 0.04 0.04 0.05 0.05 0.05 0.07 0.09 0.12 0.14 0.13 0.13 0.14 0.23 0.39 0.19 0.04 0.03 0.05
0.01 0.01 0.01 0.01 0.00 0.00 0.01 0.02 0.05 0.08 0.07 0.06 0.05 0.05 0.06 0.05 0.04 0.04 0.03 0.04 0.04 0.04 0.04 0.04 0.04 0.05 0.05 0.06 0.07 0.08 0.09 0.10 0.12 0.14 0.16 0.21 0.25 0.24 0.32 0.31 0.13 0.07 0.04
0.01 0.01 0.01 0.01 0.01 0.00 0.00 0.01 0.03 0.07 0.08 0.07 0.06 0.05 0.05 0.05 0.03 0.04 0.03 0.03 0.03 0.04 0.06 0.06 0.05 0.06 0.07 0.08 0.10 0.11 0.12 0.13 0.14 0.16 0.17 0.20 0.23 0.26 0.32 0.37 0.26 0.15 0.07
0.01 0.00 0.00 0.00 0.01 0.01 0.01 0.01 0.02 0.04 0.07 0.09 0.07 0.06 0.06 0.05 0.04 0.03 0.04 0.04 0.04 0.04 0.06 0.07 0.08 0.08 0.10 0.11 0.13 0.14 0.16 0.17 0.18 0.18 0.20 0.23 0.22 0.25 0.31 0.39 0.44 0.34 0.14
0.00 0.00 0.00 0.00 0.01 0.01 0.01 0.01 0.02 0.03 0.04 0.07 0.10 0.09 0.07 0.06 0.04 0.03 0.03 0.04 0.05 0.06 0.07 0.10 0.12 0.14 0.15 0.16 0.18 0.20 0.21 0.23 0.25 0.26 0.26 0.28 0.25 0.25 0.26 0.31 0.45 0.63 0.50
0.01 0.01 0.00 0.01 0.01 0.01 0.01 0.02 0.02 0.03 0.03 0.04 0.09 0.12 0.10 0.08 0.06 0.05 0.05 0.06 0.08 0.10 0.11 0.12 0.14 0.17 0.19 0.22 0.25 0.26 0.27 0.30 0.33 0.34 0.34 0.33 0.32 0.31 0.31 0.32 0.36 0.49 0.66
0.02 0.01 0.01 0.01 0.02 0.02 0.02 0.02 0.03 0.04 0.05 0.05 0.06 0.10 0.14 0.13 0.12 0.11 0.10 0.10 0.11 0.13 0.15 0.15 0.15 0.16 0.17 0.21 0.26 0.30 0.35 0.38 0.39 0.39 0.41 0.42 0.42 0.42 0.40 0.40 0.40 0.43 0.57
0.03 0.02 0.01 0.01 0.02 0.03 0.03 0.04 0.04 0.06 0.07 0.06 0.07 0.08 0.13 0.18 0.20 0.21 0.20 0.18 0.18 0.18 0.19 0.19 0.19 0.18 0.18 0.20 0.23 0.27 0.32 0.38 0.42 0.44 0.47 0.48 0.48 0.50 0.49 0.50 0.49 0.48 0.51
0.03 0.03 0.02 0.01 0.03 0.04 0.05 0.06 0.07 0.08 0.09 0.08 0.08 0.10 0.13 0.19 0.25 0.29 0.31 0.30 0.27 0.25 0.24 0.24 0.24 0.25 0.27 0.30 0.31 0.31 0.34 0.38 0.40 0.42 0.46 0.51 0.57 0.60 0.58 0.59 0.58 0.53 0.48
0.03 0.03 0.02 0.02 0.02 0.04 0.05 0.07 0.09 0.10 0.12 0.14 0.14 0.17 0.21 0.26 0.31 0.33 0.33 0.34 0.33 0.32 0.31 0.30 0.30 0.34 0.41 0.54 0.58 0.48 0.44 0.42 0.42 0.42 0.46 0.51 0.60 0.67 0.73 0.78 0.70 0.63 0.65
0.03 0.04 0.04 0.03 0.03 0.04 0.06 0.10 0.13 0.16 0.20 0.27 0.27 0.27 0.25 0.26 0.26 0.28 0.29 0.31 0.34 0.36 0.35 0.32 0.32 0.36 0.50 0.81 0.85 0.69 0.56 0.50 0.48 0.47 0.49 0.53 0.65 0.82 0.98 1.09 1.03 0.97 0.99
0.05 0.05 0.06 0.06 0.06 0.08 0.12 0.18 0.24 0.26 0.29 0.32 0.31 0.28 0.26 0.25 0.26 0.27 0.29 0.30 0.31 0.30 0.28 0.27 0.28 0.35 0.52 0.91 0.97 0.79 0.58 0.52 0.53 0.53 0.48 0.47 0.53 0.61 0.76 0.96 1.03 1.09 1.16
0.06 0.08 0.09 0.11 0.12 0.15 0.21 0.25 0.28 0.28 0.29 0.31 0.31 0.29 0.27 0.27 0.26 0.25 0.24 0.24 0.23 0.22 0.20 0.20 0.21 0.25 0.40 0.78 0.87 0.74 0.52 0.43 0.45 0.45 0.41 0.39 0.38 0.41 0.40 0.51 0.59 0.68 0.82
0.11 0.12 0.14 0.15 0.18 0.22 0.26 0.29 0.29 0.30 0.30 0.28 0.26 0.22 0.19 0.18 0.18 0.19 0.19 0.17 0.16 0.17 0.16 0.15 0.15 0.15 0.21 0.55 0.79 0.65 0.39 0.34 0.37 0.38 0.39 0.40 0.37 0.36 0.42 0.49 0.51 0.48 0.51
0.10 0.10 0.10 0.12 0.16 0.20 0.24 0.24 0.24 0.23 0.22 0.18 0.15 0.12 0.10 0.10 0.11 0.13 0.13 0.12 0.12 0.12 0.12 0.13 0.13 0.13 0.15 0.36 0.72 0.70 0.35 0.34 0.32 0.35 0.45 0.50 0.44 0.44 0.56 0.69 0.67 0.51 0.41
0.04 0.05 0.05 0.06 0.09 0.12 0.13 0.14 0.15 0.13 0.13 0.11 0.08 0.06 0.05 0.05 0.06 0.07 0.08 0.08 0.10 0.11 0.11 0.12 0.13 0.13 0.12 0.26 0.63 0.84 0.46 0.39 0.33 0.34 0.45 0.67 0.63 0.61 0.65 0.73 0.74 0.68 0.47
0.03 0.03 0.04 0.06 0.08 0.11 0.11 0.11 0.09 0.08 0.07 0.07 0.06 0.05 0.05 0.04 0.05 0.06 0.07 0.08 0.10 0.12 0.13 0.13 0.13 0.14 0.12 0.17 0.43 0.85 0.74 0.53 0.45 0.43 0.49 0.62 0.64 0.63 0.65 0.70 0.70 0.70 0.66
0.03 0.03 0.05 0.07 0.12 0.13 0.11 0.07 0.05 0.03 0.04 0.06 0.06 0.06 0.05 0.05 0.05 0.06 0.08 0.10 0.11 0.12 0.13 0.15 0.15 0.13 0.12 0.16 0.31 0.60 0.77 0.69 0.51 0.48 0.42 0.49 0.54 0.59 0.63 0.61 0.63 0.67 0.71
0.04 0.05 0.07 0.11 0.14 0.11 0.07 0.04 0.03 0.02 0.03 0.05 0.06 0.06 0.06 0.06 0.07 0.09 0.11 0.11 0.11 0.14 0.17 0.18 0.18 0.15 0.13 0.17 0.31 0.41 0.47 0.54 0.48 0.50 0.64 0.58 0.53 0.50 0.43 0.40 0.46 0.49 0.49
0.07 0.08 0.09 0.11 0.14 0.10 0.05 0.04 0.03 0.02 0.03 0.05 0.06 0.07 0.07 0.08 0.08 0.09 0.10 0.11 0.13 0.25 0.34 0.31 0.28 0.22 0.20 0.27 0.45 0.48 0.41 0.44 0.46 0.45 0.52 0.52 0.42 0.35 0.29 0.28 0.29 0.30 0.36
0.09 0.10 0.12 0.12 0.11 0.07 0.04 0.03 0.04 0.04 0.06 0.07 0.07 0.09 0.09 0.10 0.11 0.11 0.12 0.14 0.16 0.33 0.54 0.51 0.49 0.46 0.44 0.53 0.79 0.78 0.67 0.67 0.67 0.66 0.64 0.52 0.41 0.35 0.30 0.25 0.22 0.23 0.30
0.15 0.16 0.13 0.09 0.07 0.07 0.05 0.05 0.05 0.07 0.08 0.09 0.09 0.11 0.12 0.13 0.15 0.16 0.17 0.17 0.18 0.25 0.29 0.33 0.43 0.42 0.53 0.66 0.66 0.63 0.62 0.65 0.67 0.71 0.67 0.48 0.37 0.35 0.32 0.31 0.28 0.26 0.28

GEFSMW_prec_meanprecacc_192.txt.gz
Total_Precipitation_Accumulation
0.00 0.00 0.00 0.00 0.01 0.04 0.06 0.06 0.05 0.06 0.07 0.09 0.13 0.16 0.13 0.12 0.12 0.09 0.08 0.09 0.10 0.10 0.10 0.10 0.10 0.10 0.10 0.12 0.14 0.15 0.15 0.15 0.19 0.24 0.22 0.20 0.24 0.27 0.26 0.25 0.28 0.32 0.35
0.00 0.00 0.01 0.01 0.01 0.02 0.05 0.07 0.06 0.05 0.06 0.07 0.09 0.12 0.11 0.10 0.11 0.10 0.08 0.08 0.08 0.09 0.09 0.09 0.10 0.10 0.08 0.07 0.07 0.08 0.11 0.10 0.10 0.19 0.23 0.18 0.16 0.16 0.17 0.18 0.22 0.28 0.36
0.00 0.00 0.01 0.01 0.01 0.01 0.03 0.06 0.06 0.05 0.05 0.06 0.09 0.13 0.15 0.13 0.12 0.12 0.10 0.08 0.08 0.08 0.07 0.08 0.09 0.10 0.09 0.08 0.07 0.07 0.09 0.10 0.08 0.12 0.29 0.38 0.26 0.17 0.12 0.14 0.16 0.20 0.21
0.00 0.01 0.01 0.01 0.01 0.01 0.02 0.05 0.07 0.07 0.06 0.07 0.09 0.11 0.14 0.12 0.10 0.09 0.09 0.08 0.07 0.07 0.07 0.07 0.09 0.10 0.10 0.09 0.08 0.07 0.09 0.11 0.11 0.09 0.14 0.26 0.30 0.36 0.24 0.07 0.06 0.08 0.10
0.01 0.01 0.01 0.01 0.01 0.01 0.01 0.02 0.07 0.08 0.07 0.07 0.08 0.10 0.12 0.11 0.10 0.09 0.09 0.09 0.08 0.06 0.07 0.07 0.09 0.10 0.10 0.09 0.09 0.09 0.10 0.11 0.14 0.15 0.15 0.14 0.15 0.25 0.40 0.19 0.04 0.03 0.05
0.01 0.02 0.02 0.02 0.01 0.01 0.01 0.02 0.05 0.08 0.08 0.09 0.09 0.10 0.11 0.11 0.12 0.11 0.09 0.08 0.09 0.07 0.06 0.07 0.08 0.09 0.10 0.11 0.11 0.12 0.12 0.12 0.14 0.16 0.18 0.23 0.27 0.25 0.34 0.31 0.14 0.08 0.05
0.01 0.01 0.02 0.03 0.03 0.02 0.02 0.02 0.04 0.07 0.09 0.10 0.11 0.10 0.11 0.11 0.11 0.12 0.10 0.07 0.07 0.08 0.08 0.08 0.08 0.10 0.11 0.12 0.13 0.14 0.16 0.16 0.17 0.18 0.19 0.22 0.25 0.28 0.34 0.38 0.27 0.16 0.08
0.01 0.00 0.00 0.01 0.01 0.02 0.02 0.02 0.03 0.05 0.08 0.10 0.11 0.11 0.11 0.11 0.10 0.11 0.12 0.08 0.07 0.07 0.08 0.09 0.10 0.12 0.14 0.16 0.17 0.18 0.19 0.21 0.22 0.22 0.24 0.26 0.25 0.27 0.34 0.42 0.46 0.36 0.15
0.01 0.00 0.00 0.00 0.01 0.02 0.02 0.03 0.03 0.04 0.06 0.09 0.13 0.13 0.12 0.12 0.10 0.09 0.11 0.10 0.08 0.08 0.10 0.12 0.15 0.17 0.20 0.21 0.23 0.24 0.24 0.26 0.28 0.30 0.30 0.32 0.29 0.28 0.30 0.35 0.49 0.66 0.53
0.01 0.01 0.01 0.01 0.01 0.01 0.02 0.03 0.04 0.05 0.06 0.07 0.11 0.15 0.14 0.14 0.13 0.11 0.12 0.12 0.11 0.13 0.13 0.15 0.16 0.20 0.24 0.27 0.30 0.31 0.33 0.35 0.38 0.39 0.39 0.38 0.36 0.36 0.36 0.38 0.41 0.54 0.70
0.03 0.02 0.01 0.01 0.02 0.02 0.02 0.02 0.04 0.06 0.08 0.08 0.09 0.13 0.19 0.19 0.18 0.18 0.18 0.16 0.16 0.17 0.18 0.18 0.18 0.19 0.21 0.27 0.33 0.35 0.40 0.44 0.44 0.45 0.47 0.48 0.48 0.49 0.47 0.48 0.49 0.51 0.65
0.04 0.03 0.03 0.03 0.03 0.03 0.03 0.04 0.05 0.07 0.09 0.09 0.10 0.12 0.17 0.23 0.26 0.28 0.27 0.26 0.24 0.22 0.22 0.23 0.24 0.22 0.21 0.26 0.30 0.33 0.36 0.42 0.47 0.49 0.53 0.55 0.55 0.57 0.56 0.58 0.57 0.56 0.59
0.04 0.04 0.03 0.04 0.05 0.05 0.05 0.07 0.08 0.09 0.10 0.10 0.11 0.14 0.18 0.24 0.31 0.35 0.38 0.37 0.34 0.32 0.29 0.28 0.29 0.30 0.33 0.36 0.38 0.38 0.40 0.42 0.44 0.46 0.51 0.56 0.62 0.66 0.64 0.65 0.64 0.58 0.53
0.03 0.04 0.04 0.03 0.04 0.06 0.07 0.09 0.11 0.12 0.14 0.17 0.18 0.22 0.28 0.32 0.36 0.39 0.39 0.39 0.40 0.41 0.39 0.37 0.36 0.38 0.47 0.62 0.65 0.54 0.50 0.47 0.46 0.46 0.50 0.56 0.65 0.73 0.80 0.86 0.77 0.69 0.70
0.03 0.05 0.05 0.04 0.05 0.06 0.08 0.13 0.16 0.20 0.24 0.31 0.32 0.31 0.32 0.35 0.34 0.34 0.34 0.36 0.40 0.43 0.43 0.39 0.39 0.42 0.55 0.87 0.92 0.74 0.61 0.55 0.53 0.51 0.52 0.57 0.70 0.88 1.05 1.16 1.11 1.05 1.05
0.05 0.06 0.06 0.07 0.07 0.09 0.14 0.21 0.27 0.30 0.33 0.38 0.39 0.35 0.31 0.32 0.36 0.36 0.34 0.35 0.36 0.35 0.35 0.34 0.36 0.43 0.59 0.97 1.03 0.84 0.62 0.57 0.57 0.56 0.51 0.50 0.57 0.67 0.82 1.03 1.09 1.16 1.24
0.06 0.08 0.09 0.11 0.13 0.17 0.22 0.27 0.31 0.31 0.33 0.37 0.40 0.38 0.33 0.32 0.34 0.35 0.31 0.30 0.28 0.27 0.26 0.26 0.28 0.33 0.49 0.86 0.94 0.80 0.56 0.48 0.49 0.49 0.44 0.43 0.43 0.47 0.47 0.58 0.66 0.74 0.90
0.11 0.13 0.15 0.16 0.18 0.23 0.27 0.31 0.31 0.32 0.32 0.32 0.32 0.32 0.25 0.22 0.24 0.27 0.25 0.23 0.22 0.23 0.23 0.22 0.22 0.21 0.28 0.63 0.86 0.72 0.45 0.40 0.41 0.41 0.43 0.44 0.42 0.42 0.48 0.56 0.58 0.55 0.58
0.10 0.10 0.11 0.13 0.17 0.21 0.24 0.25 0.25 0.24 0.23 0.22 0.20 0.21 0.17 0.13 0.15 0.18 0.18 0.17 0.17 0.17 0.18 0.21 0.21 0.19 0.20 0.42 0.78 0.77 0.42 0.40 0.37 0.39 0.50 0.55 0.50 0.51 0.63 0.75 0.73 0.58 0.49
0.05 0.05 0.06 0.07 0.10 0.12 0.13 0.14 0.15 0.14 0.14 0.13 0.12 0.16 0.13 0.09 0.09 0.11 0.11 0.12 0.13 0.15 0.16 0.18 0.22 0.21 0.18 0.32 0.69 0.91 0.54 0.46 0.39 0.39 0.51 0.73 0.70 0.68 0.72 0.78 0.80 0.75 0.54
0.04 0.03 0.04 0.07 0.09 0.11 0.12 0.12 0.10 0.08 0.07 0.08 0.09 0.14 0.14 0.08 0.06 0.08 0.09 0.11 0.13 0.16 0.17 0.17 0.19 0.22 0.20 0.24 0.51 0.94 0.83 0.62 0.52 0.49 0.54 0.67 0.71 0.70 0.71 0.76 0.76 0.76 0.71
0.03 0.04 0.05 0.08 0.12 0.14 0.11 0.08 0.06 0.04 0.04 0.07 0.09 0.12 0.15 0.10 0.07 0.08 0.10 0.11 0.13 0.17 0.18 0.19 0.20 0.20 0.20 0.24 0.40 0.70 0.87 0.78 0.58 0.53 0.46 0.53 0.60 0.66 0.68 0.67 0.69 0.72 0.75
0.04 0.05 0.07 0.12 0.15 0.12 0.08 0.05 0.04 0.03 0.03 0.06 0.09 0.10 0.13 0.12 0.11 0.11 0.12 0.12 0.13 0.18 0.23 0.23 0.24 0.21 0.20 0.25 0.39 0.49 0.54 0.61 0.55 0.56 0.70 0.64 0.58 0.55 0.50 0.46 0.52 0.55 0.53
0.07 0.08 0.09 0.13 0.15 0.11 0.06 0.05 0.04 0.04 0.04 0.06 0.09 0.11 0.12 0.14 0.12 0.11 0.12 0.13 0.15 0.28 0.38 0.36 0.32 0.26 0.24 0.32 0.51 0.54 0.46 0.50 0.53 0.52 0.61 0.59 0.49 0.41 0.36 0.34 0.34 0.34 0.40
0.09 0.11 0.12 0.13 0.12 0.09 0.06 0.05 0.06 0.07 0.07 0.08 0.10 0.12 0.13 0.13 0.15 0.14 0.14 0.17 0.18 0.36 0.58 0.55 0.55 0.52 0.49 0.58 0.84 0.82 0.71 0.71 0.71 0.72 0.71 0.60 0.47 0.42 0.36 0.32 0.28 0.28 0.35
0.16 0.16 0.14 0.10 0.09 0.08 0.07 0.06 0.07 0.10 0.11 0.11 0.12 0.14 0.16 0.16 0.18 0.19 0.20 0.20 0.21 0.28 0.32 0.37 0.48 0.47 0.59 0.71 0.70 0.66 0.65 0.68 0.71 0.75 0.72 0.54 0.43 0.40 0.37 0.37 0.34 0.30 0.32

GEFSMW_prec_meanprecacc_198.txt.gz
Total_Precipitation_Accumulation
0.00 0.00 0.01 0.01 0.02 0.05 0.07 0.08 0.08 0.09 0.11 0.12 0.15 0.17 0.14 0.13 0.13 0.10 0.09 0.10 0.11 0.12 0.12 0.11 0.12 0.12 0.13 0.16 0.20 0.21 0.21 0.22 0.24 0.27 0.24 0.22 0.24 0.27 0.26 0.25 0.28 0.32 0.35
0.00 0.00 0.01 0.01 0.01 0.03 0.05 0.08 0.08 0.07 0.08 0.09 0.11 0.14 0.13 0.12 0.12 0.12 0.10 0.10 0.10 0.10 0.11 0.11 0.12 0.12 0.11 0.10 0.11 0.14 0.17 0.16 0.17 0.24 0.27 0.20 0.17 0.17 0.17 0.18 0.22 0.29 0.36
0.01 0.01 0.01 0.01 0.01 0.02 0.04 0.06 0.07 0.07 0.07 0.08 0.11 0.16 0.17 0.15 0.14 0.14 0.13 0.11 0.10 0.09 0.09 0.09 0.11 0.13 0.14 0.12 0.10 0.11 0.15 0.15 0.13 0.17 0.32 0.40 0.27 0.17 0.12 0.14 0.16 0.20 0.21
0.01 0.01 0.01 0.01 0.01 0.01 0.02 0.05 0.08 0.08 0.07 0.08 0.11 0.14 0.16 0.14 0.12 0.12 0.12 0.12 0.11 0.10 0.09 0.09 0.11 0.13 0.14 0.14 0.12 0.11 0.13 0.16 0.16 0.14 0.18 0.28 0.32 0.38 0.24 0.08 0.06 0.08 0.10
0.01 0.01 0.01 0.01 0.01 0.01 0.01 0.03 0.07 0.09 0.09 0.09 0.10 0.13 0.14 0.13 0.12 0.12 0.13 0.14 0.13 0.11 0.11 0.11 0.11 0.12 0.14 0.14 0.14 0.13 0.13 0.14 0.17 0.19 0.18 0.17 0.18 0.27 0.42 0.20 0.04 0.04 0.05
0.01 0.02 0.02 0.02 0.01 0.01 0.02 0.03 0.05 0.09 0.09 0.10 0.11 0.13 0.14 0.14 0.15 0.15 0.15 0.15 0.15 0.14 0.12 0.12 0.12 0.13 0.14 0.15 0.17 0.17 0.14 0.14 0.16 0.18 0.20 0.25 0.29 0.27 0.36 0.34 0.15 0.09 0.05
0.02 0.02 0.02 0.03 0.03 0.02 0.02 0.03 0.05 0.08 0.10 0.10 0.12 0.12 0.14 0.15 0.16 0.19 0.17 0.16 0.16 0.15 0.14 0.14 0.14 0.14 0.15 0.16 0.18 0.20 0.19 0.18 0.19 0.20 0.21 0.25 0.27 0.29 0.36 0.41 0.29 0.18 0.09
0.01 0.01 0.01 0.01 0.01 0.02 0.02 0.03 0.04 0.06 0.10 0.12 0.12 0.13 0.14 0.14 0.14 0.17 0.21 0.20 0.17 0.16 0.17 0.17 0.17 0.17 0.18 0.19 0.21 0.22 0.23 0.24 0.24 0.23 0.25 0.28 0.27 0.29 0.36 0.44 0.49 0.40 0.18
0.01 0.01 0.01 0.01 0.01 0.02 0.02 0.03 0.04 0.06 0.08 0.11 0.15 0.15 0.14 0.14 0.12 0.13 0.17 0.21 0.21 0.19 0.19 0.23 0.24 0.25 0.26 0.26 0.27 0.28 0.28 0.30 0.32 0.32 0.32 0.33 0.30 0.30 0.32 0.38 0.52 0.72 0.58
0.01 0.01 0.01 0.01 0.02 0.02 0.02 0.03 0.04 0.06 0.08 0.09 0.14 0.18 0.17 0.16 0.15 0.14 0.15 0.19 0.23 0.26 0.24 0.24 0.27 0.30 0.32 0.33 0.34 0.34 0.36 0.39 0.41 0.42 0.41 0.39 0.38 0.39 0.39 0.41 0.45 0.60 0.77
0.03 0.02 0.01 0.01 0.02 0.03 0.03 0.03 0.04 0.07 0.09 0.10 0.12 0.16 0.22 0.22 0.21 0.21 0.21 0.21 0.24 0.28 0.32 0.30 0.28 0.28 0.30 0.36 0.40 0.41 0.43 0.47 0.47 0.47 0.50 0.50 0.51 0.52 0.51 0.52 0.54 0.58 0.73
0.04 0.04 0.03 0.03 0.03 0.04 0.04 0.05 0.05 0.08 0.10 0.11 0.13 0.15 0.20 0.27 0.29 0.30 0.30 0.30 0.31 0.32 0.34 0.36 0.35 0.30 0.28 0.32 0.38 0.41 0.42 0.47 0.50 0.52 0.56 0.58 0.59 0.61 0.61 0.63 0.63 0.62 0.67
0.04 0.04 0.04 0.04 0.05 0.06 0.06 0.07 0.08 0.09 0.11 0.11 0.14 0.17 0.21 0.28 0.35 0.39 0.41 0.40 0.39 0.41 0.39 0.39 0.41 0.40 0.40 0.42 0.44 0.45 0.47 0.48 0.49 0.50 0.55 0.60 0.66 0.70 0.68 0.68 0.68 0.63 0.58
0.04 0.05 0.04 0.04 0.05 0.07 0.08 0.10 0.12 0.13 0.14 0.17 0.19 0.25 0.31 0.34 0.39 0.43 0.44 0.45 0.46 0.47 0.48 0.47 0.46 0.48 0.54 0.67 0.70 0.60 0.58 0.55 0.52 0.51 0.55 0.61 0.70 0.78 0.84 0.90 0.81 0.73 0.75
0.04 0.05 0.06 0.05 0.05 0.07 0.09 0.13 0.17 0.21 0.25 0.31 0.33 0.33 0.34 0.38 0.37 0.37 0.39 0.42 0.47 0.49 0.50 0.48 0.49 0.51 0.63 0.93 0.96 0.80 0.69 0.63 0.60 0.56 0.57 0.62 0.76 0.95 1.12 1.22 1.16 1.10 1.12
0.06 0.06 0.07 0.08 0.07 0.10 0.15 0.22 0.28 0.31 0.35 0.39 0.40 0.37 0.33 0.34 0.38 0.39 0.38 0.40 0.44 0.43 0.43 0.43 0.44 0.51 0.66 1.03 1.07 0.89 0.67 0.63 0.64 0.63 0.57 0.55 0.63 0.73 0.88 1.09 1.15 1.23 1.32
0.07 0.09 0.10 0.13 0.14 0.17 0.23 0.29 0.32 0.33 0.35 0.39 0.41 0.41 0.35 0.33 0.35 0.37 0.35 0.34 0.34 0.34 0.33 0.34 0.35 0.38 0.54 0.91 0.99 0.85 0.61 0.53 0.54 0.55 0.51 0.51 0.50 0.54 0.52 0.63 0.71 0.80 0.96
0.11 0.13 0.15 0.17 0.20 0.24 0.28 0.32 0.33 0.34 0.34 0.35 0.34 0.34 0.27 0.24 0.26 0.30 0.28 0.27 0.26 0.29 0.31 0.31 0.29 0.27 0.33 0.68 0.92 0.79 0.50 0.45 0.47 0.47 0.49 0.52 0.50 0.49 0.53 0.60 0.63 0.59 0.62
0.10 0.10 0.11 0.14 0.18 0.23 0.25 0.25 0.26 0.26 0.25 0.24 0.22 0.23 0.18 0.15 0.18 0.22 0.22 0.21 0.21 0.23 0.25 0.28 0.29 0.27 0.28 0.49 0.86 0.86 0.50 0.46 0.43 0.45 0.56 0.63 0.57 0.58 0.70 0.81 0.79 0.63 0.54
0.05 0.06 0.06 0.08 0.10 0.13 0.15 0.15 0.16 0.15 0.16 0.15 0.14 0.17 0.15 0.12 0.13 0.16 0.17 0.18 0.19 0.21 0.22 0.24 0.30 0.30 0.27 0.40 0.78 1.01 0.63 0.54 0.46 0.47 0.59 0.82 0.78 0.75 0.79 0.85 0.87 0.82 0.60
0.04 0.04 0.04 0.07 0.09 0.11 0.12 0.13 0.11 0.09 0.09 0.10 0.11 0.16 0.16 0.11 0.10 0.12 0.13 0.16 0.19 0.21 0.22 0.23 0.24 0.28 0.27 0.32 0.60 1.04 0.92 0.70 0.60 0.57 0.63 0.76 0.80 0.79 0.79 0.84 0.84 0.84 0.78
0.03 0.04 0.05 0.09 0.13 0.14 0.12 0.09 0.07 0.05 0.05 0.08 0.10 0.13 0.18 0.13 0.10 0.11 0.13 0.14 0.18 0.22 0.23 0.23 0.24 0.24 0.26 0.31 0.48 0.80 0.98 0.89 0.68 0.62 0.55 0.62 0.69 0.75 0.77 0.75 0.77 0.80 0.82
0.05 0.06 0.07 0.12 0.15 0.12 0.08 0.06 0.05 0.05 0.05 0.07 0.10 0.13 0.17 0.15 0.13 0.14 0.15 0.14 0.16 0.22 0.27 0.28 0.28 0.25 0.25 0.31 0.47 0.59 0.66 0.74 0.67 0.66 0.78 0.72 0.66 0.63 0.57 0.53 0.59 0.62 0.59
0.08 0.09 0.09 0.13 0.15 0.11 0.06 0.05 0.05 0.05 0.05 0.07 0.10 0.14 0.17 0.18 0.16 0.15 0.15 0.15 0.18 0.31 0.41 0.40 0.37 0.31 0.30 0.38 0.58 0.62 0.55 0.60 0.64 0.62 0.69 0.66 0.55 0.47 0.42 0.40 0.40 0.40 0.46
0.10 0.11 0.12 0.13 0.13 0.09 0.06 0.05 0.07 0.08 0.08 0.09 0.11 0.16 0.19 0.20 0.20 0.17 0.17 0.20 0.20 0.39 0.62 0.60 0.60 0.58 0.55 0.64 0.90 0.90 0.79 0.79 0.80 0.80 0.77 0.65 0.52 0.45 0.40 0.35 0.32 0.32 0.40
0.17 0.17 0.14 0.11 0.09 0.09 0.07 0.07 0.08 0.11 0.12 0.13 0.14 0.17 0.21 0.22 0.23 0.22 0.22 0.23 0.24 0.32 0.37 0.42 0.53 0.53 0.65 0.77 0.77 0.74 0.73 0.76 0.80 0.82 0.77 0.58 0.47 0.43 0.40 0.39 0.37 0.33 0.35